[[{"header":{"parameterUnit":"m.s-1","parameterCategory":1,"la1":30.6,"la2":28.766,"lo1":-90.7593,"lo2":-88.6598,"dy":0.0162,"dx":0.0183,"nx":116,"ny":114,"refTime":"2024-02-01T06:00:00:Z","depth":0,"parameterNumber":2,"parameterNumberName":"U-component_of_WINDS"},"data":[0.0,0.0,0.0,0.0,0.0,0.0,0.0,0.0,0.0,0.0,0.0,0.0,0.0,0.0,0.0,0.0,0.0,0.0,0.0,0.0,0.0,0.0,0.0,0.0,0.0,0.0,0.0,0.0,0.0,0.0,0.0,0.0,0.0,0.0,0.0,0.0,0.0,0.0,0.0,0.0,0.0,0.0,0.0,0.0,0.0,0.0,0.0,0.0,0.0,0.0,0.0,0.0,0.0,0.0,0.0,0.0,0.0,0.0,0.0,0.0,0.0,0.0,0.0,0.0,0.0,0.0,0.0,0.0,0.0,0.0,0.0,0.0,0.0,0.0,0.0,0.0,0.0,0.0,0.0,0.0,0.0,0.0,0.0,0.0,0.0,0.0,0.0,0.0,0.0,0.0,0.0,0.0,0.0,0.0,0.0,0.0,0.0,0.0,0.0,0.0,0.0,0.0,0.0,0.0,0.0,0.0,0.0,0.0,0.0,0.0,0.0,0.0,0.0,0.0,0.0,0.0,0.0,0.0,0.0,0.0,0.0,0.0,0.0,0.0,0.0,0.0,0.0,0.0,0.0,0.0,0.0,0.0,0.0,0.0,0.0,0.0,0.0,0.0,0.0,0.0,0.0,0.0,0.0,0.0,0.0,0.0,0.0,0.0,0.0,0.0,0.0,0.0,0.0,0.0,0.0,0.0,0.0,0.0,0.0,0.0,0.0,0.0,0.0,0.0,0.0,0.0,0.0,0.0,0.0,0.0,0.0,0.0,0.0,0.0,0.0,0.0,0.0,0.0,0.0,0.0,0.0,0.0,0.0,0.0,0.0,0.0,0.0,0.0,0.0,0.0,0.0,0.0,0.0,0.0,0.0,0.0,0.0,0.0,0.0,0.0,0.0,0.0,0.0,0.0,0.0,0.0,0.0,0.0,0.0,0.0,0.0,0.0,0.0,0.0,0.0,0.0,0.0,0.0,0.0,0.0,0.0,0.0,0.0,0.0,0.0,0.0,0.0,0.0,0.0,0.0,0.0,0.0,0.0,0.0,0.0,0.0,0.0,0.0,0.0,0.0,0.0,0.0,0.0,0.0,0.0,0.0,0.0,0.0,0.0,0.0,0.0,0.0,0.0,0.0,0.0,0.0,0.0,0.0,0.0,0.0,0.0,0.0,0.0,0.0,0.0,0.0,0.0,0.0,0.0,0.0,0.0,0.0,0.0,0.0,0.0,0.0,0.0,0.0,0.0,0.0,0.0,0.0,0.0,0.0,0.0,0.0,0.0,0.0,0.0,0.0,0.0,0.0,0.0,0.0,0.0,0.0,0.0,0.0,0.0,0.0,0.0,0.0,0.0,0.0,0.0,0.0,0.0,0.0,0.0,0.0,0.0,0.0,0.0,0.0,0.0,0.0,0.0,0.0,0.0,0.0,0.0,0.0,0.0,0.0,0.0,0.0,0.0,0.0,0.0,0.0,0.0,0.0,0.0,0.0,0.0,0.0,0.0,0.0,0.0,0.0,0.0,0.0,0.0,0.0,0.0,0.0,0.0,0.0,0.0,0.0,0.0,0.0,0.0,0.0,0.0,0.0,0.0,0.0,0.0,0.0,0.0,0.0,0.0,0.0,0.0,0.0,0.0,0.0,0.0,0.0,0.0,0.0,0.0,0.0,0.0,0.0,0.0,0.0,0.0,0.0,0.0,0.0,0.0,0.0,0.0,0.0,0.0,0.0,0.0,0.0,0.0,0.0,0.0,0.0,0.0,0.0,0.0,0.0,0.0,0.0,0.0,0.0,0.0,0.0,0.0,0.0,0.0,0.0,0.0,0.0,0.0,0.0,0.0,0.0,0.0,0.0,0.0,0.0,0.0,0.0,0.0,0.0,0.0,0.0,0.0,0.0,0.0,0.0,0.0,0.0,0.0,0.0,0.0,0.0,0.0,0.0,0.0,0.0,0.0,0.0,0.0,0.0,0.0,0.0,0.0,0.0,0.0,0.0,0.0,0.0,0.0,0.0,0.0,0.0,0.0,0.0,0.0,0.0,0.0,0.0,0.0,0.0,0.0,0.0,0.0,0.0,0.0,0.0,0.0,0.0,0.0,0.0,0.0,0.0,0.0,0.0,0.0,0.0,0.0,0.0,0.0,0.0,0.0,0.0,0.0,0.0,0.0,0.0,0.0,0.0,0.0,0.0,0.0,0.0,0.0,0.0,0.0,0.0,0.0,0.0,0.0,0.0,0.0,0.0,0.0,0.0,0.0,0.0,0.0,0.0,0.0,0.0,0.0,0.0,0.0,0.0,0.0,0.0,0.0,0.0,0.0,0.0,0.0,0.0,0.0,0.0,0.0,0.0,0.0,0.0,0.0,0.0,0.0,0.0,0.0,0.0,0.0,0.0,0.0,0.0,0.0,0.0,0.0,0.0,0.0,0.0,0.0,0.0,0.0,0.0,0.0,0.0,0.0,0.0,0.0,0.0,0.0,0.0,0.0,0.0,0.0,0.0,0.0,0.0,0.0,0.0,0.0,0.0,0.0,0.0,0.0,0.0,0.0,0.0,0.0,0.0,0.0,0.0,0.0,0.0,0.0,0.0,0.0,0.0,0.0,0.0,0.0,0.0,0.0,0.0,0.0,0.0,0.0,0.0,0.0,0.0,0.0,0.0,0.0,0.0,0.0,0.0,0.0,0.0,0.0,0.0,0.0,0.0,0.0,0.0,0.0,0.0,0.0,0.0,0.0,0.0,0.0,0.0,0.0,0.0,0.0,0.0,0.0,0.0,0.0,0.0,0.0,0.0,0.0,0.0,0.0,0.0,0.0,0.0,0.0,0.0,0.0,0.0,0.0,0.0,0.0,0.0,0.0,0.0,0.0,0.0,0.0,0.0,0.0,0.0,0.0,0.0,0.0,0.0,0.0,0.0,0.0,0.0,0.0,0.0,0.0,0.0,0.0,0.0,0.0,0.0,0.0,0.0,0.0,0.0,0.0,0.0,0.0,0.0,0.0,0.0,0.0,0.0,0.0,0.0,0.0,0.0,0.0,0.0,0.0,0.0,0.0,0.0,0.0,0.0,0.0,0.0,0.0,0.0,0.0,0.0,0.0,0.0,0.0,0.0,0.0,0.0,0.0,0.0,0.0,0.0,0.0,0.0,0.0,0.0,0.0,0.0,0.0,0.0,0.0,0.0,0.0,0.0,0.0,0.0,0.0,0.0,0.0,0.0,0.0,0.0,0.0,0.0,0.0,0.0,0.0,0.0,0.0,0.0,0.0,0.0,0.0,0.0,0.0,0.0,0.0,0.0,0.0,0.0,0.0,0.0,0.0,0.0,0.0,0.0,0.0,0.0,0.0,0.0,0.0,0.0,0.0,0.0,0.0,0.0,0.0,0.0,0.0,0.0,0.0,0.0,0.0,0.0,0.0,0.0,0.0,0.0,0.0,0.0,0.0,0.0,0.0,0.0,0.0,0.0,0.0,0.0,0.0,0.0,0.0,0.0,0.0,0.0,0.0,0.0,0.0,0.0,0.0,0.0,0.0,0.0,0.0,0.0,0.0,0.0,0.0,0.0,0.0,0.0,0.0,0.0,0.0,0.0,0.0,0.0,0.0,0.0,0.0,0.0,0.0,0.0,0.0,0.0,0.0,0.0,0.0,0.0,0.0,0.0,0.0,0.0,0.0,0.0,0.0,0.0,0.0,0.0,0.0,0.0,0.0,0.0,0.0,0.0,0.0,0.0,0.0,0.0,0.0,0.0,0.0,0.0,0.0,0.0,0.0,0.0,0.0,0.0,0.0,0.0,0.0,0.0,0.0,0.0,0.0,0.0,0.0,0.0,0.0,0.0,0.0,0.0,0.0,0.0,0.0,0.0,0.0,0.0,0.0,0.0,0.0,0.0,0.0,0.0,0.0,0.0,0.0,0.0,0.0,0.0,0.0,0.0,0.0,0.0,0.0,0.0,0.0,0.0,0.0,0.0,0.0,0.0,0.0,0.0,0.0,0.0,0.0,0.0,0.0,0.0,0.0,0.0,0.0,0.0,0.0,0.0,0.0,0.0,0.0,0.0,0.0,0.0,0.0,0.0,0.0,0.0,0.0,0.0,0.0,0.0,0.0,0.0,0.0,0.0,0.0,0.0,0.0,0.0,0.0,0.0,0.0,0.0,0.0,0.0,0.0,0.0,0.0,0.0,0.0,0.0,0.0,0.0,0.0,0.0,0.0,0.0,0.0,0.0,0.0,0.0,0.0,0.0,0.0,0.0,0.0,0.0,0.0,0.0,0.0,0.0,0.0,0.0,0.0,0.0,0.0,0.0,0.0,0.0,0.0,0.0,0.0,0.0,0.0,0.0,0.0,0.0,0.0,0.0,0.0,0.0,0.0,0.0,0.0,0.0,0.0,0.0,0.0,0.0,0.0,0.0,0.0,0.0,0.0,0.0,0.0,0.0,0.0,0.0,0.0,0.0,0.0,0.0,0.0,0.0,0.0,0.0,0.0,0.0,0.0,0.0,0.0,0.0,0.0,0.0,0.0,0.0,0.0,0.0,0.0,0.0,0.0,0.0,0.0,0.0,0.0,0.0,0.0,0.0,0.0,0.0,0.0,0.0,0.0,0.0,0.0,0.0,0.0,0.0,0.0,0.0,0.0,0.0,0.0,0.0,0.0,0.0,0.0,0.0,0.0,0.0,0.0,0.0,0.0,0.0,0.0,0.0,0.0,0.0,0.0,0.0,0.0,0.0,0.0,0.0,0.0,0.0,0.0,0.0,0.0,0.0,0.0,0.0,0.0,0.0,0.0,0.0,0.0,0.0,0.0,0.0,0.0,0.0,0.0,0.0,0.0,0.0,0.0,0.0,0.0,0.0,0.0,0.0,0.0,0.0,0.0,0.0,0.0,0.0,0.0,0.0,0.0,0.0,0.0,0.0,0.0,0.0,0.0,0.0,0.0,0.0,0.0,0.0,0.0,0.0,0.0,0.0,0.0,0.0,0.0,0.0,0.0,0.0,0.0,0.0,0.0,0.0,0.0,0.0,0.0,0.0,0.0,0.0,0.0,0.0,0.0,0.0,0.0,0.0,0.0,0.0,0.0,0.0,0.0,0.0,0.0,0.0,0.0,0.0,0.0,0.0,0.0,0.0,0.0,0.0,0.0,0.0,0.0,0.0,0.0,0.0,0.0,0.0,0.0,0.0,0.0,0.0,0.0,0.0,0.0,0.0,0.0,0.0,0.0,0.0,0.0,0.0,0.0,0.0,0.0,0.0,0.0,0.0,0.0,0.0,0.0,0.0,0.0,0.0,0.0,0.0,0.0,0.0,0.0,0.0,0.0,0.0,0.0,0.0,0.0,0.0,0.0,0.0,0.0,0.0,0.0,0.0,0.0,0.0,0.0,0.0,0.0,0.0,0.0,0.0,0.0,0.0,0.0,0.0,0.0,0.0,0.0,0.0,0.0,0.0,0.0,0.0,0.0,0.0,0.0,0.0,0.0,0.0,0.0,0.0,0.0,0.0,0.0,0.0,0.0,0.0,0.0,0.0,0.0,0.0,0.0,0.0,0.0,0.0,0.0,0.0,0.0,0.0,0.0,0.0,0.0,0.0,0.0,0.0,0.0,0.0,0.0,0.0,0.0,0.0,0.0,0.0,0.0,0.0,0.0,0.0,0.0,0.0,0.0,0.0,0.0,0.0,0.0,0.0,0.0,0.0,0.0,0.0,0.0,0.0,0.0,0.0,0.0,0.0,0.0,0.0,0.0,0.0,0.0,0.0,0.0,0.0,0.0,0.0,0.0,0.0,0.0,0.0,0.0,0.0,0.0,0.0,0.0,0.0,0.0,0.0,0.0,0.0,0.0,0.0,0.0,0.0,0.0,0.0,0.0,0.0,0.0,0.0,0.0,0.0,0.0,0.0,0.0,0.0,0.0,0.0,0.0,0.0,0.0,0.0,0.0,0.0,0.0,0.0,0.0,0.0,0.0,0.0,0.0,0.0,0.0,0.0,0.0,0.0,0.0,0.0,0.0,0.0,0.0,0.0,0.0,0.0,0.0,0.0,0.0,0.0,0.0,0.0,0.0,0.0,0.0,0.0,0.0,0.0,0.0,0.0,0.0,0.0,0.0,0.0,0.0,0.0,-2.059,-2.0272,0.0,0.0,0.0,0.0,0.0,0.0,0.0,0.0,0.0,0.0,0.0,0.0,0.0,0.0,0.0,0.0,0.0,0.0,0.0,0.0,0.0,0.0,0.0,0.0,0.0,0.0,-1.2348,-1.244,-1.24,-1.2376,-1.2231,-1.1826,-1.1805,-1.1805,-1.1805,-1.1805,-1.1933,-1.2186,-1.2186,-1.2475,-1.3006,0.0,0.0,0.0,0.0,0.0,0.0,0.0,0.0,0.0,0.0,0.0,0.0,0.0,0.0,0.0,0.0,0.0,0.0,0.0,0.0,0.0,0.0,0.0,0.0,0.0,0.0,0.0,0.0,0.0,0.0,0.0,0.0,0.0,0.0,0.0,0.0,0.0,0.0,0.0,0.0,0.0,0.0,0.0,0.0,0.0,0.0,0.0,0.0,0.0,0.0,0.0,0.0,0.0,0.0,0.0,0.0,0.0,0.0,0.0,0.0,0.0,0.0,0.0,0.0,0.0,0.0,0.0,0.0,0.0,0.0,0.0,0.0,0.0,-2.1214,-2.1196,0.0,0.0,0.0,0.0,0.0,0.0,0.0,0.0,0.0,0.0,0.0,0.0,0.0,0.0,0.0,0.0,0.0,0.0,0.0,0.0,0.0,0.0,0.0,0.0,-1.2422,-1.311,-1.2823,-1.2655,-1.2696,-1.2613,-1.2296,-1.1747,-1.1703,-1.1681,-1.1637,-1.1637,-1.1757,-1.1984,-1.2169,-1.272,0.0,0.0,0.0,0.0,0.0,0.0,0.0,0.0,0.0,0.0,0.0,0.0,0.0,0.0,0.0,0.0,0.0,0.0,0.0,0.0,0.0,0.0,0.0,0.0,0.0,0.0,0.0,0.0,0.0,0.0,0.0,0.0,0.0,0.0,0.0,0.0,0.0,0.0,0.0,0.0,0.0,0.0,0.0,0.0,0.0,0.0,0.0,0.0,0.0,0.0,0.0,0.0,0.0,0.0,0.0,0.0,0.0,0.0,0.0,0.0,0.0,0.0,0.0,0.0,0.0,0.0,0.0,0.0,-2.077,-2.0995,-2.0947,-2.1004,-2.1055,-2.1172,-2.2062,-2.2287,-2.1922,-2.0326,0.0,0.0,0.0,0.0,0.0,0.0,0.0,0.0,0.0,0.0,0.0,0.0,0.0,0.0,0.0,0.0,0.0,0.0,0.0,0.0,0.0,-1.3261,-1.3376,-1.3828,-1.3856,-1.3648,-1.3143,-1.2593,-1.1988,-1.1386,-1.1378,-1.1265,-1.1015,-1.1015,-1.1061,-1.1149,-1.2092,-1.3099,-1.4119,0.0,0.0,0.0,0.0,0.0,0.0,0.0,0.0,0.0,0.0,0.0,0.0,0.0,0.0,0.0,0.0,0.0,0.0,0.0,0.0,0.0,0.0,0.0,0.0,0.0,0.0,0.0,0.0,0.0,0.0,0.0,0.0,0.0,0.0,0.0,0.0,0.0,0.0,0.0,0.0,0.0,0.0,0.0,0.0,0.0,0.0,0.0,-2.0469,-2.1209,0.0,0.0,0.0,0.0,0.0,0.0,0.0,0.0,0.0,0.0,0.0,0.0,0.0,-1.9097,-1.9725,-1.9892,-1.9984,-1.9984,-2.0673,-2.1163,-2.152,-2.1781,-2.2106,-2.2459,-2.2904,0.0,-2.0147,-1.8871,0.0,0.0,0.0,0.0,0.0,0.0,0.0,0.0,0.0,0.0,0.0,0.0,0.0,0.0,0.0,0.0,0.0,0.0,0.0,0.0,0.0,-1.4697,-1.5208,-1.5399,-1.647,-1.6174,-1.3907,-1.4023,-1.3307,-1.1376,-1.0945,-1.0685,-1.0567,-1.0611,-1.0931,-1.1604,-1.277,-1.37,0.0,0.0,0.0,0.0,0.0,0.0,0.0,0.0,0.0,0.0,0.0,0.0,0.0,0.0,0.0,0.0,0.0,0.0,0.0,0.0,0.0,0.0,0.0,0.0,0.0,0.0,0.0,0.0,0.0,0.0,0.0,0.0,0.0,0.0,0.0,0.0,0.0,0.0,0.0,0.0,0.0,0.0,0.0,0.0,0.0,0.0,0.0,-2.027,-2.0264,-1.9038,-1.9356,-1.9061,0.0,0.0,0.0,0.0,0.0,0.0,0.0,0.0,0.0,-1.998,-1.944,-1.9458,-2.0262,-2.0182,-2.0111,-2.0111,-2.0719,-2.1086,-2.1275,-2.1428,-2.1592,-2.1736,-2.1712,-2.0892,-1.9579,-1.9237,-1.8377,-1.715,0.0,0.0,0.0,0.0,-1.618,-1.6162,0.0,0.0,0.0,0.0,0.0,0.0,0.0,0.0,0.0,0.0,0.0,0.0,-1.5201,-1.6386,-1.7157,-1.7418,-1.8517,-1.8007,-1.5079,-1.4883,-1.3821,-1.1454,-1.059,-1.0095,-0.9932,-1.0035,-1.0806,-1.2233,-1.3172,0.0,0.0,0.0,0.0,0.0,0.0,0.0,0.0,0.0,0.0,0.0,0.0,0.0,0.0,0.0,0.0,0.0,0.0,0.0,0.0,0.0,0.0,0.0,0.0,0.0,0.0,0.0,0.0,0.0,0.0,0.0,0.0,0.0,0.0,0.0,0.0,0.0,0.0,0.0,0.0,0.0,0.0,0.0,0.0,0.0,0.0,0.0,0.0,-2.0208,-1.9974,-1.7491,-1.8731,-1.8739,0.0,0.0,0.0,0.0,0.0,0.0,-1.7922,-1.8285,-1.9034,-2.0175,-1.9566,-1.9555,-2.0279,-1.9907,-1.9798,-1.9954,-2.0299,-2.0583,-2.0829,-2.0829,-2.0894,-2.0991,-2.0543,-1.9943,-1.929,-1.9395,-1.8606,-1.7291,-1.6465,-1.6503,-1.7003,-1.6634,-1.6355,-1.6201,0.0,0.0,0.0,0.0,0.0,0.0,0.0,0.0,0.0,0.0,0.0,-1.3937,-1.7105,-1.8064,-1.8889,-1.9919,-1.9049,-1.7949,-1.6829,-1.4172,-1.2314,-1.153,-1.0409,-0.9534,-0.8887,-0.9134,-1.04,-1.2676,0.0,0.0,0.0,0.0,0.0,0.0,0.0,0.0,0.0,0.0,0.0,0.0,0.0,0.0,0.0,0.0,0.0,0.0,0.0,0.0,0.0,0.0,0.0,0.0,0.0,0.0,0.0,0.0,0.0,0.0,0.0,0.0,0.0,0.0,0.0,0.0,0.0,0.0,0.0,0.0,0.0,0.0,0.0,0.0,0.0,0.0,0.0,0.0,0.0,0.0,0.0,-1.8171,-1.8358,0.0,0.0,0.0,0.0,-1.509,-1.5471,-1.6312,-1.7661,-1.7757,-1.8419,-1.9875,-1.9266,-1.9003,-1.9169,-1.8516,-1.8444,-1.8954,-1.8991,-1.9456,-2.0348,-2.0348,-2.0583,-2.0959,-2.0316,-1.961,-1.8881,-1.8386,-1.7731,-1.7047,-1.724,-1.7329,-1.7365,-1.7347,-1.6902,-1.6173,0.0,0.0,0.0,0.0,0.0,0.0,0.0,0.0,-0.9879,-0.9949,-1.1965,-1.4212,-1.6416,-1.8596,-2.0053,-2.0442,-2.0883,-1.9978,-1.7144,-1.5329,-1.3747,-1.2415,-1.0163,-0.8928,-0.888,-0.9041,-0.9795,-1.1107,0.0,0.0,0.0,0.0,0.0,0.0,0.0,0.0,0.0,0.0,0.0,0.0,0.0,0.0,0.0,0.0,0.0,0.0,0.0,0.0,0.0,0.0,0.0,0.0,0.0,0.0,0.0,0.0,0.0,0.0,0.0,0.0,0.0,0.0,0.0,0.0,0.0,0.0,0.0,0.0,0.0,0.0,0.0,0.0,0.0,0.0,0.0,0.0,0.0,0.0,0.0,-1.7753,-1.866,0.0,-1.6522,-1.686,-1.6764,-1.562,-1.6325,-1.6926,-1.7126,-1.7431,-1.8073,-1.9032,-1.8546,-1.8479,-1.8883,-1.8358,-1.8224,-1.838,-1.838,-1.8559,-1.8873,-1.8873,-1.8804,-1.8582,-1.8142,-1.7599,-1.7015,-1.6913,-1.6873,-1.6851,-1.6608,-1.6948,-1.7549,-1.7205,-1.6639,-1.6011,0.0,0.0,0.0,0.0,0.0,0.0,0.0,0.0,-0.9316,-0.9804,-1.1839,-1.4105,-1.6363,-1.8986,-2.0515,-2.0483,-2.1301,-2.0368,-1.7057,-1.5143,-1.3469,-1.2044,-0.96,-0.8408,-0.8758,-0.8871,0.0,0.0,0.0,0.0,0.0,0.0,0.0,0.0,0.0,0.0,0.0,0.0,0.0,0.0,0.0,0.0,-1.434,0.0,0.0,0.0,0.0,0.0,0.0,0.0,0.0,0.0,0.0,0.0,0.0,0.0,0.0,0.0,0.0,0.0,0.0,0.0,0.0,0.0,0.0,0.0,0.0,0.0,0.0,0.0,0.0,0.0,0.0,0.0,0.0,0.0,0.0,-1.824,-1.8418,-1.7496,-1.8594,-1.8634,-1.6612,-1.7166,-1.7143,-1.6007,-1.6729,-1.7145,-1.6939,-1.7267,-1.7656,-1.8002,-1.776,-1.7636,-1.7622,-1.7368,-1.7341,-1.7518,-1.7328,-1.7396,-1.7786,-1.7599,-1.7222,-1.6707,-1.6426,-1.6027,-1.5562,-1.561,-1.5777,-1.6041,-1.6214,-1.66,-1.7009,-1.6656,-1.5993,-1.5257,0.0,0.0,0.0,0.0,0.0,0.0,0.0,-0.8723,-0.9408,-1.1284,-1.1919,-1.3563,-1.7149,-1.9264,-2.0373,-2.0167,-1.9976,-1.892,-1.6568,-1.3382,-1.1192,-1.0331,-0.8695,-0.8002,-0.8435,0.0,0.0,0.0,0.0,0.0,0.0,0.0,0.0,0.0,0.0,0.0,0.0,0.0,0.0,0.0,0.0,0.0,-1.4138,0.0,0.0,0.0,0.0,0.0,0.0,0.0,0.0,0.0,0.0,0.0,0.0,0.0,0.0,0.0,0.0,0.0,0.0,0.0,0.0,0.0,0.0,0.0,0.0,0.0,0.0,0.0,0.0,0.0,0.0,0.0,0.0,0.0,-1.6593,-1.8072,-1.8598,-1.749,-1.8041,-1.804,-1.6607,-1.6637,-1.6592,-1.6194,-1.6494,-1.6845,-1.7155,-1.7172,-1.702,-1.6738,-1.6931,-1.6471,-1.5304,-1.5486,-1.584,-1.6336,-1.5736,-1.6059,-1.7083,-1.6532,-1.5982,-1.5524,-1.5414,-1.5063,-1.4584,-1.4468,-1.4424,-1.4568,-1.6099,-1.631,-1.5735,-1.5719,-1.5016,-1.3933,0.0,0.0,0.0,0.0,0.0,0.0,0.0,-0.7263,-0.8068,-0.9468,-1.1335,-1.3571,-1.6158,-1.8014,-1.9022,-1.8995,-1.7985,-1.6648,-1.4866,-1.2246,-0.9882,-0.8018,-0.757,0.0,-0.7125,0.0,0.0,0.0,0.0,0.0,0.0,0.0,0.0,0.0,0.0,0.0,0.0,0.0,0.0,0.0,0.0,0.0,-1.4702,0.0,0.0,0.0,0.0,0.0,0.0,0.0,0.0,0.0,0.0,0.0,0.0,0.0,0.0,0.0,0.0,0.0,0.0,0.0,0.0,0.0,0.0,0.0,0.0,0.0,0.0,0.0,0.0,0.0,0.0,0.0,-1.3827,-1.4267,-1.5826,-1.6816,-1.7492,-1.7789,-1.7985,-1.8009,-1.7585,-1.7576,-1.748,-1.7051,-1.6846,-1.6596,-1.6387,-1.6049,-1.5876,-1.5796,-1.568,-1.5461,-1.5139,-1.5029,-1.5005,-1.5186,-1.4994,-1.5073,-1.5374,-1.5241,-1.4653,-1.386,-1.3801,-1.3368,-1.2639,-1.2859,-1.297,-1.3091,-1.4146,-1.458,-1.4573,-1.4212,-1.3552,-1.2735,0.0,0.0,0.0,0.0,0.0,0.0,0.0,-0.6257,-0.7042,-0.8622,-1.034,-1.2227,-1.4334,-1.593,-1.6618,-1.6155,-1.5517,-1.4242,-1.2047,-0.984,-0.8027,0.0,0.0,0.0,0.0,0.0,0.0,0.0,0.0,0.0,0.0,0.0,0.0,0.0,0.0,0.0,0.0,0.0,0.0,0.0,0.0,0.0,-1.4901,-1.4966,-1.5815,-1.6993,-1.707,-1.7931,-1.8865,-1.8284,0.0,0.0,0.0,0.0,0.0,0.0,0.0,0.0,0.0,0.0,0.0,0.0,0.0,0.0,0.0,0.0,0.0,0.0,0.0,0.0,0.0,0.0,0.0,0.0,-1.3355,-1.4073,-1.5247,-1.581,-1.6383,-1.6915,-1.6969,-1.7116,-1.7373,-1.7079,-1.6917,-1.7024,-1.6446,-1.5853,-1.5268,-1.5013,-1.4777,-1.4638,-1.4324,-1.4215,-1.444,-1.4077,-1.4029,-1.4329,-1.4061,-1.4061,-1.4329,-1.4061,-1.3422,-1.2563,-1.272,-1.2312,-1.1505,-1.1959,-1.2164,0.0,0.0,0.0,0.0,0.0,-1.1749,-1.1225,0.0,0.0,0.0,0.0,0.0,0.0,0.0,-0.548,-0.6168,-0.8182,-0.9028,-1.0213,-1.22,-1.345,-1.3678,-1.2712,-1.2811,-1.1701,-0.8697,0.0,0.0,0.0,0.0,0.0,0.0,0.0,0.0,0.0,0.0,0.0,0.0,0.0,0.0,0.0,0.0,0.0,0.0,0.0,0.0,0.0,0.0,0.0,-1.4764,-1.48,-1.5939,-1.7586,-1.7723,-1.8412,-1.922,-1.9193,0.0,0.0,0.0,0.0,0.0,0.0,0.0,0.0,0.0,0.0,0.0,0.0,0.0,0.0,0.0,0.0,0.0,0.0,0.0,0.0,0.0,0.0,0.0,0.0,-1.3293,-1.4307,-1.465,-1.4972,-1.5303,-1.5667,-1.5634,-1.5816,-1.6447,-1.5675,-1.5517,-1.6349,-1.5615,-1.4808,-1.4123,-1.4049,0.0,0.0,0.0,-1.2886,-1.3292,-1.2811,-1.287,-1.3474,-1.2939,-1.2939,-1.3426,-1.289,-1.2271,-1.1577,-1.1943,-1.1686,-1.1016,-1.1378,-1.1476,-1.1394,-1.1874,-1.1702,-1.1011,-1.0251,-0.9856,-0.9667,0.0,0.0,0.0,0.0,0.0,0.0,0.0,-0.4259,-0.5151,-0.6557,-0.7472,-0.8842,-1.1082,-1.1535,-1.1607,-1.1382,-1.08,-0.917,0.0,0.0,0.0,0.0,0.0,0.0,0.0,0.0,0.0,0.0,0.0,0.0,0.0,0.0,0.0,0.0,0.0,0.0,0.0,0.0,0.0,0.0,0.0,0.0,-1.4105,-1.4087,-1.4908,-1.6007,-1.6049,-1.755,-1.9408,-1.8498,-1.9367,-2.0616,-1.9287,0.0,0.0,0.0,0.0,0.0,0.0,0.0,0.0,0.0,0.0,0.0,0.0,0.0,0.0,0.0,0.0,0.0,0.0,0.0,0.0,-1.2723,-1.3131,-1.3471,-1.381,-1.3897,-1.4554,-1.6256,-1.579,-1.5425,-1.5786,-1.54,-1.5305,-1.5446,-1.496,-1.4468,-1.4107,-1.3745,-1.3289,-1.2789,-1.2318,-1.1986,-1.1895,-1.1404,-1.1258,-1.1358,0.0,0.0,-1.1358,-1.1266,-1.1221,-1.1241,-1.1012,-1.0942,-1.0874,-1.0194,-0.9347,-0.8531,-0.9739,-0.9836,-0.9237,-0.875,-0.8749,-0.8989,0.0,0.0,0.0,0.0,0.0,0.0,0.0,-0.2916,-0.3546,-0.4749,-0.5612,-0.6665,-0.8106,-0.8433,-0.8424,-0.8101,-0.6818,0.0,0.0,0.0,0.0,0.0,0.0,0.0,0.0,0.0,0.0,0.0,0.0,0.0,0.0,0.0,0.0,0.0,0.0,0.0,0.0,0.0,0.0,0.0,0.0,0.0,-1.1733,-1.3229,-1.4503,-1.5393,-1.5393,-1.6534,-1.7986,-1.7838,-1.8765,-1.9779,-1.8624,-1.8467,-1.8349,0.0,0.0,0.0,0.0,0.0,0.0,0.0,0.0,0.0,0.0,0.0,0.0,0.0,0.0,-1.0954,0.0,0.0,-1.1912,-1.2905,-1.3274,-1.3527,-1.3828,-1.3734,-1.398,-1.4835,-1.4388,-1.4197,-1.4637,-1.4118,-1.3947,-1.4386,-1.3795,-1.3204,-1.2781,-1.2535,-1.219,-1.1658,-1.1104,-1.0934,-1.1146,-1.0605,-1.0466,-1.0813,-1.0813,-1.0813,-1.0813,-1.0813,-1.0772,-1.0707,-1.0471,-1.0249,-0.9944,-0.9357,-0.8587,-0.7842,-0.8219,-0.8079,-0.7618,-0.7414,-0.7472,-0.7617,0.0,0.0,0.0,0.0,0.0,0.0,0.0,-0.1742,-0.2018,-0.3047,-0.3683,-0.4304,-0.5001,-0.542,-0.539,-0.4808,0.0,0.0,0.0,0.0,0.0,0.0,0.0,0.0,0.0,0.0,0.0,0.0,0.0,0.0,0.0,0.0,0.0,0.0,0.0,0.0,0.0,0.0,0.0,0.0,0.0,0.0,-0.9291,-1.1825,-1.3591,-1.4633,-1.4569,-1.5217,-1.6222,-1.6958,-1.7784,-1.8325,-1.7713,-1.8001,-1.8025,-1.489,-1.4779,0.0,0.0,0.0,0.0,0.0,0.0,0.0,0.0,0.0,-0.9836,-0.9669,-0.9237,-0.913,-0.9878,-1.0466,-1.1331,-1.2715,-1.3404,-1.3814,-1.4055,-1.3834,-1.3534,-1.3247,-1.2933,-1.3024,-1.3506,-1.2767,-1.2592,-1.3382,-1.2684,-1.1984,-1.1456,-1.1165,-1.0815,-1.0315,-0.9601,-0.9471,-0.999,-0.9429,-0.9429,-0.9982,-1.0143,-1.0195,-1.0195,-1.0364,-1.0314,-1.0148,-1.0173,-0.9733,-0.8928,-0.8598,-0.8078,-0.7479,-0.6832,-0.6367,-0.6075,-0.6291,-0.6427,-0.6447,0.0,0.0,0.0,0.0,0.0,0.0,0.0,0.0,0.0,-0.1908,-0.2052,-0.2484,-0.343,-0.3605,-0.3598,0.0,0.0,0.0,0.0,0.0,0.0,0.0,0.0,0.0,0.0,0.0,0.0,0.0,0.0,0.0,0.0,0.0,0.0,0.0,0.0,0.0,0.0,0.0,0.0,0.0,0.0,0.0,-0.8067,-0.9216,-1.0858,-1.2483,-1.2294,-1.3384,-1.5121,-1.553,-1.5925,-1.6315,-1.6385,-1.6102,-1.5623,-1.428,0.0,-1.2406,-1.1577,-1.0721,-0.9978,-0.9758,-0.9203,-0.8692,0.0,0.0,-0.8692,-0.8941,-0.9165,-0.9306,-0.9542,-1.0746,-1.1828,-1.221,-1.3231,-1.4048,-1.4082,-1.3834,-1.3534,-1.3247,-1.2933,-1.2808,-1.2927,-1.2533,-1.2372,-1.2445,-1.2136,-1.177,-1.1443,-1.0429,-0.9584,-0.8869,-0.8005,-0.7422,-0.7069,-0.7009,-0.7009,-0.7063,-0.7706,-0.8031,-0.8084,-0.8738,-0.9347,-0.9841,-1.0082,-0.9509,-0.8349,-0.7799,-0.6934,-0.5899,-0.5351,-0.485,-0.458,-0.5599,-0.6183,-0.648,0.0,0.0,0.0,0.0,0.0,0.0,0.0,0.0,0.0,0.0,-0.1006,-0.1305,-0.1732,-0.1787,-0.167,0.0,0.0,0.0,0.0,0.0,0.0,0.0,0.0,0.0,0.0,0.0,0.0,0.0,0.0,0.0,0.0,0.0,0.0,0.0,0.0,0.0,0.0,0.0,0.0,0.0,0.0,0.0,-0.5934,-0.6148,-0.7433,-0.9182,-0.9714,-1.0759,0.0,0.0,-1.3682,-1.4345,-1.4545,-1.4903,-1.478,-1.2613,-1.216,0.0,-1.0229,-0.924,-0.867,0.0,-0.8387,-0.8482,-0.8505,-0.8101,-0.8045,-0.9135,-0.9128,-0.9417,-1.0867,-1.1668,-1.2379,0.0,-1.3737,-1.4088,-1.4088,-1.3834,-1.3467,-1.2999,-1.2672,-1.2485,-1.2485,-1.2378,-1.2231,-1.2064,-1.1501,-1.0955,-1.0448,-0.9495,-0.8635,-0.7849,-0.7472,-0.7082,-0.6593,-0.6588,-0.6588,-0.6588,-0.6912,-0.7074,-0.7074,-0.7396,-0.7658,-0.7947,-0.7866,-0.7567,-0.7056,-0.6522,-0.6018,-0.556,-0.508,-0.4704,-0.4469,-0.4791,-0.4969,-0.5055,0.0,0.0,0.0,0.0,0.0,0.0,0.0,0.0,0.0,0.0,-0.0175,-0.0276,-0.0228,-0.0197,0.0,0.0,0.0,0.0,0.0,0.0,0.0,0.0,0.0,0.0,0.0,0.0,0.0,0.0,0.0,0.0,0.0,0.0,0.0,0.0,0.0,0.0,0.0,0.0,0.0,0.0,0.0,0.0,-0.4082,-0.4067,-0.4925,-0.6274,-0.7527,-0.8429,0.0,0.0,-1.1353,-1.2102,-1.2652,-1.3302,-1.3315,-1.0962,-1.0696,-1.0657,-0.8735,0.0,0.0,-0.7265,-0.7663,-0.8045,-0.8012,-0.7873,-0.8078,-0.9247,-0.9298,-0.9677,-1.1423,-1.2014,-1.2505,-1.3372,-1.3828,-1.4055,-1.3975,-1.3714,-1.33,-1.2699,-1.2365,-1.2078,-1.1702,-1.1695,-1.1644,-1.152,-1.0568,-0.9829,-0.9394,-0.843,-0.7658,-0.7012,-0.6754,-0.6446,-0.6046,-0.6046,-0.6046,-0.6046,-0.6204,-0.6312,-0.6312,-0.6534,-0.6588,-0.6578,-0.6408,-0.6246,-0.6161,-0.5596,-0.5325,-0.524,-0.4753,-0.4414,-0.4163,-0.3834,-0.3846,-0.3993,0.0,0.0,0.0,0.0,0.0,0.0,0.0,0.0,0.0,0.0,0.0,0.0,0.0,0.0,0.0,0.0,0.0,0.0,0.0,0.0,0.0,0.0,0.0,0.0,0.0,0.0,0.0,0.0,0.0,0.0,0.0,0.0,0.0,0.0,0.0,0.0,0.0,0.0,0.0,0.0,0.0,0.0,-0.3173,-0.3657,-0.3921,-0.4298,-0.5891,0.0,0.0,0.0,-0.9082,-0.937,-1.0633,-1.0799,0.0,-0.974,-0.8431,-0.7229,-0.719,0.0,-0.6363,-0.6997,-0.6839,-0.6616,-0.6919,-0.7955,-0.886,-0.8956,-0.9582,-1.0184,-1.0408,-1.1286,-1.1957,-1.2128,-1.3215,-1.3988,-1.3701,-1.3407,-1.2999,-1.2392,-1.2058,-1.1481,0.0,-1.0194,-1.0295,-1.0623,-0.9322,-0.8435,-0.8425,-0.7357,-0.6617,-0.6233,-0.5393,-0.4828,-0.4574,-0.457,-0.457,-0.457,-0.5218,-0.5538,-0.5542,-0.6258,-0.6588,-0.6588,-0.6578,-0.6448,-0.612,-0.5408,-0.4979,-0.4655,-0.3943,-0.343,-0.3082,-0.2689,-0.3176,-0.3993,0.0,0.0,0.0,0.0,0.0,0.0,0.0,0.0,0.0,0.0,0.0,0.0,0.0,0.0,0.0,0.0,0.0,0.0,0.0,0.0,0.0,0.0,0.0,0.0,0.0,0.0,0.0,0.0,0.0,0.0,0.0,0.0,0.0,0.0,0.0,0.0,0.0,0.0,0.0,0.0,0.0,0.0,-0.1938,-0.2541,-0.3097,-0.3688,0.0,0.0,0.0,0.0,0.0,0.0,-0.8272,-0.8319,-0.8012,-0.7133,-0.6102,-0.537,-0.5663,-0.5422,-0.53,-0.6444,-0.6711,-0.6827,-0.7024,-0.7979,-0.9026,-0.9662,-1.0264,-1.0931,-1.1564,-1.1802,-1.1935,-1.2215,-1.2824,-1.3068,-1.2432,-1.2055,-1.1443,-1.0307,-0.9879,0.0,0.0,0.0,0.0,-0.9215,-0.8171,-0.749,-0.7281,-0.6366,-0.5715,-0.5494,-0.5182,-0.4914,-0.4616,-0.4613,-0.4562,-0.4519,-0.4229,-0.4336,-0.4842,-0.4611,-0.4721,-0.5226,-0.5226,-0.5136,-0.5011,-0.4111,-0.3714,-0.3581,-0.2738,-0.2299,-0.2082,-0.194,-0.2022,-0.2205,0.0,0.0,0.0,0.0,0.0,0.0,0.0,0.0,0.0,0.0,0.0,0.0,0.0,0.0,0.0,0.0,0.0,0.0,0.0,0.0,0.0,0.0,0.0,0.0,0.0,0.0,0.0,0.0,0.0,0.0,0.0,0.0,0.0,0.0,0.0,0.0,0.0,0.0,0.0,0.0,0.0,0.0,-0.0917,-0.1754,-0.2421,0.0,0.0,0.0,0.0,0.0,0.0,0.0,-0.6855,-0.6565,-0.5936,-0.5031,-0.4228,-0.3713,-0.414,-0.4085,-0.4265,-0.5665,-0.6175,-0.6474,-0.6953,-0.8313,-0.9501,-0.9962,-1.0695,-1.1428,-1.1893,-1.175,-1.1617,-1.1804,-1.2084,-1.2074,-1.1354,-1.0942,-1.0307,-0.9124,-0.8684,-0.8209,0.0,0.0,0.0,-0.7962,-0.7082,-0.6459,-0.6276,-0.5686,-0.5157,-0.4683,-0.4617,-0.4362,-0.3809,-0.3807,-0.3746,-0.3677,-0.3178,-0.3231,-0.3677,-0.3178,-0.3231,-0.368,-0.368,-0.368,-0.3613,-0.296,-0.2702,-0.2654,-0.2023,-0.1718,-0.159,-0.1421,-0.1245,-0.111,0.0,0.0,0.0,0.0,0.0,0.0,0.0,0.0,0.0,0.0,0.0,0.0,0.0,0.0,0.0,0.0,0.0,0.0,0.0,0.0,0.0,0.0,0.0,0.0,0.0,0.0,0.0,0.0,0.0,0.0,0.0,0.0,0.0,0.0,0.0,0.0,0.0,0.0,0.0,0.0,0.0,0.0,-0.0166,-0.1343,0.0,0.0,0.0,0.0,0.0,0.0,0.0,-0.5445,-0.6159,-0.5391,-0.4126,-0.351,-0.2717,-0.2193,-0.2584,-0.2715,-0.3209,-0.4744,-0.5277,-0.5678,-0.6808,-0.8721,-1.003,-0.9705,-1.0813,-1.171,0.0,0.0,-1.0935,-1.0969,-1.1155,-1.1108,-1.0461,-1.0001,-0.9504,0.0,0.0,0.0,0.0,0.0,0.0,-0.6805,-0.5986,-0.5375,-0.5299,-0.5292,-0.4829,-0.3793,-0.3724,-0.325,-0.224,-0.223,-0.219,-0.2174,-0.2174,-0.2174,-0.2174,-0.2174,-0.2174,-0.2174,-0.2174,-0.2174,-0.2169,-0.1997,-0.1929,-0.196,-0.1789,-0.1635,-0.1479,-0.1008,-0.0775,-0.0702,0.0,0.0,0.0,0.0,0.0,0.0,0.0,0.0,0.0,0.0,0.0,0.0,0.0,0.0,0.0,0.0,0.0,0.0,0.0,0.0,0.0,0.0,0.0,0.0,0.0,0.0,0.0,0.0,0.0,0.0,0.0,0.0,0.0,0.0,0.0,0.0,0.0,0.0,0.0,0.0,0.0,0.0,-0.0776,0.0,0.0,0.0,0.0,0.0,0.0,0.0,0.0,-0.306,-0.3287,-0.304,-0.2622,-0.1884,-0.1518,-0.1479,-0.1921,-0.2035,-0.2565,-0.4782,-0.5393,-0.566,-0.6689,-0.8451,-0.9636,-0.9018,-0.995,-1.0799,0.0,0.0,0.0,-1.0601,-1.0476,0.0,-0.9675,-0.8861,0.0,-0.6845,0.0,-0.524,-0.4571,-0.3958,0.0,0.0,-0.3555,-0.3439,-0.3413,-0.3413,-0.3268,-0.2979,-0.2979,-0.2799,-0.2452,-0.228,-0.219,-0.2174,-0.1619,-0.1675,-0.2174,-0.1619,-0.1675,-0.2174,-0.2174,-0.2174,-0.2174,-0.1549,-0.1351,-0.1252,-0.0706,-0.0435,-0.0413,-0.0258,-0.0209,-0.0206,0.0,0.0,0.0,0.0,0.0,0.0,0.0,0.0,0.0,0.0,0.0,0.0,0.0,0.0,0.0,0.0,0.0,0.0,0.0,0.0,0.0,0.0,0.0,0.0,0.0,0.0,0.0,0.0,0.0,0.0,0.0,0.0,0.0,0.0,0.0,0.0,0.0,0.0,0.0,0.0,0.0,0.0,0.0,0.0,0.0,0.0,0.0,0.0,0.0,0.0,0.0,-0.2224,-0.2225,-0.1977,-0.166,-0.1204,0.0,-0.0704,-0.0932,-0.0981,-0.1564,-0.4051,-0.4603,-0.4985,-0.6814,-0.8235,-0.9094,-0.8795,-0.9509,-0.9973,-0.9163,-0.9258,-0.9362,0.0,0.0,0.0,-0.8293,-0.7703,-0.688,0.0,-0.4927,0.0,-0.3154,-0.265,-0.2094,-0.1566,-0.2286,-0.2779,-0.2679,-0.2678,-0.2542,-0.2075,-0.2075,-0.1841,-0.139,-0.1264,-0.1213,-0.1229,-0.0839,-0.0838,-0.1229,-0.0783,-0.0838,-0.1229,-0.1229,-0.1229,-0.1229,-0.0783,-0.0603,-0.0583,-0.0156,0.0,0.0,0.0,0.0,0.0043,0.0,0.0,0.0,0.0,0.0,0.0,0.0,0.0,0.0,0.0,0.0,0.0,0.0,0.0,0.0,0.0,0.0,0.0,0.0,0.0,0.0,0.0,0.0,0.0,0.0,0.0,0.0,0.0,0.0,0.0,0.0,0.0,0.0,0.0,0.0,0.0,0.0,0.0,0.0,0.0,0.0,0.0,0.0,0.0,0.0,0.0,0.0,0.0,0.0,0.0,0.0,-0.1884,-0.1591,-0.1155,-0.07,-0.0537,-0.0158,0.0244,0.0265,0.0,-0.0755,-0.3043,-0.3569,-0.4283,-0.6929,-0.7983,-0.8392,-0.8533,-0.9017,-0.9068,-0.8167,-0.8484,-0.8521,-0.7214,0.0,-0.7963,-0.6962,-0.6659,-0.6127,-0.487,-0.4424,-0.3567,-0.1782,-0.1489,-0.1014,-0.0073,-0.1553,-0.2475,-0.2347,-0.2344,-0.1944,-0.114,-0.1136,-0.0781,0.0,0.0,0.0,0.0,0.0,0.0,0.0,0.0,0.0,0.0,0.0,0.0,0.0,0.0112,0.0165,0.0161,0.0266,0.0308,0.029,0.0289,0.0282,0.0365,0.0,0.0,0.0,0.0,0.0,0.0,0.0,0.0,0.0,0.0,0.241,0.2728,0.0,0.0,0.0,0.0,0.0,0.0,0.0,0.0,0.0,0.0,0.0,0.0,0.0,0.0,0.0,0.0,0.0,0.0,0.0,0.0,0.0,0.0,0.0,0.0,0.0,0.0,0.0,0.0,0.0,0.0,0.0,0.0,0.0,0.0,0.0,0.0,0.0,0.0,0.0573,-0.0067,0.1647,0.1741,0.1462,0.239,0.2068,0.1466,0.1451,0.0,-0.1755,-0.3073,-0.3988,-0.5122,-0.6762,-0.7157,0.0,0.0,-0.7507,-0.7419,-0.6963,-0.7184,-0.7496,-0.7567,-0.7283,-0.7123,-0.7326,-0.5949,-0.4872,0.0,-0.3174,-0.2025,-0.1624,-0.0791,0.0,0.0,-0.0344,-0.0474,-0.0471,-0.0471,-0.0404,-0.0202,-0.0197,-0.0128,0.0,0.0,0.0,0.0,0.0,0.0,0.0,0.0,0.0,0.0,0.0,0.0,0.0056,0.0671,0.0892,0.0995,0.1555,0.184,0.1815,0.1814,0.1836,0.1819,0.0,0.0,0.0,0.0,0.0,0.0,0.0,0.0,0.1884,0.2503,0.3253,0.3604,0.3215,0.3248,0.0,0.0,0.0,0.0,0.0,0.0,0.0,0.0,0.0,0.0,0.0,0.0,0.0,0.0,0.0,0.0,0.0,0.0,0.0,0.0,0.0,0.0,0.0,0.0,0.0,0.0,0.0,0.0,0.0,0.0,0.0,0.0,0.0,0.0,0.0,0.0,0.1395,0.0864,0.2384,0.2633,0.2359,0.2953,0.2386,0.1442,0.0894,-0.0457,-0.2204,-0.3862,-0.4493,-0.5054,-0.6576,0.0,0.0,0.0,-0.6819,-0.6658,-0.6109,-0.6597,0.0,-0.6241,-0.6071,-0.5909,-0.5686,-0.4588,-0.3566,-0.3172,-0.2193,-0.138,-0.08,-0.0285,0.0,0.0,0.0,0.0,0.0,0.0,0.0,0.0,0.0,0.0,0.0,0.0,0.0,0.0,0.0,0.0,0.0,0.0392,0.056,0.0616,0.095,0.1118,0.1174,0.1507,0.1675,0.1728,0.2082,0.2207,0.222,0.2184,0.2197,0.2259,0.0,0.0,0.0,0.0,0.0,0.0,0.0,0.1686,0.2504,0.3052,0.3953,0.4282,0.3657,0.3288,0.3294,0.0,0.0,0.0,0.0,0.0,0.0,0.0,0.0,0.0,0.0,0.0,0.0,0.2839,0.0,0.0,0.0,0.0,0.0,0.0,0.0,0.0,0.0,0.0,0.0,0.0,0.0,0.0,0.0,0.0,0.0,0.0,0.0,0.0,0.0,0.0,0.1857,0.1344,0.2405,0.2841,0.3061,0.3416,0.264,0.1394,0.0431,-0.0984,-0.2729,-0.4842,-0.5092,-0.5209,-0.6622,-0.6328,0.0,-0.628,-0.6258,-0.5987,-0.5378,-0.5999,-0.6124,0.0,-0.481,-0.47,-0.409,-0.3262,-0.2443,-0.1711,-0.1412,0.0,-0.0072,0.0,0.0,0.0,0.0,0.0,0.0,0.0,0.0,0.0,0.0,0.0,0.0,0.0,0.0,0.0,0.0,0.0056,0.028,0.0838,0.1174,0.1341,0.1952,0.2174,0.2232,0.2397,0.2454,0.2454,0.2619,0.2686,0.2677,0.2677,0.2687,0.2775,0.0,0.0,0.0,0.0,0.0,0.0,0.0,0.1696,0.2507,0.3752,0.3897,0.3799,0.3625,0.3686,0.3464,0.0,0.0,0.0,0.0,0.0,0.0,0.0,0.0,0.0,0.0,0.0,0.0,0.1306,0.0821,0.0,0.0,0.0,0.0,0.0,0.0,0.0434,0.0,0.0,0.0,0.0,0.0,0.0,0.0,0.0,0.0,0.0,0.0,0.0,0.0,0.0,0.0,0.1431,0.2412,0.3232,0.4084,0.5228,0.0,0.0,0.1707,-0.0937,-0.3879,-0.5615,-0.5967,-0.6236,-0.755,0.0,-0.4948,-0.5478,-0.5113,-0.468,-0.4625,-0.4691,-0.4752,0.0,0.0,-0.38,-0.3959,-0.2512,-0.1484,-0.1621,0.0,0.0,0.0,0.0,0.0,0.0,0.0,0.0,0.0,0.0,0.0,0.0,0.0,0.0,0.0,0.0,0.0,0.0,0.0,0.0336,0.1006,0.1062,0.1452,0.212,0.2174,0.2174,0.0,0.301,0.3234,0.3287,0.4012,0.4284,0.4275,0.4275,0.4265,0.4293,0.0,0.0,0.0,0.0,0.0,0.0,0.072,0.1621,0.2303,0.2844,0.3095,0.2901,0.1963,0.1908,0.2223,0.0,0.0,0.0,0.0,0.0,0.0,0.0,0.0,0.0,0.0,0.0,0.0,-0.0108,-0.0928,0.0,0.0,0.0,0.0,0.0,0.0,-0.02,-0.0299,0.0,0.0,0.0,0.0,0.0,0.0,0.0,0.0,0.0,0.0,0.0,0.0,0.0,0.0,0.0,0.2254,0.2621,0.0,0.0,0.268,0.0818,-0.0913,-0.3204,-0.5661,-0.7672,-0.7737,-0.735,-0.7334,0.0,-0.5139,-0.4963,-0.4677,-0.4519,-0.4519,-0.4519,-0.4536,0.0,0.0,0.0,-0.2899,-0.1539,-0.0567,-0.0653,-0.0265,0.0,0.0,0.0,0.0202,0.0739,0.0728,0.0918,0.1507,0.0983,0.0645,0.0685,0.1091,0.1304,0.1337,0.1302,0.134,0.134,0.134,0.1452,0.1786,0.2232,0.2565,0.2899,0.34,0.3566,0.0,0.3901,0.407,0.407,0.4349,0.4519,0.4519,0.4519,0.4519,0.4508,0.0,0.0,0.0,0.0,0.0,-0.1005,0.0311,0.1227,0.1746,0.1751,0.2159,0.1925,0.0589,0.0555,0.1041,0.2113,0.0,0.0,0.0,0.0,0.0,0.0,0.0,0.0,0.0,0.0,0.0,0.0,0.0,-0.2551,0.0,0.0,-0.2265,-0.1741,0.0,0.0,0.0,0.0,0.0,0.0,0.0,0.0,0.0,0.0,0.0,0.0,0.0,0.0,0.0,0.0,0.0,0.0,0.0,0.0,0.0,0.0,0.1104,-0.075,-0.2812,-0.4779,-0.6813,-0.8939,-0.8634,-0.7674,0.0,0.0,-0.5058,-0.457,-0.4519,-0.4519,-0.4519,-0.4294,-0.4125,0.0,0.0,-0.1856,-0.1901,-0.0818,0.0,0.0,0.0,0.0,0.0,0.0201,0.0739,0.1675,0.1569,0.1794,0.2476,0.2014,0.1665,0.143,0.1944,0.2203,0.2208,0.2186,0.2174,0.2174,0.2174,0.2286,0.2565,0.3065,0.3456,0.368,0.4239,0.4519,0.0,0.4519,0.4519,0.4519,0.4519,0.4519,0.4519,0.4519,0.4519,0.4519,0.0,0.0,0.0,0.0,0.0,0.0,0.0,0.0402,0.0697,0.0695,0.1073,0.0935,-0.0094,0.0181,0.0214,-0.0311,0.0,0.0,0.0,0.0,0.0,0.0,0.0,0.0,0.0,0.0,0.0,0.0,0.0,0.0,0.0,-0.3303,-0.3149,-0.2871,0.0,0.0,0.0,0.0,0.0,0.0,0.0,0.0,0.0,0.0,0.0,0.0,0.0,0.0,0.0,0.0,0.0,0.0,0.0,0.0,0.0,0.0,0.0182,-0.1461,-0.3038,-0.5018,-0.7062,-0.901,-0.8123,-0.6932,0.0,0.0,-0.4519,-0.4519,-0.4519,-0.4519,-0.4519,-0.3846,-0.3287,-0.3287,0.0,0.0,-0.1118,-0.0461,0.0,0.0,0.0,0.0,0.0,0.0792,0.1675,0.2611,0.2546,0.2475,0.2525,0.2983,0.2913,0.2208,0.2205,0.2227,0.2225,0.2211,0.2174,0.2174,0.2174,0.2565,0.3287,0.3287,0.3732,0.4463,0.4519,0.4519,0.0,0.4519,0.4519,0.4519,0.4519,0.4519,0.4519,0.4519,0.4519,0.4519,0.0,0.0,0.0,0.0,0.0,0.0,0.0,-0.1232,-0.1033,-0.0726,-0.0982,-0.1458,-0.2111,-0.213,-0.2178,-0.2361,0.0,0.0,0.0,0.0,0.0,0.0,0.0,0.0,0.0,0.0,0.0,0.0,0.0,0.0,0.0,0.0,0.0,-0.291,-0.2759,0.0,0.0,0.0,0.0,0.0,0.0,0.0,0.0,0.0,0.0,0.0,0.0,0.0,0.0,0.0,0.0,0.0,0.0,0.0,0.0,-0.4084,-0.4116,-0.4634,-0.6461,-0.8158,-0.9709,-1.0692,-1.0206,-0.91,-0.7958,-0.6778,-0.566,-0.468,-0.4519,-0.4519,-0.4519,-0.3901,-0.3345,-0.3287,-0.2063,0.0,0.0,0.0,0.0,0.0,0.0508,0.0918,0.0861,0.1639,0.2473,0.3378,0.323,0.3366,0.3988,0.4095,0.3755,0.3046,0.3529,0.3792,0.3792,0.3755,0.379,0.379,0.379,0.3901,0.4125,0.4125,0.4239,0.4519,0.4519,0.4519,0.4519,0.4519,0.4519,0.4519,0.4519,0.4519,0.4519,0.4519,0.4519,0.4519,0.0,0.0,0.0,0.0,0.0,0.0,0.0,-0.251,-0.2416,-0.2379,-0.2653,-0.3027,-0.3609,-0.3746,-0.3834,-0.3902,0.0,0.0,0.0,0.0,0.0,0.0,0.0,0.0,0.0,0.0,0.0,0.0,0.0,0.0,0.0,0.0,0.0,0.0,0.0,0.0,0.0,0.0,0.0,0.0,0.0,0.0,-0.134,0.0,0.0,0.0,0.0,0.0,0.0,0.0,0.0,0.0,0.0,0.0,0.0,0.0,-0.7694,-0.7847,0.0,-0.9946,-1.1027,-1.11,-1.0617,-0.9692,-0.8103,0.0,-0.5928,-0.5058,-0.468,-0.4405,-0.4125,-0.3456,-0.2843,-0.2508,-0.1452,-0.0671,0.0,0.0,0.0,0.0,0.0771,0.1452,0.178,0.253,0.3336,0.4229,0.4065,0.41,0.4691,0.4601,0.4294,0.3846,0.4239,0.4519,0.4519,0.4519,0.4519,0.4519,0.4519,0.4519,0.4519,0.4519,0.4519,0.4519,0.4519,0.4519,0.0,0.4519,0.4519,0.4519,0.4519,0.4519,0.4519,0.4519,0.468,0.4897,0.0,0.0,0.0,0.0,0.0,0.0,0.0,0.0,-0.3526,-0.4147,-0.3866,-0.3898,-0.4548,-0.4674,-0.4765,-0.4959,0.0,0.0,0.0,0.0,0.0,0.0,0.0,0.0,0.0,0.0,0.0,0.0,-0.6496,-0.6879,-0.675,0.0,0.0,0.0,0.0,0.0,0.0,0.0,0.0,0.0,-0.1935,-0.1425,0.0,0.0,0.0,0.0,0.0,0.0,0.0,0.0,0.0,0.0,0.0,0.0,0.0,0.0,0.0,0.0,0.0,-1.0665,-1.1227,-1.0539,-0.9814,-0.9097,-0.8354,0.0,0.0,-0.5487,-0.4948,-0.4294,-0.3514,-0.2732,-0.1952,-0.1229,-0.0504,0.0,0.0056,0.0058,0.006,0.0062,0.0888,0.1739,0.2686,0.345,0.4212,0.5034,0.4836,0.4674,0.4674,0.4594,0.4519,0.4519,0.4519,0.4519,0.4519,0.4519,0.4519,0.4519,0.4519,0.4519,0.4519,0.4519,0.4519,0.0,0.4519,0.4519,0.4519,0.4519,0.4519,0.4519,0.4519,0.4519,0.4519,0.4519,0.4893,0.5429,0.0,0.0,0.0,0.0,0.0,0.0,0.0,0.0,0.0,0.0,-0.4674,-0.4847,-0.4953,-0.545,-0.5675,0.0,0.0,0.0,0.0,0.0,0.0,0.0,0.0,0.0,0.0,0.0,0.0,-0.6108,-0.7536,-0.8246,-0.822,-0.8272,0.0,0.0,0.0,0.0,0.0,0.0,0.0,0.0,-0.2816,-0.2385,0.0,0.0,0.0,0.0,-0.2319,-0.3435,0.0,0.0,0.0,0.0,0.0,0.0,0.0,0.0,-1.1814,-1.2393,-1.2187,0.0,-1.2245,-1.0996,-1.0526,-0.9948,0.0,0.0,0.0,0.0,0.0,-0.4294,-0.3514,-0.2732,-0.1952,-0.1229,-0.0504,0.0224,0.0783,0.0824,0.0855,0.0861,0.1739,0.2608,0.3303,0.4156,0.4671,0.4802,0.4619,0.4573,0.4573,0.4536,0.4519,0.4519,0.4519,0.4519,0.4519,0.4519,0.4519,0.4519,0.4519,0.4519,0.4519,0.4519,0.4519,0.4519,0.4519,0.4519,0.4519,0.4519,0.4519,0.4519,0.4519,0.4519,0.4519,0.4519,0.4625,0.4769,0.0,0.0,0.0,0.0,0.0,0.0,0.0,0.0,0.0,0.0,0.0,0.0,0.0,0.0,0.0,0.0,0.0,0.0,0.0,0.0,0.0,0.0,0.0,0.0,0.0,0.0,0.0,0.0,0.0,-1.0241,0.0,0.0,0.0,0.0,0.0,0.0,0.0,0.0,0.0,-0.4319,-0.3443,0.0,0.0,0.0,0.0,0.0,-0.4,-0.5327,0.0,-0.761,-0.9181,-1.0663,0.0,0.0,0.0,0.0,-1.208,-1.2403,-1.2412,-1.2627,-1.2569,-1.1174,-1.0813,-1.0254,-0.819,0.0,0.0,0.0,0.0,-0.3735,-0.301,-0.2232,-0.1452,-0.0727,0.0,0.0787,0.1483,0.159,0.1642,0.1753,0.2577,0.3307,0.3643,0.4396,0.4857,0.4704,0.4548,0.4519,0.4519,0.4519,0.4519,0.4519,0.4519,0.4519,0.4519,0.4519,0.4519,0.4519,0.4519,0.4519,0.4519,0.4519,0.4519,0.4519,0.4519,0.4519,0.4519,0.4519,0.4519,0.4519,0.4519,0.4519,0.4519,0.4842,0.5167,0.5525,0.0,0.0,0.0,0.0,0.0,0.0,0.0,0.0,0.0,0.0,0.0,0.0,0.0,0.0,0.0,0.0,0.0,0.0,0.0,0.0,0.0,0.0,0.0,0.0,0.0,0.0,0.0,0.0,0.0,0.0,0.0,0.0,0.0,0.0,0.0,0.0,0.0,0.0,-0.6486,-0.5334,-0.4553,0.0,0.0,0.0,0.0,0.0,0.0,0.0,0.0,-0.9776,-1.0973,-1.1972,-1.1972,0.0,0.0,0.0,0.0,0.0,-1.1642,-1.2153,-1.2339,-1.1082,-1.0661,-0.999,-0.8137,0.0,0.0,0.0,0.0,0.0,-0.2343,-0.1619,-0.0838,-0.0112,0.0731,0.154,0.2188,0.2376,0.2481,0.2668,0.3325,0.3824,0.3898,0.4507,0.4819,0.4667,0.4535,0.4519,0.4519,0.4519,0.4519,0.4519,0.4519,0.4519,0.4519,0.4519,0.4519,0.4519,0.4519,0.4519,0.4519,0.4519,0.4519,0.4519,0.4519,0.0,0.468,0.468,0.4736,0.4846,0.4846,0.4846,0.4897,0.5437,0.6036,0.6666,0.0,0.0,0.0,0.0,0.0,0.0,0.0,0.0,0.0,0.0,0.0,0.0,0.0,0.0,0.0,0.0,0.0,0.0,0.0,0.0,0.0,0.0,0.0,0.0,0.0,0.0,0.0,0.0,0.0,0.0,-1.3066,-1.3122,-1.2508,0.0,0.0,0.0,0.0,-1.0048,-0.9682,-0.899,-0.796,0.0,0.0,0.0,0.0,0.0,0.0,0.0,0.0,-1.1835,-1.2511,-1.2715,-1.2715,0.0,0.0,0.0,0.0,0.0,-1.0973,-1.125,-1.1419,-1.0947,-0.9931,-0.879,-0.7925,0.0,0.0,0.0,0.0,0.0,0.0,-0.1619,-0.0838,-0.0112,0.1259,0.2375,0.2573,0.3162,0.352,0.347,0.3663,0.3982,0.4368,0.4606,0.4663,0.4567,0.4532,0.4519,0.4519,0.4519,0.4519,0.4519,0.4519,0.4519,0.4519,0.4519,0.4519,0.4519,0.4519,0.4519,0.4519,0.4519,0.4519,0.4519,0.0,0.4842,0.5324,0.5324,0.571,0.6263,0.6263,0.6263,0.6312,0.6367,0.648,0.6691,0.0,0.0,0.0,0.0,0.0,0.0,0.0,0.0,0.0,0.0,0.0,0.0,0.0,0.0,0.0,0.0,0.0,0.0,0.0,0.0,0.0,0.0,0.0,0.0,0.0,0.0,0.0,0.0,0.0,-1.4011,-1.3768,-1.3069,-1.2654,-1.2471,0.0,0.0,-1.2058,-1.1997,-1.1638,-1.1002,0.0,0.0,0.0,0.0,0.0,0.0,0.0,0.0,0.0,0.0,-1.3122,-1.2881,-1.2881,0.0,0.0,0.0,0.0,0.0,-1.0364,-1.0379,-1.036,-0.9814,-0.9327,-0.8663,-0.7365,0.0,0.0,0.0,0.0,0.0,0.0,0.0,-0.0112,0.1145,0.2416,0.3341,0.3807,0.4199,0.4365,0.4308,0.4353,0.4473,0.4613,0.465,0.4626,0.4529,0.4519,0.4519,0.4519,0.4519,0.4519,0.4519,0.4519,0.4519,0.4519,0.4519,0.4519,0.4519,0.4519,0.4519,0.4519,0.4519,0.4519,0.4519,0.0,0.4897,0.5487,0.5487,0.5928,0.6588,0.6588,0.6588,0.6642,0.702,0.7365,0.7645,0.0,0.0,0.0,0.0,0.0,0.0,0.0,0.0,0.0,0.0,0.0,0.0,0.0,0.0,0.0,0.0,0.0,0.0,0.0,0.0,0.0,0.0,0.0,0.0,0.0,0.0,0.0,-1.4329,-1.498,-1.4885,-1.4035,-1.3548,-1.3375,0.0,0.0,0.0,0.0,-1.3914,-1.3629,-1.2981,0.0,0.0,0.0,0.0,0.0,0.0,0.0,0.0,0.0,0.0,0.0,0.0,0.0,0.0,0.0,-1.1015,-1.0669,-1.0415,-0.9762,-0.9508,-0.9274,-0.8606,-0.8536,-0.8239,-0.6804,0.0,0.0,0.0,0.0,0.0,0.0,-0.051,0.0573,0.2242,0.3103,0.3859,0.4892,0.4992,0.4955,0.4921,0.4887,0.4806,0.4653,0.4636,0.4589,0.4525,0.4519,0.4519,0.4519,0.4519,0.4519,0.4519,0.4519,0.4519,0.4519,0.4429,0.4412,0.4412,0.4501,0.4498,0.4412,0.4501,0.4519,0.4519,0.468,0.5113,0.576,0.5923,0.644,0.7052,0.7106,0.7128,0.7176,0.7653,0.8132,0.849,0.0,0.0,0.0,0.0,0.0,0.0,0.0,0.0,0.0,0.0,0.0,0.0,0.0,0.0,0.0,0.0,0.0,0.0,0.0,0.0,0.0,0.0,0.0,0.0,0.0,-1.4023,-1.4353,-1.4947,-1.438,-1.4024,-1.3864,-1.5133,-1.5129,-1.4098,0.0,0.0,0.0,-1.6145,-1.6302,-1.5836,-1.4965,0.0,0.0,0.0,0.0,0.0,0.0,0.0,0.0,0.0,0.0,0.0,0.0,0.0,-1.1665,-1.1015,-1.0364,-0.9718,-0.9061,-0.8613,-0.8244,-0.789,-0.73,0.0,-0.6171,-0.4696,0.0,-0.3703,0.0,0.0,0.0,-0.0469,0.0592,0.2378,0.2761,0.3354,0.5107,0.5206,0.5067,0.4935,0.4796,0.4646,0.4549,0.4532,0.4529,0.4519,0.4519,0.4519,0.4519,0.4519,0.4519,0.4519,0.4519,0.4519,0.4519,0.4331,0.421,0.4214,0.4399,0.4392,0.4214,0.4402,0.4519,0.4519,0.5164,0.5873,0.6588,0.7235,0.785,0.8272,0.8541,0.8646,0.8613,0.8402,0.8506,0.8704,0.0,0.0,0.0,0.0,0.0,0.0,0.0,0.0,0.0,0.0,0.0,0.0,0.0,0.0,0.0,0.0,0.0,0.0,0.0,0.0,0.0,0.0,0.0,-1.4285,-1.4987,-1.5067,-1.5536,-1.6437,-1.575,-1.5358,-1.5227,-1.5208,0.0,0.0,0.0,0.0,0.0,-1.7856,-1.7905,-1.7464,-1.6468,-1.5887,0.0,0.0,0.0,0.0,0.0,0.0,0.0,0.0,-1.4061,0.0,0.0,0.0,0.0,0.0,-1.0618,-1.0167,-0.9106,-0.8344,-0.7738,-0.7149,0.0,0.0,0.0,-0.4186,-0.2718,-0.2972,-0.16,0.0,0.0,0.0,0.1768,0.2444,0.348,0.4414,0.5028,0.5111,0.5043,0.4806,0.4724,0.4629,0.4532,0.4519,0.4519,0.4519,0.4519,0.4423,0.4334,0.4328,0.4287,0.4189,0.4189,0.4189,0.4189,0.4131,0.406,0.3968,0.4212,0.4348,0.4385,0.4491,0.4519,0.4512,0.5053,0.5761,0.6617,0.7002,0.7628,0.837,0.829,0.8263,0.827,0.835,0.8444,0.851,0.0,0.0,0.0,0.0,0.0,0.0,0.0,0.0,0.0,0.0,0.0,0.0,0.0,0.0,0.0,0.0,0.0,0.0,0.0,0.0,0.0,0.0,0.0,-1.5509,-1.6113,-1.6138,-1.6453,-1.7035,-1.6683,-1.6431,-1.6318,0.0,0.0,0.0,0.0,0.0,0.0,0.0,-1.8773,-1.8444,-1.7268,-1.6659,0.0,0.0,0.0,0.0,0.0,0.0,0.0,0.0,0.0,0.0,0.0,0.0,0.0,0.0,0.0,-1.0517,-0.9159,-0.8103,-0.7235,0.0,0.0,0.0,-0.5474,-0.38,-0.2279,-0.2544,-0.1195,0.0,0.0,0.0,0.0,0.2463,0.3674,0.4712,0.487,0.4962,0.4918,0.4714,0.465,0.4579,0.4529,0.4519,0.4519,0.4519,0.4419,0.4351,0.42,0.415,0.4179,0.4271,0.4118,0.4069,0.4267,0.4262,0.4111,0.3866,0.4472,0.464,0.4324,0.4372,0.4395,0.4443,0.5169,0.5826,0.6457,0.6936,0.7595,0.8203,0.7903,0.7842,0.7895,0.8049,0.815,0.821,0.0,0.0,0.0,0.0,0.0,0.0,0.0,0.0,0.0,0.0,0.0,0.0,0.0,0.0,0.0,0.0,0.0,0.0,0.0,0.0,0.0,0.0,0.0,-1.7015,-1.7483,-1.7213,-1.6892,-1.6519,-1.678,-1.6874,-1.6849,-1.7204,0.0,0.0,0.0,0.0,0.0,0.0,-1.891,-1.8778,-1.7369,-1.6789,-1.6686,0.0,0.0,0.0,0.0,0.0,0.0,0.0,-1.3846,0.0,0.0,0.0,0.0,0.0,-1.0813,-1.0517,-0.9159,-0.7723,-0.6588,0.0,0.0,0.0,-0.488,-0.3501,-0.2332,-0.2812,-0.1309,0.0,0.0,0.0588,0.0,0.2344,0.3129,0.3928,0.4793,0.4785,0.4691,0.4687,0.4555,0.4519,0.4519,0.4519,0.4519,0.4519,0.4328,0.4197,0.4194,0.405,0.4264,0.4853,0.431,0.426,0.4902,0.4763,0.4483,0.4016,0.5336,0.5291,0.4026,0.4127,0.4197,0.4299,0.5625,0.6117,0.6121,0.7392,0.7875,0.7842,0.7582,0.7649,0.7835,0.7582,0.7662,0.7795,0.0,0.0,0.0,0.0,0.0,0.0,0.0,0.0,0.0,0.0,0.0,0.0,0.0,0.0,0.0,0.0,0.0,0.0,0.0,0.0,0.0,0.0,0.0,0.0,0.0,0.0,-1.7001,-1.6788,-1.7243,-1.7757,0.0,0.0,0.0,-2.0565,0.0,0.0,0.0,0.0,-1.9384,-1.8802,-1.7617,-1.7002,-1.6696,0.0,0.0,0.0,0.0,0.0,0.0,0.0,0.0,0.0,0.0,0.0,0.0,-1.0517,-1.0115,-0.9917,-0.9061,-0.7723,0.0,-0.6588,0.0,0.0,0.0,-0.3567,0.0,0.0,-0.0382,0.0,0.0,0.0586,0.1361,0.2153,0.3027,0.3834,0.4498,0.4653,0.465,0.4545,0.4546,0.4519,0.4519,0.4519,0.4519,0.4519,0.4328,0.415,0.4043,0.3941,0.3906,0.3985,0.3802,0.3802,0.3982,0.4329,0.4414,0.4286,0.5096,0.5283,0.4892,0.4944,0.5224,0.5616,0.5678,0.6028,0.6631,0.7306,0.7482,0.7238,0.7188,0.7208,0.7308,0.7422,0.7567,0.7575,0.0,0.0,0.0,0.0,0.0,0.0,0.0,0.0,0.0,0.0,-1.8674,-1.8928,0.0,0.0,0.0,0.0,0.0,0.0,-1.9184,-1.8819,0.0,0.0,0.0,0.0,0.0,-1.748,-1.729,0.0,0.0,0.0,0.0,0.0,0.0,-2.1362,0.0,-2.0944,0.0,0.0,-1.9344,-1.865,-1.8004,-1.7362,-1.6753,0.0,0.0,0.0,0.0,0.0,0.0,0.0,0.0,0.0,0.0,0.0,0.0,-1.0004,-0.9717,-0.9585,-0.8495,-0.7429,0.0,-0.6258,-0.5414,-0.4571,-0.3984,0.0,0.0,0.0,0.0,0.0,0.0,0.058,0.1229,0.1675,0.2721,0.3597,0.4027,0.4369,0.4565,0.4529,0.4519,0.4494,0.4382,0.4375,0.4351,0.429,0.4151,0.4125,0.4271,0.4109,0.4243,0.4626,0.4403,0.4403,0.4622,0.4961,0.5,0.4783,0.5744,0.6059,0.5795,0.5304,0.5399,0.5917,0.5805,0.622,0.6887,0.7178,0.7188,0.6979,0.6979,0.6979,0.7041,0.7221,0.7288,0.7288,0.0,0.0,-1.5741,-1.701,0.0,0.0,0.0,0.0,0.0,0.0,-1.9193,-1.9085,0.0,0.0,0.0,-2.0012,-1.9037,-1.882,-1.9756,-1.8889,0.0,0.0,0.0,0.0,0.0,0.0,0.0,0.0,0.0,0.0,0.0,0.0,-1.9881,-2.1582,0.0,-2.1088,0.0,-1.9641,-1.8917,-1.8284,-1.8284,-1.7687,-1.6827,-1.7176,0.0,0.0,0.0,0.0,0.0,0.0,0.0,0.0,-1.1531,0.0,-1.0505,-0.9566,-0.9517,-0.9341,-0.7795,-0.6965,-0.6421,-0.5706,-0.5061,0.0,-0.2811,-0.2453,-0.1891,-0.0307,0.0,0.0,0.0,0.0573,0.1006,0.1062,0.2286,0.3234,0.34,0.4006,0.4501,0.4515,0.4494,0.4375,0.4207,0.4184,0.4117,0.4029,0.3877,0.4069,0.4675,0.4491,0.4913,0.6093,0.5567,0.5567,0.6093,0.6184,0.5916,0.5394,0.6805,0.7154,0.6615,0.5402,0.5125,0.5601,0.6061,0.6562,0.6979,0.6979,0.6979,0.6979,0.6979,0.6979,0.6979,0.6979,0.6979,0.7021,0.0,0.0,-1.6785,-1.8064,0.0,0.0,0.0,0.0,0.0,0.0,0.0,0.0,0.0,0.0,0.0,-2.0175,-1.8797,-1.8472,-1.9878,-1.9172,-1.8911,0.0,0.0,0.0,0.0,0.0,0.0,0.0,0.0,0.0,0.0,0.0,0.0,-2.1565,0.0,-2.0101,-1.969,-1.8927,-1.8202,-1.7527,-1.7527,-1.7231,-1.6779,-1.6604,-1.5945,0.0,0.0,0.0,0.0,0.0,0.0,0.0,-1.0306,-0.9931,-0.9566,-0.8827,-0.8827,-0.883,-0.7864,-0.7143,0.0,-0.5706,-0.4581,-0.3462,-0.2681,-0.1908,-0.115,-0.0178,0.0,0.0,0.0,0.0115,0.0448,0.1006,0.1842,0.2676,0.3289,0.3872,0.4334,0.4501,0.4256,0.4151,0.4187,0.4086,0.4056,0.4022,0.3877,0.4069,0.4675,0.4491,0.4739,0.548,0.5346,0.5351,0.548,0.5959,0.6136,0.6007,0.6747,0.7029,0.6907,0.6416,0.6136,0.6082,0.6587,0.6894,0.6979,0.6979,0.6979,0.6979,0.6979,0.6979,0.6979,0.6979,0.6979,0.7063,0.0,0.0,0.0,0.0,0.0,0.0,0.0,0.0,0.0,0.0,0.0,0.0,0.0,-1.9758,0.0,0.0,-1.91,-1.885,-2.0054,-1.9303,-1.9092,-1.9696,0.0,0.0,0.0,0.0,0.0,0.0,0.0,0.0,0.0,0.0,0.0,-2.0927,0.0,-1.9447,-1.8933,-1.8378,-1.7597,-1.6882,-1.7551,-1.7309,-1.6586,-1.6753,-1.6255,-1.5389,-1.4937,0.0,0.0,0.0,0.0,0.0,0.0,0.0,-0.8856,-0.7934,-0.7848,-0.7854,-0.6739,0.0,0.0,-0.5218,0.0,-0.2745,-0.2453,-0.1414,-0.045,-0.0057,0.0,0.0,0.0,0.0,0.0224,0.1006,0.1653,0.2398,0.3157,0.3755,0.4165,0.4239,0.4114,0.4022,0.4029,0.3958,0.3976,0.4178,0.4138,0.4492,0.5351,0.533,0.5518,0.6076,0.6118,0.6118,0.6118,0.6428,0.6605,0.6605,0.6852,0.6979,0.6985,0.6836,0.6569,0.6227,0.6768,0.6979,0.6979,0.6979,0.6979,0.6979,0.6979,0.6979,0.6979,0.6979,0.6979,0.7063,0.0,0.0,0.0,0.0,0.0,0.0,0.0,0.0,0.0,0.0,0.0,0.0,0.0,-1.9898,-1.9943,0.0,0.0,0.0,-2.023,-1.95,-1.9431,-2.0354,-2.0063,0.0,0.0,0.0,0.0,0.0,0.0,0.0,0.0,0.0,0.0,-2.0283,0.0,0.0,-1.8361,-1.7922,-1.7172,-1.6402,-1.7571,-1.7353,-1.6363,-1.6905,-1.6583,-1.5741,-1.5255,-1.4585,-1.3888,-1.373,0.0,0.0,0.0,0.0,-0.8382,-0.7144,-0.704,-0.6979,-0.5531,0.0,-0.5156,-0.4426,-0.3219,0.0,-0.2063,-0.095,0.0,0.0,0.0,0.0,0.0,0.0111,0.033,0.0989,0.1662,0.2368,0.2997,0.3565,0.3988,0.4016,0.3975,0.3904,0.3802,0.3858,0.4062,0.4355,0.4478,0.5043,0.6136,0.6184,0.6435,0.6979,0.6979,0.6979,0.6979,0.6979,0.6979,0.6979,0.6979,0.6979,0.6979,0.6979,0.6768,0.6349,0.681,0.6979,0.6979,0.6979,0.6979,0.6979,0.6979,0.6979,0.6979,0.6979,0.6979,0.7014,0.0,0.0,0.0,0.0,0.0,0.0,0.0,0.0,0.0,0.0,-1.9922,-1.9993,-1.9993,-1.9471,-1.9458,-2.0227,-1.8811,-1.8564,-2.0191,0.0,0.0,-2.0698,-1.9884,0.0,0.0,0.0,0.0,0.0,0.0,0.0,0.0,0.0,0.0,-2.0249,0.0,0.0,0.0,-1.7661,-1.6949,-1.6328,-1.6487,-1.646,-1.6274,-1.6074,-1.5931,-1.5741,-1.5255,-1.4814,-1.4296,-1.3467,-1.2151,0.0,0.0,0.0,-0.8105,-0.6972,-0.696,-0.6979,-0.5638,0.0,-0.4426,0.0,-0.273,-0.2009,0.0,0.0,0.0,0.0,0.0,0.0,0.0,0.0418,0.0819,0.0921,0.1982,0.2833,0.2936,0.3429,0.387,0.4005,0.3795,0.368,0.3782,0.4119,0.4328,0.4391,0.487,0.548,0.6179,0.6184,0.6435,0.6979,0.6979,0.6979,0.6979,0.6979,0.6979,0.6979,0.6979,0.6979,0.6979,0.6979,0.6979,0.6894,0.6979,0.6979,0.6979,0.6979,0.6979,0.6979,0.6979,0.6979,0.6979,0.6979,0.6979,0.7022,0.0,0.0,0.0,0.0,0.0,0.0,0.0,0.0,0.0,0.0,0.0,-1.9993,-1.9993,-1.9843,-1.9888,-2.0273,-1.96,-1.9489,-2.0249,-2.0323,-2.0352,-2.0411,-1.9592,-1.8949,0.0,0.0,0.0,0.0,0.0,0.0,0.0,-1.8014,-1.9059,0.0,0.0,0.0,0.0,0.0,-1.6807,-1.6039,-1.6219,-1.6191,-1.6011,-1.5856,-1.5799,-1.577,-1.558,-1.5074,-1.4438,-1.403,-1.2785,-1.1239,-1.0128,0.0,0.0,0.0,-0.6112,-0.596,-0.4483,-0.364,-0.3111,0.0,-0.2091,-0.1519,-0.1194,-0.0544,0.0,0.0,0.0254,0.0504,0.0515,0.0714,0.1159,0.1912,0.2467,0.2916,0.3354,0.3575,0.3697,0.3765,0.392,0.4079,0.4149,0.4613,0.5043,0.5394,0.5653,0.6044,0.6598,0.6641,0.6768,0.6979,0.6979,0.6979,0.6979,0.6979,0.6979,0.6979,0.6979,0.6979,0.6979,0.6979,0.6979,0.6979,0.6979,0.6927,0.678,0.678,0.678,0.678,0.678,0.688,0.6979,0.6979,0.6921,0.6801,0.0,0.0,0.0,0.0,0.0,0.0,0.0,0.0,0.0,0.0,0.0,-1.9922,-1.9953,0.0,0.0,0.0,-2.0312,-2.0306,-2.0311,-2.0435,-2.0416,-2.0218,-1.9544,-1.8808,-1.8015,0.0,0.0,0.0,0.0,0.0,-1.6145,-1.7837,-1.8659,0.0,-1.8868,0.0,0.0,0.0,0.0,-1.6263,-1.6076,-1.6017,-1.6009,-1.5742,-1.5712,-1.577,-1.5668,-1.5134,-1.447,-1.4374,-1.3213,-1.1605,-1.0472,-0.9455,0.0,0.0,0.0,-0.4794,0.0,0.0,-0.2323,-0.1952,-0.1507,-0.1048,0.0,0.0,0.0,0.0,0.0486,0.0958,0.1122,0.1272,0.1662,0.2684,0.2903,0.3129,0.3691,0.3646,0.3667,0.3796,0.4176,0.4478,0.4604,0.5173,0.5701,0.6179,0.6307,0.6562,0.6979,0.6979,0.6979,0.6979,0.6979,0.6979,0.6979,0.6979,0.6979,0.6979,0.6979,0.6979,0.6979,0.6979,0.6979,0.6979,0.6979,0.6854,0.6587,0.6587,0.6546,0.6486,0.656,0.6673,0.6807,0.6887,0.6727,0.6473,0.0,0.0,0.0,0.0,0.0,0.0,0.0,0.0,0.0,0.0,0.0,-1.9669,-1.9809,-1.9933,-2.0087,-2.0285,-2.0312,-2.0334,-2.0398,-2.047,-2.0486,-2.0482,-1.9952,0.0,-1.8566,0.0,0.0,0.0,0.0,0.0,-1.5573,-1.7202,-1.8007,-1.8185,-1.9214,-1.9271,-1.8612,0.0,0.0,-1.7441,-1.581,-1.5754,-1.6531,0.0,-1.5418,0.0,-1.5299,-1.4845,-1.4438,-1.4052,-1.2998,-1.1605,-1.0472,-0.9455,-0.8259,0.0,0.0,0.0,0.0,-0.298,0.0,-0.1303,-0.1034,-0.091,0.0,-0.0051,0.0,0.0,0.0478,0.1082,0.1629,0.2199,0.2645,0.2692,0.3185,0.3547,0.3592,0.3585,0.3796,0.4303,0.4391,0.4609,0.5216,0.5787,0.6179,0.6179,0.6683,0.6979,0.6979,0.6979,0.6979,0.6979,0.6979,0.6979,0.6979,0.6979,0.6979,0.6979,0.6979,0.6979,0.6979,0.6979,0.6979,0.6979,0.6979,0.6854,0.6587,0.6587,0.6465,0.6243,0.6518,0.6471,0.6277,0.6513,0.6465,0.6176,0.0,0.0,0.0,0.0,0.0,0.0,0.0,0.0,0.0,0.0,0.0,0.0,0.0,-1.9869,-2.0031,-2.0106,-2.0238,-2.0308,-2.0327,-2.0406,-2.0422,-2.0366,-2.012,-1.9579,-1.8809,0.0,0.0,0.0,0.0,-1.5835,-1.5397,-1.6656,-1.7505,-1.8044,-1.9177,-1.9316,-1.8687,-1.8448,0.0,0.0,-1.6557,-1.6197,0.0,0.0,0.0,0.0,0.0,0.0,-1.4052,-1.3537,-1.2695,-1.1531,0.0,0.0,0.0,0.0,0.0,0.0,0.0,0.0,0.0,-0.057,-0.0338,-0.0341,-0.0049,0.0,0.0096,0.0509,0.1052,0.1682,0.2279,0.2541,0.2807,0.3214,0.3442,0.3581,0.3581,0.388,0.4176,0.4391,0.5087,0.5653,0.5873,0.6386,0.6732,0.6732,0.6894,0.6979,0.6979,0.6979,0.6979,0.6979,0.6979,0.6979,0.6979,0.6979,0.6979,0.6979,0.6979,0.6979,0.7014,0.6834,0.6747,0.6734,0.6546,0.6445,0.6337,0.6106,0.5965,0.5885,0.5985,0.6079,0.6203,0.631,0.6162,0.5858,0.0,0.0,0.0,0.0,0.0,0.0,0.0,0.0,0.0,0.0,0.0,0.0,0.0,0.0,-1.9973,-2.0078,-2.0229,-2.0307,-2.0307,-2.0357,-2.0374,-2.0351,-2.0238,-1.983,-1.9105,0.0,0.0,0.0,0.0,0.0,0.0,-1.6436,-1.7103,-1.7619,-1.8599,-1.8912,0.0,0.0,0.0,-1.7921,0.0,0.0,-1.6584,0.0,0.0,0.0,0.0,0.0,-1.3822,-1.3327,-1.2447,0.0,0.0,0.0,0.0,0.0,0.0,0.0,-0.2008,0.0,0.0,0.0,0.014,0.028,0.028,0.0467,0.0744,0.119,0.1732,0.2277,0.2685,0.2911,0.3173,0.3541,0.3581,0.3595,0.3643,0.4083,0.4521,0.4879,0.5775,0.6431,0.6748,0.7017,0.7168,0.7168,0.7074,0.6979,0.6979,0.6979,0.6979,0.6979,0.6979,0.6979,0.6979,0.6979,0.6979,0.6979,0.6979,0.6974,0.6867,0.6673,0.6533,0.6465,0.6176,0.6041,0.6028,0.5792,0.5658,0.5578,0.5671,0.5772,0.5914,0.6008,0.5818,0.5571,0.0,-2.0705,-2.0293,-1.9502,-1.8745,-1.8426,0.0,0.0,0.0,0.0,0.0,0.0,0.0,0.0,0.0,-2.0307,-2.0314,-2.0307,-2.0307,-2.0352,-2.0402,-2.0402,-2.0327,-2.005,-1.9518,0.0,0.0,0.0,0.0,0.0,0.0,0.0,-1.6757,0.0,-1.7394,-1.7963,-1.8499,0.0,-1.7133,-1.8421,0.0,-1.5876,-1.7605,0.0,0.0,0.0,-1.4804,-1.4309,0.0,-1.3323,0.0,0.0,0.0,0.0,0.0,0.0,0.0,0.0,0.0,0.0,0.0,0.0,0.0448,0.0895,0.0895,0.1385,0.1851,0.1973,0.2463,0.2887,0.2937,0.3413,0.3748,0.3615,0.3629,0.367,0.3811,0.4198,0.4848,0.5914,0.6393,0.6954,0.7808,0.7655,0.752,0.7513,0.7201,0.6992,0.7021,0.6979,0.6979,0.6979,0.6979,0.6979,0.6979,0.6979,0.6979,0.6979,0.6979,0.6867,0.6587,0.658,0.6458,0.6162,0.5825,0.5698,0.5698,0.5698,0.5531,0.5342,0.5591,0.5531,0.5342,0.5598,0.5524,0.5309,-2.1846,-2.1488,-2.1205,-2.0949,-1.9983,-1.9396,0.0,0.0,0.0,0.0,0.0,0.0,0.0,0.0,0.0,-2.1133,-2.0643,-2.0292,-2.0292,-2.032,-2.0334,-2.0334,-2.0306,-2.0122,0.0,0.0,0.0,0.0,0.0,0.0,0.0,0.0,0.0,0.0,-1.5663,-1.5773,-1.6388,-1.6704,0.0,-1.7977,-1.6431,-1.5997,0.0,0.0,0.0,0.0,0.0,-1.3518,-1.3323,0.0,-1.2224,-1.1235,0.0,0.0,0.0,0.0,0.0,0.0,-0.2142,0.0,0.0,0.0,0.0,0.0,0.0895,0.1385,0.1925,0.2398,0.263,0.2928,0.3441,0.3695,0.3816,0.3887,0.4031,0.4192,0.424,0.5256,0.6095,0.6418,0.7105,0.7648,0.7875,0.7849,0.7709,0.7527,0.7432,0.7248,0.7034,0.6979,0.6979,0.6979,0.6979,0.6979,0.6979,0.6979,0.6979,0.6979,0.6979,0.6867,0.658,0.6411,0.6149,0.5818,0.5524,0.5397,0.5397,0.5397,0.5351,0.5322,0.5371,0.5351,0.5322,0.5371,0.5351,0.5309,-2.144,-2.1282,-2.129,-2.107,-2.0114,0.0,0.0,0.0,0.0,0.0,0.0,0.0,0.0,0.0,0.0,0.0,-2.0518,-2.0312,-2.0312,-2.0312,-2.0312,-2.0312,-2.0233,-2.006,0.0,0.0,0.0,0.0,0.0,0.0,0.0,0.0,0.0,0.0,0.0,0.0,0.0,0.0,0.0,0.0,-1.5827,0.0,0.0,-1.4595,-1.3894,0.0,0.0,0.0,-1.3511,-1.2981,-1.2187,0.0,0.0,0.0,0.0,0.0,0.0,0.0,0.0,0.0,0.0,0.0,0.0,0.0,0.153,0.2073,0.2635,0.299,0.3119,0.3269,0.3728,0.4023,0.424,0.4338,0.4811,0.5018,0.465,0.5882,0.6813,0.6877,0.7611,0.8163,0.8283,0.819,0.8043,0.7903,0.7729,0.7528,0.7228,0.7208,0.7154,0.6985,0.6979,0.6979,0.6979,0.6979,0.6979,0.6979,0.6901,0.6693,0.6438,0.6142,0.5812,0.5524,0.5351,0.5309,0.5309,0.5309,0.5309,0.5309,0.5309,0.5309,0.5309,0.5309,0.5309,0.5309,0.0,-2.0702,-2.0919,-2.0685,-1.9771,0.0,0.0,0.0,0.0,0.0,0.0,0.0,0.0,0.0,0.0,0.0,-2.0326,-2.0348,-2.0252,-2.0329,0.0,0.0,-2.006,-1.9922,0.0,0.0,0.0,0.0,0.0,0.0,0.0,0.0,0.0,0.0,-1.4596,-1.4596,0.0,0.0,0.0,-1.594,-1.4424,-1.4764,0.0,0.0,-1.347,-1.3802,-1.3347,-1.3496,-1.3764,-1.3173,-1.2056,0.0,0.0,0.0,0.0,0.0,-0.4487,0.0,0.0,0.0,0.0,0.0,0.1336,0.0,0.2452,0.315,0.3686,0.3727,0.3833,0.3929,0.3947,0.4431,0.4819,0.4972,0.5734,0.6013,0.5215,0.6278,0.7188,0.733,0.7973,0.8477,0.8738,0.8557,0.841,0.8377,0.8096,0.7809,0.758,0.7527,0.7341,0.7081,0.7041,0.6979,0.6979,0.6979,0.6979,0.6979,0.6727,0.6478,0.6182,0.5852,0.5551,0.5309,0.5309,0.5309,0.5309,0.5309,0.5309,0.5309,0.5309,0.5309,0.5309,0.5309,0.5309,0.5309,-2.1929,-2.1414,-2.1212,-2.2104,0.0,0.0,0.0,0.0,0.0,0.0,0.0,0.0,0.0,0.0,0.0,0.0,0.0,-2.0589,0.0,0.0,-2.057,-1.9936,-1.9847,-1.9786,-1.9649,0.0,0.0,0.0,0.0,0.0,0.0,0.0,0.0,0.0,0.0,0.0,0.0,0.0,0.0,-1.4467,-1.3729,-1.3605,-1.3823,-1.3047,-1.2533,-1.2288,-1.2543,-1.247,-1.2155,-1.1601,-1.1201,-1.0538,0.0,0.0,0.0,-0.5034,0.0,0.0,0.0,0.0,0.0,0.0,0.1262,0.0,0.2938,0.3562,0.4053,0.455,0.4666,0.4698,0.4819,0.5119,0.5423,0.5582,0.624,0.6602,0.6326,0.6951,0.7439,0.7445,0.8021,0.8397,0.8457,0.8617,0.8624,0.839,0.8096,0.7855,0.7842,0.7602,0.7486,0.7426,0.7148,0.6979,0.6979,0.6979,0.6979,0.6979,0.6727,0.6478,0.6182,0.5852,0.5551,0.5309,0.5309,0.5309,0.5309,0.5309,0.5309,0.5309,0.5309,0.5309,0.5309,0.5309,0.5309,0.5309,-2.0825,-2.0541,-2.0608,-2.1403,0.0,0.0,0.0,0.0,0.0,0.0,0.0,0.0,0.0,0.0,0.0,0.0,0.0,0.0,0.0,0.0,-2.0646,-1.9847,-1.9738,-1.9669,-1.9596,-1.9499,0.0,0.0,0.0,0.0,0.0,0.0,0.0,0.0,0.0,0.0,0.0,0.0,-1.3243,-1.3264,-1.301,0.0,-1.3557,-1.2298,-1.1938,-1.2102,-1.1836,-1.1763,-1.1771,-1.1474,-1.1187,0.0,-0.9138,-0.809,-0.7183,0.0,-0.5072,-0.4077,0.0,0.0,0.0,0.0635,0.1573,0.0,0.0,0.3981,0.45,0.4714,0.4819,0.4963,0.5144,0.5536,0.5911,0.6143,0.6742,0.7117,0.7077,0.7419,0.7642,0.7527,0.8051,0.8427,0.8427,0.8637,0.8744,0.8604,0.845,0.8303,0.8163,0.8003,0.7822,0.752,0.7321,0.7174,0.7021,0.6979,0.6979,0.6979,0.658,0.6337,0.6176,0.5698,0.5418,0.5309,0.5309,0.5309,0.5309,0.5309,0.5309,0.5309,0.5309,0.5309,0.5309,0.5309,0.5309,0.5309,-1.9633,-1.9447,-1.9703,-2.0322,0.0,0.0,0.0,0.0,0.0,0.0,0.0,0.0,0.0,0.0,0.0,0.0,0.0,0.0,0.0,0.0,0.0,-1.9957,-1.9679,-1.9541,-1.9541,-1.938,0.0,0.0,0.0,0.0,0.0,0.0,0.0,0.0,0.0,0.0,0.0,0.0,0.0,-1.2365,0.0,-1.2818,-1.3301,-1.1535,-1.1356,-1.1982,-1.1169,-1.1282,-1.1756,-1.1566,-1.1284,-1.0829,-0.9825,-0.8804,0.0,0.0,0.0,0.0,0.0,0.0,0.0,0.0878,0.1775,0.2374,0.0,0.0,0.0,0.4893,0.5054,0.5222,0.5497,0.601,0.6447,0.6693,0.7209,0.7582,0.7607,0.7788,0.7754,0.7453,0.7916,0.829,0.829,0.8557,0.8744,0.8804,0.8758,0.8644,0.847,0.8404,0.8199,0.7701,0.7574,0.7348,0.7108,0.7054,0.6979,0.7014,0.6493,0.625,0.6176,0.5638,0.5337,0.5309,0.5309,0.5309,0.5309,0.5309,0.5309,0.5309,0.5309,0.5309,0.5309,0.5309,0.5309,0.5309,-2.0515,-1.9474,-1.8839,-2.024,0.0,0.0,0.0,0.0,0.0,0.0,0.0,0.0,0.0,0.0,0.0,0.0,0.0,0.0,-2.1706,0.0,0.0,0.0,-1.9721,-1.9335,-1.9335,-1.9305,-1.9064,0.0,0.0,0.0,0.0,0.0,0.0,0.0,-1.3399,0.0,0.0,0.0,-1.2685,0.0,-1.1884,-1.1686,0.0,-1.0631,-1.0428,-1.0544,-1.0428,-1.0992,-1.1675,0.0,-1.069,-1.0829,0.0,-0.907,-0.8374,-0.7328,0.0,0.0,0.0,-0.2249,-0.1374,0.0359,0.1222,0.2016,0.3377,0.0,0.4613,0.5769,0.0,0.6142,0.6422,0.0,0.0,0.7107,0.7517,0.7859,0.7953,0.7929,0.7673,0.7123,0.7609,0.7935,0.7935,0.825,0.853,0.8791,0.8571,0.8524,0.8744,0.8517,0.8393,0.8319,0.7795,0.7493,0.7459,0.7154,0.6979,0.6979,0.6693,0.6445,0.6182,0.5812,0.5524,0.5309,0.5309,0.5309,0.5309,0.5309,0.5309,0.5309,0.5309,0.5309,0.5309,0.5309,0.5309,0.5309,-1.9175,-1.8746,-1.8491,0.0,0.0,0.0,0.0,0.0,0.0,0.0,0.0,0.0,0.0,0.0,0.0,0.0,0.0,-2.244,-2.2484,0.0,0.0,0.0,-2.0345,-1.9923,-1.9772,-1.9465,-1.9148,0.0,-1.8171,0.0,0.0,0.0,0.0,0.0,-1.3238,0.0,-1.208,0.0,-1.2246,0.0,0.0,-1.1019,0.0,-1.04,-1.0283,-1.0283,-1.0283,-1.0582,-1.0878,0.0,-1.0428,0.0,0.0,0.0,0.0,-0.8211,0.0,0.0,0.0,-0.3004,-0.1851,0.0039,0.137,0.2494,0.3612,0.4484,0.5213,0.5801,0.0,0.0,0.0,0.0,0.0,0.0,0.7999,0.8126,0.7722,0.8047,0.8275,0.8013,0.7916,0.8014,0.8404,0.8404,0.849,0.8784,0.8537,0.8504,0.8791,0.8691,0.855,0.8427,0.8178,0.7869,0.7513,0.7341,0.7194,0.6979,0.6727,0.6526,0.6431,0.5925,0.5645,0.5524,0.5351,0.5309,0.5309,0.5309,0.5309,0.5309,0.5309,0.5309,0.5309,0.5309,0.5309,0.5309,-1.7721,0.0,0.0,0.0,0.0,0.0,0.0,0.0,0.0,0.0,0.0,0.0,-2.2521,-2.2807,0.0,0.0,-2.2994,-2.2749,-2.2752,0.0,-2.1693,0.0,-2.068,-2.0336,-1.9795,-1.9626,-1.9352,0.0,0.0,0.0,0.0,0.0,0.0,0.0,0.0,-1.2722,-1.1927,0.0,-1.1909,-1.1019,-1.1019,-1.0725,-1.0283,-1.0283,-1.0283,-1.0283,-1.0283,-1.0283,-1.0283,-1.0283,-1.0283,0.0,-1.0283,-0.9759,-0.9081,0.0,0.0,0.0,-0.4633,0.0,-0.2102,-0.0192,0.1281,0.2508,0.3583,0.4537,0.5307,0.563,0.5885,0.0,0.0,0.0,0.0,0.0,0.0,0.8379,0.7918,0.8358,0.8686,0.8527,0.8224,0.8194,0.8714,0.8396,0.825,0.8544,0.8163,0.8169,0.8671,0.8383,0.8227,0.8184,0.7942,0.7702,0.7431,0.727,0.7172,0.7141,0.6847,0.6667,0.6573,0.6065,0.5792,0.5698,0.5404,0.5309,0.5309,0.5309,0.5309,0.5309,0.5309,0.5309,0.5309,0.5309,0.5309,0.5309,-1.6841,-1.6841,0.0,0.0,0.0,0.0,0.0,0.0,0.0,0.0,0.0,0.0,0.0,0.0,-2.2426,0.0,-2.2012,-2.1725,-2.21,-2.1326,-2.0548,-1.9886,-2.0463,-2.0243,-1.9056,-1.9723,-1.9723,0.0,0.0,0.0,0.0,0.0,0.0,0.0,0.0,-1.2931,-1.2484,-1.2496,-1.1909,-1.1019,-1.1019,-1.0725,-1.0283,0.0,-1.0283,-1.0283,-1.0283,0.0,0.0,-1.0283,-1.0283,0.0,0.0,0.0,0.0,0.0,0.0,0.0,0.0,0.0,0.0,-0.0363,0.0698,0.1705,0.3012,0.3719,0.4356,0.5482,0.5718,0.5951,0.0,0.0,0.0,0.0,0.0,0.0,0.0,0.8865,0.8601,0.8071,0.8177,0.8416,0.8655,0.799,0.7622,0.7888,0.7248,0.7309,0.837,0.7325,0.7015,0.7711,0.6774,0.66,0.7318,0.6707,0.6769,0.7493,0.7154,0.686,0.658,0.6317,0.6021,0.5698,0.5404,0.5309,0.5309,0.5309,0.5309,0.5309,0.5309,0.5309,0.5309,0.5309,0.5309,0.5309,-1.727,0.0,0.0,0.0,0.0,0.0,0.0,-1.8475,0.0,-2.0369,-2.0577,-2.1101,-2.2186,-2.2032,-2.2051,-2.2643,-2.2287,-2.2255,-2.2794,-2.2341,-2.1749,-2.1004,-2.1392,-2.0855,-1.9222,-1.9787,-1.9649,0.0,0.0,0.0,0.0,0.0,0.0,0.0,0.0,-1.3229,0.0,0.0,0.0,0.0,0.0,-1.0428,-1.0283,0.0,-1.0079,-0.9804,-1.0157,-1.0079,0.0,-1.0166,-1.0283,-1.0196,-0.9707,-0.9059,-0.8351,-0.7823,-0.7078,-0.6119,0.0,0.0,-0.2866,-0.1406,-0.0311,0.0694,0.1749,0.2537,0.3347,0.4378,0.4948,0.5663,0.0,0.0,0.0,0.0,0.0,0.0,0.0,0.0,0.9832,0.9989,0.9312,0.8787,0.8712,0.7629,0.704,0.7367,0.6701,0.6515,0.7064,0.6786,0.6696,0.6966,0.662,0.6718,0.7296,0.6881,0.6951,0.7506,0.7161,0.6974,0.686,0.6418,0.6135,0.6014,0.5524,0.5309,0.5309,0.5309,0.5309,0.5309,0.5309,0.5309,0.5309,0.5309,0.5309,0.5309,-1.7319,-1.6949,0.0,0.0,0.0,0.0,0.0,-1.8652,-1.956,-2.0346,-2.051,-2.0923,-2.1764,-2.1584,-2.1625,-2.2252,-2.2141,-2.218,-2.2474,-2.2539,-2.1979,-2.0697,-2.1333,-2.0842,-1.8949,-1.9494,-1.9422,0.0,0.0,-1.8035,0.0,0.0,0.0,0.0,0.0,-1.3387,-1.2473,-1.1993,-1.1505,0.0,0.0,-1.0283,0.0,0.0,-0.9961,-0.9518,0.0,-0.9597,-0.9469,-1.0079,-0.9463,-0.8383,-0.7881,-0.8149,-0.8451,-0.7496,-0.6837,-0.6096,-0.476,-0.3972,0.0,-0.1857,-0.0852,0.0,0.0889,0.1646,0.2397,0.3317,0.3998,0.4818,0.0,0.0,0.0,0.0,0.0,0.0,0.0,0.9627,1.01,1.0226,0.9655,0.9003,0.8446,0.7224,0.6451,0.6476,0.5908,0.5761,0.6228,0.593,0.5864,0.6199,0.5987,0.6138,0.6634,0.6316,0.6516,0.7236,0.6911,0.681,0.6959,0.6458,0.6196,0.6162,0.5571,0.5309,0.5309,0.5309,0.5309,0.5309,0.5309,0.5309,0.5309,0.5309,0.5309,0.5309,-1.7011,-1.5974,-1.5372,0.0,-1.6171,-1.6535,-1.754,-1.8034,-1.8779,-2.011,-2.0066,-2.0177,-2.0927,-2.0959,-2.1118,-2.1521,-2.1582,-2.145,-2.1157,-2.1826,-2.1218,-1.8947,-2.0331,-2.0203,-1.8197,-1.8914,-1.9059,0.0,0.0,0.0,0.0,0.0,0.0,0.0,-1.4084,0.0,-1.2508,-1.1993,-1.1468,-1.0943,-1.0467,-1.0283,-1.0283,-1.0166,-0.9779,-0.9232,-0.8827,-0.8776,-0.9059,-0.9982,-0.8096,-0.5302,-0.4962,-0.6436,-0.806,-0.7023,-0.6061,-0.5119,-0.428,-0.3677,-0.3009,-0.1694,-0.1067,0.0,0.0,0.0,0.1451,0.2332,0.2899,0.3496,0.0,0.0,0.0,0.0,0.0,0.0,0.0,0.0,0.9486,0.9072,0.9198,0.8896,0.7847,0.6723,0.5862,0.5303,0.4893,0.5047,0.5868,0.4833,0.4581,0.5429,0.4842,0.4842,0.5487,0.5081,0.5531,0.6775,0.6375,0.6477,0.6959,0.6458,0.6196,0.6162,0.5571,0.5309,0.5309,0.5309,0.5309,0.5309,0.5309,0.5309,0.5309,0.5309,0.5309,0.5309,-1.7489,-1.6698,-1.6304,-1.6747,-1.7171,-1.7525,-1.7803,-1.8683,-1.955,-2.02,-1.9986,-2.0058,-2.091,-2.0682,-2.0649,-2.1118,-2.115,-2.0922,-2.0345,-2.0722,-2.0108,-1.8225,-1.9536,-1.9445,-1.7572,-1.8699,-1.8866,-1.8014,0.0,0.0,-1.6885,0.0,0.0,0.0,0.0,0.0,-1.2978,-1.2138,-1.1292,-1.0467,-1.0361,-1.0283,-1.0118,0.0,-0.7176,-0.6442,-0.812,-0.7083,-0.5506,-0.9083,-0.9687,-0.8066,-0.293,-0.1739,-0.2515,-0.3944,-0.4809,-0.5252,-0.5023,-0.4237,-0.3261,-0.2537,-0.2272,-0.204,0.0,0.0,0.0,0.0,0.0,0.0,0.0,0.0,0.0,0.0,0.0,0.0,0.0,0.0,1.0532,1.0412,0.9003,0.7732,0.6918,0.5536,0.467,0.4639,0.4369,0.427,0.4508,0.4474,0.4532,0.4732,0.457,0.4842,0.5487,0.5081,0.5531,0.6775,0.6375,0.6477,0.6959,0.6458,0.6196,0.6162,0.5571,0.5309,0.5309,0.5309,0.5309,0.5309,0.5309,0.5309,0.5309,0.5309,0.5309,0.5309,-1.7591,-1.6925,-1.6517,-1.6494,-1.7122,-1.7626,-1.7585,-1.8378,-1.9192,-1.9636,-1.9233,-1.9176,-1.9929,-1.95,-1.9348,-1.9815,-1.9878,-1.9796,-1.9592,-1.9747,-1.926,-1.7969,-1.8657,-1.8449,-1.7109,-1.7536,-1.7646,-1.7361,0.0,0.0,-1.6123,0.0,0.0,0.0,0.0,-1.329,-1.2508,-1.1542,-1.0802,-1.0283,-0.9952,-0.9217,0.0,-0.6212,-0.5676,-0.5834,-0.516,-0.4948,-0.5114,-0.5616,-0.5791,-0.5107,-0.1225,0.0,-0.0259,-0.1587,-0.2452,-0.3155,-0.3942,-0.3678,-0.3069,-0.2773,-0.2712,-0.2646,-0.238,-0.1607,-0.0767,0.0,0.0764,0.176,0.0,0.0,0.0,0.0,0.0,0.0,0.0,0.0,0.9787,0.937,0.7494,0.6003,0.5454,0.4473,0.3814,0.3672,0.3828,0.3948,0.4016,0.4243,0.4399,0.4515,0.4519,0.4648,0.495,0.4641,0.4954,0.5861,0.5559,0.5867,0.6628,0.6072,0.5931,0.6162,0.5571,0.5309,0.5309,0.5309,0.5309,0.5309,0.5309,0.5309,0.5309,0.5309,0.5309,0.5309,-1.7156,-1.6744,-1.6316,-1.5799,-1.6545,-1.714,-1.7056,-1.7644,-1.8221,-1.8627,-1.8178,-1.7964,-1.8362,-1.7926,-1.7779,-1.8207,-1.8285,-1.8436,-1.8677,-1.8763,-1.8415,-1.7645,-1.7711,-1.7423,-1.6753,-1.6216,-1.6224,-1.6789,0.0,0.0,0.0,0.0,0.0,0.0,0.0,0.0,0.0,-1.0802,-1.0322,-1.0118,-0.9428,-0.7878,-0.5864,-0.4435,-0.5173,-0.6447,-0.2391,-0.3134,-0.5518,-0.1917,-0.0383,0.0,0.0,0.0,0.0,0.0,0.0,-0.0394,-0.2202,-0.2692,-0.2673,-0.261,-0.2646,-0.2679,-0.2613,-0.1942,-0.1204,-0.0836,0.0,0.0941,0.1744,0.0,0.0,0.0,0.0,0.0,0.0,0.8975,0.8342,0.743,0.5566,0.0,0.3764,0.3509,0.3246,0.2865,0.3453,0.388,0.4012,0.0,0.4304,0.4429,0.4508,0.4402,0.4224,0.4056,0.4244,0.4709,0.4581,0.5072,0.6114,0.5632,0.5689,0.6102,0.5551,0.5309,0.5309,0.5309,0.5309,0.5309,0.5309,0.5309,0.5309,0.5309,0.5309,0.5309,-1.545,-1.5941,0.0,0.0,-1.6164,-1.6642,-1.6625,-1.745,-1.7965,-1.7618,-1.7488,-1.7273,-1.6909,-1.7078,-1.7257,-1.7324,-1.7635,-1.7603,-1.7137,-1.742,-1.7184,-1.6209,-1.6716,-1.6813,-1.6409,-1.6533,-1.6687,-1.6789,0.0,0.0,0.0,0.0,0.0,0.0,0.0,0.0,-1.1774,-1.1132,0.0,-0.96,-0.8954,-0.8114,-0.711,-0.63,-0.6386,-0.6914,-0.6086,-0.3805,-0.155,-0.3669,-0.2433,0.0,0.0,0.0,0.0,0.0,0.0,-0.0397,-0.2215,-0.271,-0.2579,-0.209,-0.2344,-0.2613,-0.2214,-0.1709,-0.1271,-0.1204,-0.0201,0.084,0.134,0.0,0.0,0.0,0.0,0.0,0.9511,0.9067,0.8331,0.7616,0.5547,0.3633,0.2314,0.2582,0.3049,0.3552,0.3845,0.3992,0.4019,0.0,0.4207,0.0,0.4399,0.4505,0.0,0.0,0.4302,0.4853,0.5051,0.5381,0.5809,0.5971,0.5947,0.5772,0.5431,0.5309,0.5309,0.5309,0.5309,0.5309,0.5309,0.5309,0.5309,0.5309,0.5309,0.5309,-1.5317,0.0,0.0,0.0,-1.5377,-1.5484,-1.5298,-1.5907,-1.6491,-1.6817,-1.6596,-1.625,-1.6,-1.5853,-1.5736,-1.5736,-1.5931,-1.5912,-1.5564,-1.5752,-1.5636,-1.5149,-1.5448,-1.5521,-1.536,-1.5195,-1.5265,-1.5607,0.0,0.0,0.0,0.0,0.0,0.0,0.0,-1.1836,0.0,0.0,0.0,-0.9412,-0.8577,-0.8016,-0.7621,-0.6982,-0.686,-0.6994,-0.6794,-0.475,-0.2178,-0.2452,-0.234,-0.183,-0.044,0.0,0.0,0.0,-0.067,-0.1479,-0.1876,-0.2093,-0.2178,-0.1945,-0.2114,-0.2211,-0.1742,-0.1473,-0.1171,-0.0735,0.0067,0.084,0.1238,0.249,0.0,0.0,0.6062,0.7507,0.8244,0.8262,0.7778,0.6654,0.4644,0.3057,0.2235,0.1979,0.1981,0.2253,0.3005,0.3317,0.2975,0.3499,0.3764,0.0,0.0,0.0,0.4351,0.0,0.4126,0.433,0.4398,0.4785,0.547,0.5342,0.5517,0.5954,0.5504,0.5309,0.5309,0.5309,0.5309,0.5309,0.5309,0.5309,0.5309,0.5309,0.5309,0.5309,-1.5219,-1.4926,0.0,-1.4514,-1.4528,-1.4474,-1.4136,-1.4332,-1.4832,-1.5698,-1.5464,-1.5151,-1.504,-1.4629,-1.4374,-1.4374,-1.4438,-1.4501,-1.4501,-1.4501,-1.4501,-1.4501,-1.4501,-1.4501,-1.4501,-1.397,-1.397,-1.4501,-1.3308,0.0,0.0,0.0,0.0,0.0,0.0,0.0,0.0,0.0,-0.9359,-0.907,-0.8148,-0.7725,-0.7561,-0.7093,-0.6927,-0.6887,-0.6606,-0.5699,-0.425,-0.1709,-0.187,-0.2876,-0.1335,-0.046,0.0,0.0,-0.1016,-0.2013,-0.1455,-0.1497,-0.1709,-0.1711,-0.1778,-0.1742,-0.1273,-0.1173,-0.0937,-0.0167,0.0536,0.1111,0.1563,0.2615,0.0,0.0,0.5517,0.69,0.6779,0.7075,0.6763,0.5334,0.364,0.2381,0.1881,0.1339,0.0815,0.0398,0.1814,0.249,0.2042,0.2681,0.3193,0.3352,0.0,0.4229,0.4197,0.0,0.3941,0.3788,0.3778,0.4208,0.5009,0.4626,0.4915,0.5736,0.524,0.5087,0.5151,0.5246,0.5309,0.5309,0.5309,0.5309,0.5309,0.5309,0.5309,0.5309,-1.4097,0.0,-1.4514,-1.3956,-1.4025,-1.4124,-1.4123,-1.378,-1.3559,-1.3598,-1.3952,-1.4018,-1.3474,-1.3741,-1.3967,-1.3967,-1.4278,-1.4501,-1.4501,-1.4501,-1.4501,-1.4501,-1.4501,-1.4501,-1.4501,-1.4446,-1.4446,-1.4501,-1.3778,-1.3071,0.0,0.0,0.0,0.0,0.0,0.0,0.0,-0.9707,-0.8958,-0.8005,-0.7598,-0.7165,-0.6713,-0.6673,-0.6627,-0.6613,-0.6532,-0.6451,-0.6081,-0.4234,-0.2174,-0.0753,-0.2932,-0.1951,0.0,0.0,-0.012,-0.0404,-0.1119,-0.1338,-0.1273,-0.0907,-0.1106,-0.1273,-0.084,-0.0773,-0.0604,-0.01,0.1003,0.2045,0.2647,0.2784,0.2981,0.0,0.0,0.5559,0.5957,0.5829,0.5292,0.4177,0.3,0.1544,-0.0223,0.0271,0.0161,-0.1262,0.0799,0.207,0.1998,0.2077,0.2425,0.3132,0.3289,0.3678,0.4197,0.4046,0.3941,0.3788,0.417,0.426,0.414,0.4437,0.4524,0.4362,0.4189,0.4344,0.4698,0.5119,0.5309,0.5309,0.5309,0.5309,0.5309,0.5309,0.5309,0.5309,-1.3862,-1.3695,-1.3433,-1.2933,-1.2914,-1.2785,-1.2267,-1.2265,-1.2258,-1.1959,-1.2918,-1.3423,-1.2851,-1.2953,-1.3045,-1.3045,-1.2951,-1.2869,-1.2869,-1.2869,-1.2869,-1.2869,-1.3157,-1.3306,-1.3306,-1.3589,-1.3589,-1.3306,-1.3023,-1.2596,-1.1978,-1.1733,-1.1201,-1.0493,0.0,-1.007,-0.9253,-0.8748,-0.8275,-0.7863,-0.7339,-0.7045,-0.6847,-0.6847,-0.6847,-0.68,-0.6451,-0.6142,-0.5726,-0.4441,-0.3399,-0.2517,-0.1819,-0.1226,-0.0681,-0.0155,0.0,-0.0076,-0.0422,-0.0795,-0.1008,-0.0773,-0.0807,-0.0839,-0.0369,-0.0504,-0.0403,0.0568,0.1638,0.2499,0.2727,0.2798,0.2944,0.3343,0.0,0.4916,0.4777,0.4962,0.4609,0.3331,0.2062,0.087,-0.019,-0.0609,-0.1078,-0.1669,-0.0138,0.0658,0.0285,0.1013,0.1787,0.2538,0.0,0.3599,0.4194,0.4046,0.3941,0.3788,0.3864,0.4014,0.4231,0.4252,0.4376,0.4611,0.4444,0.4602,0.5023,0.5214,0.5309,0.5309,0.5309,0.5309,0.5309,0.5309,0.5309,0.5309,-1.2986,-1.2725,-1.2377,-1.1762,-1.1547,-1.1266,-1.0765,-1.0872,-1.0994,-1.0805,-1.1866,-1.2531,-1.2329,-1.2282,-1.2282,-1.2282,-1.1993,-1.1811,-1.1811,-1.1811,-1.1811,-1.1811,-1.2102,-1.2282,-1.2282,-1.2615,-1.2615,-1.2282,-1.2282,-1.2029,-1.1542,-1.1282,-1.0733,-0.9992,-0.9836,-0.9293,-0.8439,-0.8077,-0.7787,-0.7614,-0.7189,-0.6894,-0.6768,-0.6768,-0.6768,-0.6661,-0.6026,-0.5711,-0.5413,-0.4312,-0.4053,-0.3816,-0.1513,-0.0851,-0.085,-0.049,-0.058,-0.0719,-0.0352,-0.0579,-0.0841,-0.0571,-0.0504,-0.0401,-0.0066,-0.0266,-0.0168,0.1037,0.2042,0.2712,0.2712,0.2768,0.2909,0.3088,0.0,0.0,0.3832,0.4128,0.3898,0.2639,0.1381,0.0344,-0.039,-0.1408,-0.2014,-0.2009,-0.1068,-0.0628,-0.0949,0.0146,0.1203,0.0,0.0,0.0,0.413,0.4029,0.3877,0.3727,0.3629,0.3796,0.4172,0.4081,0.4229,0.4541,0.4688,0.4942,0.5242,0.5372,0.5404,0.5404,0.5404,0.5357,0.5309,0.5309,0.5309,0.5309,-1.1124,-1.1366,-1.1492,-1.0584,-1.0034,-0.9804,-1.0076,-0.9772,-0.9725,-1.0244,-1.0725,-1.1207,-1.1737,-1.1811,-1.1811,-1.1811,-1.1811,-1.1811,-1.1811,-1.1811,-1.1811,-1.1811,-1.1811,-1.1811,-1.1811,-1.1811,-1.1811,-1.1811,-1.1811,-1.1542,-1.0981,-0.9981,-0.9518,-0.9478,-0.8958,-0.8398,-0.7919,-0.7919,-0.7572,-0.7021,-0.7021,-0.6689,-0.6227,-0.6227,-0.6227,-0.6107,-0.5219,-0.5262,-0.5505,-0.422,-0.3809,-0.3657,-0.2918,-0.1456,-0.0185,-0.1039,-0.195,-0.2419,-0.12,-0.0905,-0.0739,-0.0168,0.0,0.0,0.0,0.0,0.0235,0.1104,0.2042,0.2712,0.2712,0.2716,0.2716,0.2712,0.0,0.0,0.3323,0.3327,0.2985,0.2108,0.1042,-0.011,-0.1441,-0.2114,-0.2476,-0.2511,-0.1931,-0.144,-0.1138,0.0,0.0,0.2168,0.2087,0.0,0.3976,0.387,0.3724,0.3581,0.3581,0.3626,0.3619,0.4005,0.4004,0.3681,0.4662,0.5085,0.512,0.5533,0.5711,0.5711,0.5711,0.5531,0.5309,0.5309,0.5309,0.5309,-1.0864,-1.0965,-1.0871,-1.0059,-0.9814,-0.9578,-0.919,-0.9035,-0.9159,-0.9677,-0.9873,-1.0176,-1.0725,-1.1057,-1.1244,-1.1244,-1.0954,-1.0764,-1.0764,-1.0764,-1.0764,-1.0764,-1.1094,-1.1244,-1.1244,-1.1627,-1.1627,-1.1244,0.0,-1.0829,-0.9981,-0.927,-0.8756,-0.8398,-0.8234,-0.7821,-0.7273,-0.7273,-0.7189,-0.6979,-0.6605,-0.6349,-0.6136,-0.5744,-0.5567,-0.554,-0.5055,-0.4817,-0.4562,-0.3884,-0.3488,-0.3195,-0.2812,-0.2314,-0.1764,-0.1399,-0.1506,-0.1607,-0.1041,-0.0605,-0.0235,-0.0034,0.0,0.0,0.0,0.0232,0.0638,0.1171,0.1809,0.2314,0.2646,0.2712,0.2712,0.2712,0.2808,0.0,0.2474,0.2408,0.2081,0.1226,0.0448,-0.0422,-0.1485,-0.2234,-0.2616,-0.2637,-0.2063,-0.1523,0.0,0.0,0.0,0.0,0.2034,0.0,0.3863,0.3816,0.3721,0.3581,0.3581,0.3796,0.4128,0.4169,0.4503,0.5033,0.5282,0.5541,0.5868,0.5983,0.5892,0.5731,0.5932,0.5746,0.5336,0.5504,0.5451,0.5309,-1.0167,-1.016,-1.0,-0.9159,-0.8952,-0.8772,-0.8437,-0.8398,-0.8594,-0.9119,-0.9199,-0.9319,-0.9677,-0.9972,-1.0283,-1.0687,-1.0467,-1.0283,-1.0283,-1.0118,-1.0,-1.0,-1.0099,-1.0118,-1.0118,-1.0456,0.0,-1.0118,-1.0118,-0.9815,-0.9199,-0.8635,-0.8234,-0.787,-0.7663,-0.7363,-0.6979,-0.6979,-0.6894,-0.6683,-0.6349,-0.5916,-0.548,-0.5087,-0.4909,-0.4829,-0.4454,-0.4243,-0.4068,-0.3568,-0.3239,-0.2957,-0.2812,-0.2592,-0.2281,-0.1933,-0.1652,-0.144,-0.1141,-0.0671,-0.0235,-0.0034,0.0,0.0,0.0,0.0358,0.0766,0.1031,0.1582,0.2093,0.2371,0.258,0.2712,0.2712,0.2712,0.2547,0.2081,0.2014,0.169,0.0816,0.0154,-0.0515,-0.1274,-0.192,-0.2203,0.0,0.0,0.0,0.0,0.0,0.0871,0.1968,0.2163,0.2748,0.3792,0.3737,0.367,0.3581,0.3581,0.388,0.4387,0.4533,0.5019,0.5705,0.5847,0.6085,0.6357,0.6357,0.6243,0.6052,0.6162,0.59,0.5451,0.5524,0.5438,0.5309,-0.9054,-0.9061,-0.9043,-0.8072,-0.7675,-0.7588,-0.7797,-0.7829,-0.8036,-0.8553,-0.8643,-0.8675,-0.8675,-0.8716,-0.9119,-1.0079,-1.0205,-1.0205,-1.0205,-0.9716,-0.9439,-0.9439,-0.8958,-0.8716,-0.8716,-0.8716,-0.8716,-0.8716,-0.8675,-0.8643,-0.8635,-0.8077,-0.7829,-0.7829,-0.7238,-0.6979,-0.6979,-0.6979,-0.6647,-0.6179,-0.6093,-0.5394,-0.4387,-0.4347,-0.4282,-0.4086,-0.3513,-0.357,-0.3842,-0.326,-0.3049,-0.2968,-0.2874,-0.2376,-0.1911,-0.248,-0.2211,-0.1642,-0.134,-0.0972,-0.0538,-0.0101,0.0,0.0,0.0,0.034,0.0675,0.0691,0.1351,0.192,0.1961,0.2347,0.2646,0.2646,0.2646,0.248,0.2014,0.1921,0.1612,0.0735,0.0157,0.0,-0.0843,-0.1291,-0.1387,0.0,0.0,0.0,0.0,0.0,0.133,0.2038,0.2454,0.3067,0.3778,0.3646,0.3581,0.3581,0.3568,0.3869,0.4434,0.5043,0.545,0.578,0.6381,0.662,0.662,0.662,0.6593,0.6533,0.6324,0.6014,0.5651,0.5404,0.5329,0.5309,-0.8817,-0.8724,-0.8468,-0.7983,-0.7675,-0.7456,-0.7237,-0.7196,-0.7447,-0.8028,-0.8077,-0.8234,-0.8635,-0.8716,-0.8797,-0.9039,-0.9079,-0.9079,-0.9079,-0.8958,-0.8878,-0.8878,-0.8756,-0.8716,-0.8716,-0.8716,-0.8716,-0.8716,-0.8275,-0.8077,-0.8077,-0.7489,-0.7196,-0.7189,-0.7063,-0.6979,-0.6979,-0.6556,-0.6307,-0.6136,-0.5216,-0.4648,-0.4347,-0.3965,-0.3695,-0.3558,-0.3389,-0.3289,-0.3295,-0.3032,-0.2944,-0.2831,-0.2361,-0.2102,-0.1981,-0.2114,-0.1577,-0.0941,-0.0874,-0.0504,-0.0134,-0.0034,0.0,0.0,0.0,0.0099,0.026,0.0635,0.0865,0.109,0.1403,0.1845,0.2181,0.2181,0.2181,0.2011,0.154,0.1217,0.0806,0.0234,0.004,-0.0254,-0.0846,-0.0989,-0.1021,0.0,0.0,0.0132,0.0882,0.1787,0.2336,0.2537,0.2623,0.2988,0.3629,0.3598,0.3581,0.3578,0.3459,0.3712,0.4434,0.5043,0.5578,0.6133,0.6671,0.6921,0.6921,0.6921,0.666,0.631,0.6465,0.6032,0.5404,0.5551,0.5471,0.5309,-0.8377,-0.8163,-0.7909,-0.7749,-0.7468,-0.7208,-0.7047,-0.6979,-0.7105,-0.7447,-0.7489,-0.7614,-0.7897,-0.7931,-0.7931,-0.7931,-0.839,-0.8716,-0.8716,-0.848,-0.8316,-0.8316,-0.8062,-0.7931,-0.7931,-0.7931,-0.7931,-0.7931,-0.7614,-0.7489,-0.7489,-0.7147,-0.6979,-0.6979,-0.6979,-0.6852,-0.6598,-0.6307,-0.5873,-0.5308,-0.4648,-0.4264,-0.4001,-0.3626,-0.3378,-0.3239,-0.3171,-0.3011,-0.2874,-0.2583,-0.2492,-0.2408,-0.1861,-0.1542,-0.141,-0.141,-0.1075,-0.0706,-0.0706,-0.037,0.0,0.0,0.0,0.0,0.0,0.0,0.0065,0.0334,0.056,0.0815,0.1233,0.1676,0.1996,0.201,0.1988,0.1757,0.111,0.0826,0.0537,0.004,0.0,-0.0128,-0.0447,-0.0483,-0.0477,-0.0479,0.0088,0.0,0.1184,0.2144,0.269,0.2719,0.2987,0.3262,0.3581,0.3581,0.3581,0.3578,0.3493,0.3917,0.4826,0.487,0.5418,0.6375,0.6416,0.6504,0.6627,0.6627,0.6478,0.6196,0.6179,0.5898,0.5484,0.5504,0.5418,0.5309,-0.7672,-0.7491,-0.7379,-0.7379,-0.7091,-0.6894,-0.6979,-0.6979,-0.6979,-0.6979,-0.6979,-0.6979,-0.6979,-0.6979,-0.6979,-0.6979,-0.7889,-0.8431,-0.8431,-0.8028,-0.7746,-0.7746,-0.728,-0.6979,-0.6979,-0.6979,-0.6979,-0.6979,-0.6979,-0.6979,-0.6979,-0.6979,-0.6979,-0.6979,-0.6979,-0.6725,-0.6307,-0.6136,-0.548,-0.4517,-0.4347,-0.4008,-0.3561,-0.3409,-0.3212,-0.31,-0.2961,-0.2777,-0.2547,-0.2147,-0.1947,-0.1811,-0.134,-0.0973,-0.0672,-0.0605,-0.0605,-0.0605,-0.0605,-0.0303,0.0,0.0,0.0,0.0,0.0,0.0,0.0,0.0,0.0323,0.0696,0.103,0.1475,0.1795,0.1802,0.1821,0.1542,0.0805,0.0,0.0482,0.0168,0.0127,0.0172,0.0268,0.0268,0.0262,0.0251,0.0817,0.1313,0.1672,0.2386,0.2754,0.2754,0.3265,0.3534,0.351,0.351,0.352,0.3544,0.3608,0.4176,0.5125,0.4676,0.5152,0.6343,0.5869,0.5841,0.6115,0.6159,0.6169,0.6102,0.5812,0.5685,0.5618,0.5371,0.5309,0.5309,-0.6512,-0.6591,-0.6742,-0.6742,-0.6524,-0.6477,-0.6937,-0.6979,-0.6979,-0.6979,-0.6979,-0.6979,-0.6979,-0.6979,-0.6979,-0.6979,-0.7147,-0.7273,-0.7273,-0.7189,-0.7147,-0.7147,-0.7063,-0.6979,-0.6979,-0.6979,-0.6979,-0.6979,-0.6979,-0.6979,-0.6979,-0.6979,-0.6979,-0.6979,-0.6979,-0.6937,-0.681,-0.5867,-0.5346,-0.5091,-0.4096,-0.3667,-0.3561,-0.3451,-0.3256,-0.31,-0.2961,-0.2568,-0.2114,-0.2014,-0.1742,-0.134,-0.0906,-0.0739,-0.0639,-0.0235,-0.0101,-0.0101,-0.0101,-0.0067,0.0,0.0,0.0,0.0,0.0,0.0,0.0,0.0,0.0067,0.0133,0.0201,0.0571,0.0897,0.0895,0.0888,0.086,0.0724,0.0,0.025,0.0713,0.0781,0.0977,0.1472,0.1512,0.1494,0.135,0.1911,0.2221,0.2095,0.271,0.303,0.303,0.3235,0.3283,0.3191,0.3191,0.3216,0.334,0.3618,0.4061,0.4552,0.4548,0.4857,0.5321,0.5473,0.5551,0.5627,0.6042,0.6041,0.5778,0.5731,0.5564,0.5344,0.5329,0.5309,0.5309,-0.5727,-0.5974,-0.6167,-0.5947,-0.5983,-0.6039,-0.6076,-0.6076,-0.6209,-0.6513,-0.6562,-0.6683,-0.6979,-0.6979,-0.6979,-0.6979,-0.6979,-0.6979,-0.6979,-0.6979,-0.6979,-0.6979,-0.6979,-0.6979,-0.6979,-0.6979,-0.6979,-0.6979,-0.6979,-0.6979,-0.6979,-0.6979,-0.6979,-0.6979,-0.6979,-0.6852,-0.652,-0.5647,-0.513,-0.4739,-0.3924,-0.3531,-0.3439,-0.3286,-0.3134,-0.2951,-0.2557,-0.223,-0.1914,-0.1444,-0.1141,-0.0906,-0.047,-0.0336,-0.0269,-0.0067,0.0,0.0,0.0,0.0,0.0,0.0,0.0202,0.037,0.037,0.0536,0.0704,0.0704,0.0704,0.0771,0.104,0.104,0.1022,0.1037,0.0852,0.0731,0.0803,0.0633,0.0696,0.1302,0.1342,0.1384,0.1685,0.1577,0.152,0.145,0.2083,0.2397,0.2107,0.2805,0.3132,0.3012,0.3108,0.3152,0.3082,0.3082,0.3115,0.3185,0.3349,0.3703,0.4175,0.3918,0.4286,0.5096,0.4875,0.5039,0.5405,0.5617,0.5638,0.5478,0.5478,0.5397,0.5309,0.5309,0.5309,0.5309,-0.4918,-0.526,-0.547,-0.513,-0.5341,-0.5513,-0.5346,-0.5303,-0.548,-0.5916,-0.6093,-0.6349,-0.6774,-0.6937,-0.6979,-0.6979,-0.6979,-0.6979,-0.6979,-0.6979,-0.6979,-0.6979,-0.6979,-0.6979,-0.6979,-0.6979,-0.6979,-0.6979,-0.6979,-0.6979,-0.6979,-0.6979,-0.6979,-0.6979,-0.6979,-0.6774,-0.6349,-0.561,-0.5043,-0.4561,-0.384,-0.3456,-0.3286,-0.3102,-0.3005,-0.2854,-0.2327,-0.2014,-0.1744,-0.1074,-0.0706,-0.0471,-0.0101,0.0,0.0,0.0,0.0,0.0,0.0,0.0,0.0034,0.0134,0.0437,0.0739,0.0807,0.1072,0.1305,0.1305,0.1353,0.1467,0.1846,0.1621,0.1401,0.1401,0.0,0.1,0.1105,0.1122,0.1336,0.1894,0.1883,0.1838,0.1941,0.1798,0.1796,0.1911,0.2382,0.2595,0.2475,0.294,0.3088,0.2862,0.2995,0.3052,0.3018,0.3052,0.3073,0.3073,0.3145,0.3505,0.3995,0.3534,0.3921,0.4911,0.4498,0.461,0.5151,0.5246,0.5309,0.5309,0.5309,0.5309,0.5309,0.5309,0.5309,0.5309,-0.384,-0.4136,-0.4517,-0.4474,-0.4474,-0.4691,-0.5216,-0.5303,-0.5308,-0.5351,-0.5873,-0.6221,-0.6264,-0.6683,-0.6979,-0.6979,-0.6979,-0.6979,-0.6979,-0.6979,-0.6979,-0.6979,-0.6979,-0.6979,-0.6979,-0.6979,-0.6979,-0.6979,-0.6979,-0.6979,-0.6979,-0.6979,-0.6979,-0.6979,-0.6979,-0.6979,-0.6852,-0.5776,-0.5265,-0.5115,-0.3837,-0.3319,-0.3276,-0.2995,-0.2917,-0.289,-0.2703,-0.2075,-0.1338,-0.1273,-0.0704,-0.0034,0.0,0.0,0.0,0.0,0.0,0.0,0.0,0.0,0.0101,0.0538,0.0672,0.0807,0.1173,0.1271,0.1305,0.1305,0.1464,0.1589,0.1625,0.1685,0.1747,0.1773,0.0,0.0,0.1715,0.1732,0.1892,0.241,0.2435,0.2596,0.2952,0.2969,0.3194,0.3766,0.332,0.3278,0.3826,0.3257,0.2866,0.2703,0.2846,0.2856,0.2747,0.2856,0.2924,0.2924,0.3349,0.372,0.3991,0.395,0.4106,0.4447,0.4532,0.4619,0.4698,0.5119,0.5309,0.5309,0.5309,0.5309,0.5309,0.5309,0.5309,0.5309,-0.3622,-0.3751,-0.3924,-0.3924,-0.3924,-0.3968,-0.4228,-0.4228,-0.436,-0.4696,-0.5265,-0.5787,-0.6136,-0.6683,-0.6979,-0.6979,-0.6979,-0.6979,-0.6979,-0.6979,-0.6979,-0.6979,-0.6979,-0.6979,-0.6979,-0.6979,-0.6979,-0.6979,-0.6979,-0.6979,-0.6979,-0.684,-0.6754,-0.6754,-0.6754,-0.6754,-0.6673,-0.5633,-0.5178,-0.5075,-0.3706,-0.3115,-0.3025,-0.2951,-0.2849,-0.2727,-0.2399,-0.1842,-0.1273,-0.1007,-0.0504,0.0,0.0,0.0,0.0,0.0,0.0,0.0,0.0,0.0,0.0101,0.0571,0.0873,0.1173,0.1642,0.1942,0.2197,0.2275,0.2365,0.2421,0.2529,0.2353,0.2233,0.2253,0.0,0.1922,0.231,0.2341,0.27,0.3566,0.3605,0.3767,0.4293,0.4259,0.4304,0.4537,0.4,0.3721,0.3862,0.3193,0.274,0.2716,0.3,0.3004,0.2712,0.3205,0.3341,0.3166,0.38,0.4047,0.3994,0.4003,0.4198,0.4543,0.4578,0.4762,0.5049,0.5214,0.5309,0.5309,0.5309,0.5309,0.5277,0.4985,0.5055,0.5246,-0.3836,-0.3711,-0.3581,-0.3581,-0.3581,-0.3581,-0.3581,-0.3581,-0.3751,-0.4092,-0.4652,-0.526,-0.583,-0.6428,-0.681,-0.6979,-0.6979,-0.6979,-0.6979,-0.6979,-0.6979,-0.6979,-0.6979,-0.6981,-0.6887,-0.6974,-0.6934,-0.6754,-0.684,-0.684,-0.6747,-0.6546,-0.6492,-0.6492,-0.6492,-0.6492,-0.6414,-0.5376,-0.4942,-0.4843,-0.3567,-0.2995,-0.2903,-0.2856,-0.2771,-0.265,-0.2347,-0.1809,-0.1273,-0.0973,-0.0504,0.0,0.0,0.0,0.0,0.0,0.0,0.0034,0.0168,0.0235,0.0336,0.0772,0.1206,0.1648,0.216,0.2546,0.2795,0.2944,0.3012,0.3038,0.3135,0.2992,0.285,0.2853,0.2729,0.2751,0.3187,0.3375,0.3796,0.4521,0.4527,0.4626,0.4992,0.4968,0.4909,0.4978,0.4592,0.4222,0.3932,0.3397,0.3075,0.2988,0.3195,0.329,0.3222,0.3751,0.3886,0.3651,0.4172,0.4274,0.3993,0.4123,0.4344,0.4602,0.4762,0.4992,0.5277,0.5151,0.5087,0.5055,0.4928,0.4896,0.4864,0.4538,0.4602,0.4864,-0.4391,-0.3965,-0.3626,-0.3626,-0.3626,-0.3626,-0.3626,-0.3626,-0.3626,-0.3626,-0.4092,-0.4652,-0.526,-0.583,-0.6435,-0.6937,-0.6979,-0.6979,-0.6979,-0.7021,-0.6979,-0.6979,-0.6979,-0.6887,-0.66,-0.6874,-0.674,-0.6196,-0.6485,-0.6478,-0.6196,-0.6189,-0.6189,-0.6189,-0.6189,-0.6189,-0.6115,-0.5049,-0.4593,-0.4497,-0.3363,-0.2907,-0.2893,-0.274,-0.2712,-0.2712,-0.2712,-0.2109,-0.1305,-0.1305,-0.0737,0.0,0.0,0.0,0.0,0.0,0.0,0.0101,0.0571,0.0706,0.0807,0.1206,0.1642,0.2146,0.2766,0.291,0.2951,0.3093,0.3202,0.3306,0.3309,0.3476,0.3581,0.3626,0.4052,0.4395,0.4391,0.4913,0.5269,0.5121,0.509,0.5047,0.4947,0.4926,0.4978,0.5115,0.509,0.4848,0.425,0.4065,0.3875,0.3619,0.3428,0.3655,0.4392,0.4392,0.4392,0.4392,0.4392,0.4274,0.4026,0.4409,0.4602,0.4628,0.5087,0.5277,0.5246,0.4794,0.4602,0.4564,0.4156,0.3993,0.3993,0.3993,0.3993,0.3993,-0.5043,-0.4918,-0.4792,-0.4792,-0.4792,-0.4657,-0.4224,-0.4526,-0.4657,-0.4224,-0.5048,-0.5739,-0.5916,-0.6428,-0.6816,-0.6979,-0.6979,-0.6979,-0.6979,-0.6834,-0.672,-0.672,-0.6914,-0.6981,-0.6894,-0.6774,-0.6633,-0.6498,-0.6384,-0.6283,-0.6189,-0.5945,-0.5845,-0.5845,-0.5845,-0.5845,-0.5775,-0.4843,-0.4449,-0.4357,-0.322,-0.2751,-0.2744,-0.27,-0.2712,-0.2712,-0.2712,-0.2109,-0.1305,-0.1305,-0.0737,0.0,0.0,0.0,0.0,0.0,0.0,0.0101,0.0571,0.0906,0.1239,0.1676,0.1965,0.2278,0.2789,0.2988,0.3062,0.3209,0.3276,0.334,0.349,0.3632,0.3912,0.4405,0.4743,0.4969,0.5284,0.549,0.5734,0.6118,0.5996,0.6096,0.6679,0.6508,0.622,0.5882,0.4919,0.4238,0.4087,0.3937,0.3871,0.3875,0.4515,0.5029,0.5435,0.5262,0.495,0.4539,0.495,0.4829,0.4137,0.4158,0.4183,0.4183,0.4312,0.4377,0.4377,0.4248,0.4183,0.4151,0.4058,0.3993,0.3961,0.3626,0.3723,0.3961,-0.5653,-0.548,-0.5303,-0.5303,-0.5303,-0.5173,-0.4826,-0.5087,-0.5173,-0.4826,-0.5394,-0.5916,-0.6184,-0.6477,-0.6774,-0.6979,-0.6914,-0.6854,-0.6854,-0.658,-0.6458,-0.6458,-0.6587,-0.6627,-0.6506,-0.6446,-0.6344,-0.6072,-0.6048,-0.5954,-0.584,-0.5625,-0.5544,-0.5544,-0.5544,-0.5544,-0.5471,-0.4593,-0.4225,-0.4146,-0.3115,-0.2712,-0.2712,-0.2712,-0.2712,-0.2712,-0.2712,-0.2109,-0.1305,-0.1305,-0.0737,0.0,0.0,0.0,0.0,0.0,0.0,0.0134,0.0772,0.1158,0.1556,0.2184,0.2413,0.2552,0.2904,0.3107,0.3256,0.3409,0.3439,0.3487,0.3636,0.3961,0.4412,0.4905,0.5382,0.5793,0.6024,0.6147,0.6392,0.691,0.6824,0.6963,0.7576,0.7375,0.694,0.6233,0.5142,0.4423,0.4181,0.4043,0.3953,0.3991,0.4762,0.5253,0.5499,0.5554,0.5383,0.498,0.5389,0.5052,0.4112,0.4101,0.4036,0.3993,0.3993,0.3993,0.3993,0.3793,0.3723,0.3691,0.3532,0.3499,0.3467,0.3167,0.3233,0.3434,-0.6264,-0.5825,-0.5437,-0.5437,-0.5437,-0.5432,-0.5394,-0.5437,-0.5432,-0.5394,-0.5437,-0.5653,-0.6221,-0.6264,-0.6477,-0.6937,-0.6754,-0.6587,-0.6587,-0.633,-0.6156,-0.6156,-0.6129,-0.5988,-0.5678,-0.6001,-0.5887,-0.5349,-0.5558,-0.5538,-0.5309,-0.5309,-0.5309,-0.5309,-0.5309,-0.5309,-0.5246,-0.4382,-0.3993,-0.3928,-0.3043,-0.2712,-0.2712,-0.2712,-0.2712,-0.2712,-0.2712,-0.2109,-0.1271,-0.1204,-0.067,0.0,0.0,0.0,0.0,0.0,0.0,0.0202,0.1078,0.1471,0.1818,0.2706,0.294,0.2985,0.3072,0.3259,0.3454,0.3595,0.3592,0.3684,0.3858,0.4463,0.5004,0.5282,0.6086,0.6694,0.6693,0.6944,0.7235,0.7527,0.7527,0.7589,0.7855,0.7531,0.6963,0.6196,0.5508,0.4894,0.443,0.4265,0.4131,0.4061,0.4449,0.4753,0.4923,0.5416,0.5584,0.5392,0.5528,0.5007,0.3951,0.4029,0.4034,0.3893,0.3901,0.3896,0.3858,0.3425,0.3261,0.3196,0.2841,0.2712,0.2712,0.2712,0.2712,0.2712,-0.6816,-0.6725,-0.6634,-0.6634,-0.6634,-0.6507,-0.6093,-0.6343,-0.6465,-0.6044,-0.6386,-0.6683,-0.681,-0.6816,-0.6852,-0.6979,-0.6754,-0.6587,-0.6587,-0.6099,-0.5812,-0.5812,-0.5591,-0.547,-0.5371,-0.5658,-0.5745,-0.5618,-0.5451,-0.5344,-0.5309,-0.5309,-0.5309,-0.5309,-0.5309,-0.5309,-0.5246,-0.4382,-0.3993,-0.3928,-0.3043,-0.2712,-0.2712,-0.2712,-0.2712,-0.2712,-0.2712,-0.2109,-0.1204,-0.0503,-0.0168,0.0,0.0,0.0,0.0,0.0,0.0,0.0237,0.127,0.1586,0.1833,0.2816,0.3125,0.3219,0.3252,0.3419,0.3585,0.3575,0.367,0.394,0.4566,0.4954,0.5622,0.6778,0.7269,0.7482,0.7605,0.788,0.8016,0.7849,0.7615,0.7589,0.7855,0.6621,0.5707,0.5529,0.4435,0.3995,0.4382,0.4265,0.4232,0.4328,0.4843,0.5181,0.5232,0.5322,0.5122,0.4651,0.4541,0.4145,0.3432,0.3254,0.3171,0.3134,0.3034,0.2977,0.2977,0.2874,0.2845,0.2812,0.2746,0.2712,0.2712,0.2712,0.2712,0.2712,-0.6979,-0.6979,-0.6979,-0.6979,-0.6979,-0.6894,-0.6647,-0.681,-0.6894,-0.6598,-0.6816,-0.6967,-0.6834,-0.6814,-0.6834,-0.6883,-0.6635,-0.6453,-0.6453,-0.6217,-0.5917,-0.5537,-0.5543,-0.5491,-0.5316,-0.5431,-0.5504,-0.5504,-0.5357,-0.5309,-0.5309,-0.5309,-0.5309,-0.5309,-0.5309,-0.5309,-0.5246,-0.457,-0.4183,-0.3928,-0.3266,-0.2874,-0.2712,-0.2712,-0.2712,-0.2712,-0.2712,-0.2109,-0.1171,-0.0302,0.0,0.0,0.0,0.0,0.0,0.0,0.0205,0.0596,0.137,0.1844,0.2314,0.301,0.3306,0.3396,0.3323,0.352,0.368,0.368,0.3799,0.4163,0.4963,0.5367,0.6066,0.7373,0.7686,0.7873,0.8114,0.815,0.8156,0.8143,0.7996,0.7808,0.7535,0.631,0.5326,0.4918,0.4264,0.3913,0.4001,0.3972,0.3964,0.4005,0.4565,0.4739,0.4487,0.4474,0.416,0.3595,0.3773,0.3618,0.3196,0.2774,0.2676,0.29,0.2747,0.2712,0.2712,0.2712,0.2712,0.2712,0.2712,0.2712,0.2712,0.2712,0.2712,0.2712,-0.6979,-0.6979,-0.6979,-0.6979,-0.6979,-0.6979,-0.6979,-0.6979,-0.6979,-0.6979,-0.7105,-0.7052,-0.6854,-0.6818,-0.6852,-0.6899,-0.6597,-0.6402,-0.6402,-0.6466,-0.6183,-0.5428,-0.5734,-0.5703,-0.5316,-0.5309,-0.5309,-0.5309,-0.5309,-0.5309,-0.5309,-0.5309,-0.5309,-0.5309,-0.5309,-0.5309,-0.5277,-0.4794,-0.4409,-0.4053,-0.3523,-0.3101,-0.2812,-0.2712,-0.2712,-0.2712,-0.2712,-0.2109,-0.1171,-0.0302,0.0,0.0,0.0,0.0,0.0,0.0,0.0351,0.0874,0.1483,0.2096,0.2686,0.3214,0.3487,0.3548,0.3376,0.3595,0.3799,0.3826,0.3955,0.4339,0.5259,0.5777,0.6392,0.7529,0.784,0.8016,0.8263,0.8083,0.8043,0.8337,0.827,0.7847,0.6977,0.6086,0.5199,0.4406,0.4325,0.4091,0.366,0.3592,0.3581,0.3581,0.3917,0.3913,0.3442,0.329,0.2976,0.2541,0.2887,0.2995,0.2875,0.2339,0.2361,0.2827,0.2656,0.2649,0.2717,0.2726,0.2712,0.2712,0.2712,0.2712,0.2712,0.2712,0.2712,0.2712,-0.6979,-0.6979,-0.6979,-0.6979,-0.6979,-0.6979,-0.6979,-0.6979,-0.6979,-0.6979,-0.7447,-0.7773,-0.7728,-0.7779,-0.769,-0.734,-0.7009,-0.6819,-0.6819,-0.6623,-0.6305,-0.5828,-0.5882,-0.5703,-0.5316,-0.5309,-0.5309,-0.5309,-0.5309,-0.5309,-0.5309,-0.5309,-0.5309,-0.5309,-0.5309,-0.5309,-0.5277,-0.4794,-0.457,-0.4436,-0.3621,-0.3261,-0.3196,-0.2845,-0.2712,-0.2712,-0.2712,-0.2109,-0.1171,-0.0302,0.0,0.0,0.0,0.0,0.0,0.0,0.0072,0.0371,0.1487,0.1865,0.2193,0.3293,0.3565,0.3575,0.3554,0.3676,0.3829,0.3961,0.406,0.454,0.5705,0.6047,0.6561,0.7675,0.7887,0.7895,0.7935,0.7908,0.8043,0.8337,0.7854,0.7091,0.6244,0.5464,0.4759,0.4105,0.3927,0.3854,0.3765,0.3646,0.3581,0.3581,0.3164,0.2893,0.2807,0.2317,0.2006,0.1919,0.1474,0.1508,0.197,0.1775,0.1988,0.2539,0.2241,0.2404,0.2869,0.2734,0.2712,0.2712,0.2712,0.2712,0.2712,0.2712,0.2712,0.2712,-0.6814,-0.6907,-0.6974,-0.6807,-0.6914,-0.6979,-0.6979,-0.6979,-0.7105,-0.7447,-0.7746,-0.7926,-0.8047,-0.7711,-0.7432,-0.7237,-0.7081,-0.7009,-0.7001,-0.7106,-0.6889,-0.6275,-0.6449,-0.6275,-0.5648,-0.5641,-0.5522,-0.5309,-0.5309,-0.5309,-0.5309,-0.5309,-0.5309,-0.5309,-0.5309,-0.5309,-0.5277,-0.5087,-0.4826,-0.4532,-0.3951,-0.3528,-0.3257,-0.2841,-0.2712,-0.2646,-0.2109,-0.1507,-0.0873,-0.0201,0.0,0.0,0.0,0.0,0.0,0.0,0.0227,0.0637,0.116,0.1532,0.2004,0.2887,0.3078,0.3188,0.3631,0.3748,0.3812,0.3877,0.4016,0.4401,0.5305,0.5415,0.5698,0.6792,0.7066,0.7167,0.7075,0.7369,0.7522,0.7419,0.6696,0.6013,0.5668,0.4865,0.4267,0.4019,0.3958,0.388,0.3795,0.3731,0.352,0.3126,0.2851,0.2539,0.2186,0.1607,0.1116,0.0801,0.0537,0.0895,0.1782,0.1325,0.1447,0.2011,0.1981,0.2139,0.2396,0.2606,0.2712,0.2712,0.2712,0.2712,0.2712,0.2712,0.2712,0.2712]},{"header":{"parameterUnit":"m.s-1","parameterCategory":1,"la1":30.6,"la2":28.766,"lo1":-90.7593,"lo2":-88.6598,"dy":0.0162,"dx":0.0183,"nx":116,"ny":114,"refTime":"2024-02-01T06:00:00:Z","depth":0,"parameterNumber":3,"parameterNumberName":"V-component_of_WINDS"},"data":[0.0,0.0,0.0,0.0,0.0,0.0,0.0,0.0,0.0,0.0,0.0,0.0,0.0,0.0,0.0,0.0,0.0,0.0,0.0,0.0,0.0,0.0,0.0,0.0,0.0,0.0,0.0,0.0,0.0,0.0,0.0,0.0,0.0,0.0,0.0,0.0,0.0,0.0,0.0,0.0,0.0,0.0,0.0,0.0,0.0,0.0,0.0,0.0,0.0,0.0,0.0,0.0,0.0,0.0,0.0,0.0,0.0,0.0,0.0,0.0,0.0,0.0,0.0,0.0,0.0,0.0,0.0,0.0,0.0,0.0,0.0,0.0,0.0,0.0,0.0,0.0,0.0,0.0,0.0,0.0,0.0,0.0,0.0,0.0,0.0,0.0,0.0,0.0,0.0,0.0,0.0,0.0,0.0,0.0,0.0,0.0,0.0,0.0,0.0,0.0,0.0,0.0,0.0,0.0,0.0,0.0,0.0,0.0,0.0,0.0,0.0,0.0,0.0,0.0,0.0,0.0,0.0,0.0,0.0,0.0,0.0,0.0,0.0,0.0,0.0,0.0,0.0,0.0,0.0,0.0,0.0,0.0,0.0,0.0,0.0,0.0,0.0,0.0,0.0,0.0,0.0,0.0,0.0,0.0,0.0,0.0,0.0,0.0,0.0,0.0,0.0,0.0,0.0,0.0,0.0,0.0,0.0,0.0,0.0,0.0,0.0,0.0,0.0,0.0,0.0,0.0,0.0,0.0,0.0,0.0,0.0,0.0,0.0,0.0,0.0,0.0,0.0,0.0,0.0,0.0,0.0,0.0,0.0,0.0,0.0,0.0,0.0,0.0,0.0,0.0,0.0,0.0,0.0,0.0,0.0,0.0,0.0,0.0,0.0,0.0,0.0,0.0,0.0,0.0,0.0,0.0,0.0,0.0,0.0,0.0,0.0,0.0,0.0,0.0,0.0,0.0,0.0,0.0,0.0,0.0,0.0,0.0,0.0,0.0,0.0,0.0,0.0,0.0,0.0,0.0,0.0,0.0,0.0,0.0,0.0,0.0,0.0,0.0,0.0,0.0,0.0,0.0,0.0,0.0,0.0,0.0,0.0,0.0,0.0,0.0,0.0,0.0,0.0,0.0,0.0,0.0,0.0,0.0,0.0,0.0,0.0,0.0,0.0,0.0,0.0,0.0,0.0,0.0,0.0,0.0,0.0,0.0,0.0,0.0,0.0,0.0,0.0,0.0,0.0,0.0,0.0,0.0,0.0,0.0,0.0,0.0,0.0,0.0,0.0,0.0,0.0,0.0,0.0,0.0,0.0,0.0,0.0,0.0,0.0,0.0,0.0,0.0,0.0,0.0,0.0,0.0,0.0,0.0,0.0,0.0,0.0,0.0,0.0,0.0,0.0,0.0,0.0,0.0,0.0,0.0,0.0,0.0,0.0,0.0,0.0,0.0,0.0,0.0,0.0,0.0,0.0,0.0,0.0,0.0,0.0,0.0,0.0,0.0,0.0,0.0,0.0,0.0,0.0,0.0,0.0,0.0,0.0,0.0,0.0,0.0,0.0,0.0,0.0,0.0,0.0,0.0,0.0,0.0,0.0,0.0,0.0,0.0,0.0,0.0,0.0,0.0,0.0,0.0,0.0,0.0,0.0,0.0,0.0,0.0,0.0,0.0,0.0,0.0,0.0,0.0,0.0,0.0,0.0,0.0,0.0,0.0,0.0,0.0,0.0,0.0,0.0,0.0,0.0,0.0,0.0,0.0,0.0,0.0,0.0,0.0,0.0,0.0,0.0,0.0,0.0,0.0,0.0,0.0,0.0,0.0,0.0,0.0,0.0,0.0,0.0,0.0,0.0,0.0,0.0,0.0,0.0,0.0,0.0,0.0,0.0,0.0,0.0,0.0,0.0,0.0,0.0,0.0,0.0,0.0,0.0,0.0,0.0,0.0,0.0,0.0,0.0,0.0,0.0,0.0,0.0,0.0,0.0,0.0,0.0,0.0,0.0,0.0,0.0,0.0,0.0,0.0,0.0,0.0,0.0,0.0,0.0,0.0,0.0,0.0,0.0,0.0,0.0,0.0,0.0,0.0,0.0,0.0,0.0,0.0,0.0,0.0,0.0,0.0,0.0,0.0,0.0,0.0,0.0,0.0,0.0,0.0,0.0,0.0,0.0,0.0,0.0,0.0,0.0,0.0,0.0,0.0,0.0,0.0,0.0,0.0,0.0,0.0,0.0,0.0,0.0,0.0,0.0,0.0,0.0,0.0,0.0,0.0,0.0,0.0,0.0,0.0,0.0,0.0,0.0,0.0,0.0,0.0,0.0,0.0,0.0,0.0,0.0,0.0,0.0,0.0,0.0,0.0,0.0,0.0,0.0,0.0,0.0,0.0,0.0,0.0,0.0,0.0,0.0,0.0,0.0,0.0,0.0,0.0,0.0,0.0,0.0,0.0,0.0,0.0,0.0,0.0,0.0,0.0,0.0,0.0,0.0,0.0,0.0,0.0,0.0,0.0,0.0,0.0,0.0,0.0,0.0,0.0,0.0,0.0,0.0,0.0,0.0,0.0,0.0,0.0,0.0,0.0,0.0,0.0,0.0,0.0,0.0,0.0,0.0,0.0,0.0,0.0,0.0,0.0,0.0,0.0,0.0,0.0,0.0,0.0,0.0,0.0,0.0,0.0,0.0,0.0,0.0,0.0,0.0,0.0,0.0,0.0,0.0,0.0,0.0,0.0,0.0,0.0,0.0,0.0,0.0,0.0,0.0,0.0,0.0,0.0,0.0,0.0,0.0,0.0,0.0,0.0,0.0,0.0,0.0,0.0,0.0,0.0,0.0,0.0,0.0,0.0,0.0,0.0,0.0,0.0,0.0,0.0,0.0,0.0,0.0,0.0,0.0,0.0,0.0,0.0,0.0,0.0,0.0,0.0,0.0,0.0,0.0,0.0,0.0,0.0,0.0,0.0,0.0,0.0,0.0,0.0,0.0,0.0,0.0,0.0,0.0,0.0,0.0,0.0,0.0,0.0,0.0,0.0,0.0,0.0,0.0,0.0,0.0,0.0,0.0,0.0,0.0,0.0,0.0,0.0,0.0,0.0,0.0,0.0,0.0,0.0,0.0,0.0,0.0,0.0,0.0,0.0,0.0,0.0,0.0,0.0,0.0,0.0,0.0,0.0,0.0,0.0,0.0,0.0,0.0,0.0,0.0,0.0,0.0,0.0,0.0,0.0,0.0,0.0,0.0,0.0,0.0,0.0,0.0,0.0,0.0,0.0,0.0,0.0,0.0,0.0,0.0,0.0,0.0,0.0,0.0,0.0,0.0,0.0,0.0,0.0,0.0,0.0,0.0,0.0,0.0,0.0,0.0,0.0,0.0,0.0,0.0,0.0,0.0,0.0,0.0,0.0,0.0,0.0,0.0,0.0,0.0,0.0,0.0,0.0,0.0,0.0,0.0,0.0,0.0,0.0,0.0,0.0,0.0,0.0,0.0,0.0,0.0,0.0,0.0,0.0,0.0,0.0,0.0,0.0,0.0,0.0,0.0,0.0,0.0,0.0,0.0,0.0,0.0,0.0,0.0,0.0,0.0,0.0,0.0,0.0,0.0,0.0,0.0,0.0,0.0,0.0,0.0,0.0,0.0,0.0,0.0,0.0,0.0,0.0,0.0,0.0,0.0,0.0,0.0,0.0,0.0,0.0,0.0,0.0,0.0,0.0,0.0,0.0,0.0,0.0,0.0,0.0,0.0,0.0,0.0,0.0,0.0,0.0,0.0,0.0,0.0,0.0,0.0,0.0,0.0,0.0,0.0,0.0,0.0,0.0,0.0,0.0,0.0,0.0,0.0,0.0,0.0,0.0,0.0,0.0,0.0,0.0,0.0,0.0,0.0,0.0,0.0,0.0,0.0,0.0,0.0,0.0,0.0,0.0,0.0,0.0,0.0,0.0,0.0,0.0,0.0,0.0,0.0,0.0,0.0,0.0,0.0,0.0,0.0,0.0,0.0,0.0,0.0,0.0,0.0,0.0,0.0,0.0,0.0,0.0,0.0,0.0,0.0,0.0,0.0,0.0,0.0,0.0,0.0,0.0,0.0,0.0,0.0,0.0,0.0,0.0,0.0,0.0,0.0,0.0,0.0,0.0,0.0,0.0,0.0,0.0,0.0,0.0,0.0,0.0,0.0,0.0,0.0,0.0,0.0,0.0,0.0,0.0,0.0,0.0,0.0,0.0,0.0,0.0,0.0,0.0,0.0,0.0,0.0,0.0,0.0,0.0,0.0,0.0,0.0,0.0,0.0,0.0,0.0,0.0,0.0,0.0,0.0,0.0,0.0,0.0,0.0,0.0,0.0,0.0,0.0,0.0,0.0,0.0,0.0,0.0,0.0,0.0,0.0,0.0,0.0,0.0,0.0,0.0,0.0,0.0,0.0,0.0,0.0,0.0,0.0,0.0,0.0,0.0,0.0,0.0,0.0,0.0,0.0,0.0,0.0,0.0,0.0,0.0,0.0,0.0,0.0,0.0,0.0,0.0,0.0,0.0,0.0,0.0,0.0,0.0,0.0,0.0,0.0,0.0,0.0,0.0,0.0,0.0,0.0,0.0,0.0,0.0,0.0,0.0,0.0,0.0,0.0,0.0,0.0,0.0,0.0,0.0,0.0,0.0,0.0,0.0,0.0,0.0,0.0,0.0,0.0,0.0,0.0,0.0,0.0,0.0,0.0,0.0,0.0,0.0,0.0,0.0,0.0,0.0,0.0,0.0,0.0,0.0,0.0,0.0,0.0,0.0,0.0,0.0,0.0,0.0,0.0,0.0,0.0,0.0,0.0,0.0,0.0,0.0,0.0,0.0,0.0,0.0,0.0,0.0,0.0,0.0,0.0,0.0,0.0,0.0,0.0,0.0,0.0,0.0,0.0,0.0,0.0,0.0,0.0,0.0,0.0,0.0,0.0,0.0,0.0,0.0,0.0,0.0,0.0,0.0,0.0,0.0,0.0,0.0,0.0,0.0,0.0,0.0,0.0,0.0,0.0,0.0,0.0,0.0,0.0,0.0,0.0,0.0,0.0,0.0,0.0,0.0,0.0,0.0,0.0,0.0,0.0,0.0,0.0,0.0,0.0,0.0,0.0,0.0,0.0,0.0,0.0,0.0,0.0,0.0,0.0,0.0,0.0,0.0,0.0,0.0,0.0,0.0,0.0,0.0,0.0,0.0,0.0,0.0,0.0,0.0,0.0,0.0,0.0,0.0,0.0,0.0,0.0,0.0,0.0,0.0,0.0,0.0,0.0,0.0,0.0,0.0,0.0,0.0,0.0,0.0,0.0,0.0,0.0,0.0,0.0,0.0,0.0,0.0,0.0,0.0,0.0,0.0,0.0,0.0,0.0,0.0,0.0,0.0,0.0,0.0,0.0,0.0,0.0,0.0,0.0,0.0,0.0,0.0,0.0,0.0,0.0,0.0,0.0,0.0,0.0,0.0,0.0,0.0,0.0,0.0,0.0,0.0,0.0,0.0,0.0,0.0,0.0,0.0,0.0,0.0,0.0,0.0,0.0,0.0,0.0,0.0,0.0,0.0,0.0,0.0,0.0,0.0,0.0,0.0,0.0,0.0,0.0,0.0,0.0,0.0,0.0,0.0,0.0,0.0,0.0,0.0,0.0,0.0,0.0,0.0,0.0,0.0,0.0,0.0,0.0,0.0,0.0,0.0,0.0,0.0,0.0,0.0,0.0,0.0,0.0,0.0,0.0,0.0,0.0,0.0,0.0,0.0,0.0,0.0,0.0,0.0,0.0,0.0,0.0,0.0,0.0,0.0,0.0,0.0,0.0,0.0,0.0,0.0,0.0,0.0,0.0,0.0,0.0,0.0,0.0,0.0,0.0,0.0,0.0,0.0,0.0,0.0,0.0,0.0,0.0,0.0,0.0,0.0,0.0,0.0,0.0,0.0,0.0,0.0,0.0,0.0,0.0,0.0,0.0,0.0,0.0,0.0,0.0,0.0,0.0,0.0,0.0,0.0,0.0,0.0,0.0,0.0,0.0,0.0,0.0,0.0,0.0,0.0,0.0,0.0,0.0,0.0,0.0,0.0,0.0,0.0,0.0,0.0,0.0,0.0,0.2164,0.1284,0.0,0.0,0.0,0.0,0.0,0.0,0.0,0.0,0.0,0.0,0.0,0.0,0.0,0.0,0.0,0.0,0.0,0.0,0.0,0.0,0.0,0.0,0.0,0.0,0.0,0.0,0.8096,0.8312,0.905,0.9116,0.9343,0.988,0.9905,0.9905,0.9905,0.9905,1.0057,1.0362,1.0362,1.0655,1.1207,0.0,0.0,0.0,0.0,0.0,0.0,0.0,0.0,0.0,0.0,0.0,0.0,0.0,0.0,0.0,0.0,0.0,0.0,0.0,0.0,0.0,0.0,0.0,0.0,0.0,0.0,0.0,0.0,0.0,0.0,0.0,0.0,0.0,0.0,0.0,0.0,0.0,0.0,0.0,0.0,0.0,0.0,0.0,0.0,0.0,0.0,0.0,0.0,0.0,0.0,0.0,0.0,0.0,0.0,0.0,0.0,0.0,0.0,0.0,0.0,0.0,0.0,0.0,0.0,0.0,0.0,0.0,0.0,0.0,0.0,0.0,0.0,0.0,0.4655,0.3262,0.0,0.0,0.0,0.0,0.0,0.0,0.0,0.0,0.0,0.0,0.0,0.0,0.0,0.0,0.0,0.0,0.0,0.0,0.0,0.0,0.0,0.0,0.0,0.0,0.7837,0.8392,0.782,0.7869,0.8973,0.8955,0.9224,0.9944,0.9995,1.0021,1.0072,1.0072,1.0586,1.1573,1.1803,1.2609,0.0,0.0,0.0,0.0,0.0,0.0,0.0,0.0,0.0,0.0,0.0,0.0,0.0,0.0,0.0,0.0,0.0,0.0,0.0,0.0,0.0,0.0,0.0,0.0,0.0,0.0,0.0,0.0,0.0,0.0,0.0,0.0,0.0,0.0,0.0,0.0,0.0,0.0,0.0,0.0,0.0,0.0,0.0,0.0,0.0,0.0,0.0,0.0,0.0,0.0,0.0,0.0,0.0,0.0,0.0,0.0,0.0,0.0,0.0,0.0,0.0,0.0,0.0,0.0,0.0,0.0,0.0,0.0,1.0299,1.024,1.0558,1.053,1.0383,1.0098,0.7435,0.5712,0.471,0.3721,0.0,0.0,0.0,0.0,0.0,0.0,0.0,0.0,0.0,0.0,0.0,0.0,0.0,0.0,0.0,0.0,0.0,0.0,0.0,0.0,0.0,0.7734,0.8037,0.8937,0.8785,0.9034,0.9949,0.9576,0.9621,1.0297,1.0335,1.0458,1.0777,1.0777,1.1256,1.2274,1.3371,1.417,1.4685,0.0,0.0,0.0,0.0,0.0,0.0,0.0,0.0,0.0,0.0,0.0,0.0,0.0,0.0,0.0,0.0,0.0,0.0,0.0,0.0,0.0,0.0,0.0,0.0,0.0,0.0,0.0,0.0,0.0,0.0,0.0,0.0,0.0,0.0,0.0,0.0,0.0,0.0,0.0,0.0,0.0,0.0,0.0,0.0,0.0,0.0,0.0,1.3484,1.3382,0.0,0.0,0.0,0.0,0.0,0.0,0.0,0.0,0.0,0.0,0.0,0.0,0.0,1.3248,1.3747,1.3608,1.3543,1.3543,1.3813,1.3744,1.3252,1.2703,1.2128,1.1505,1.0498,0.0,0.7683,0.5814,0.0,0.0,0.0,0.0,0.0,0.0,0.0,0.0,0.0,0.0,0.0,0.0,0.0,0.0,0.0,0.0,0.0,0.0,0.0,0.0,0.0,0.982,1.0355,1.0732,1.1586,1.1697,1.0719,1.1204,1.1215,1.0424,1.0709,1.0968,1.1136,1.1682,1.2856,1.4653,1.6567,1.7774,0.0,0.0,0.0,0.0,0.0,0.0,0.0,0.0,0.0,0.0,0.0,0.0,0.0,0.0,0.0,0.0,0.0,0.0,0.0,0.0,0.0,0.0,0.0,0.0,0.0,0.0,0.0,0.0,0.0,0.0,0.0,0.0,0.0,0.0,0.0,0.0,0.0,0.0,0.0,0.0,0.0,0.0,0.0,0.0,0.0,0.0,0.0,1.4931,1.5201,1.4874,1.4719,1.4364,0.0,0.0,0.0,0.0,0.0,0.0,0.0,0.0,0.0,1.6107,1.5532,1.5478,1.5973,1.5277,1.4949,1.4949,1.4778,1.456,1.4283,1.3982,1.369,1.3385,1.2472,1.158,1.052,0.8215,0.7008,0.6498,0.0,0.0,0.0,0.0,0.3255,0.3435,0.0,0.0,0.0,0.0,0.0,0.0,0.0,0.0,0.0,0.0,0.0,0.0,1.1044,1.1905,1.2637,1.3007,1.4208,1.4132,1.232,1.2768,1.2554,1.1305,1.1356,1.1461,1.1629,1.3078,1.5011,1.7471,1.9528,0.0,0.0,0.0,0.0,0.0,0.0,0.0,0.0,0.0,0.0,0.0,0.0,0.0,0.0,0.0,0.0,0.0,0.0,0.0,0.0,0.0,0.0,0.0,0.0,0.0,0.0,0.0,0.0,0.0,0.0,0.0,0.0,0.0,0.0,0.0,0.0,0.0,0.0,0.0,0.0,0.0,0.0,0.0,0.0,0.0,0.0,0.0,0.0,1.6291,1.676,1.6382,1.6792,1.6725,0.0,0.0,0.0,0.0,0.0,0.0,1.7007,1.7504,1.7906,1.8166,1.7617,1.7453,1.7784,1.6779,1.6176,1.6015,1.5576,1.5231,1.4926,1.4926,1.4835,1.463,1.3726,1.3075,1.2468,0.9989,0.8578,0.7789,0.6156,0.5642,0.5689,0.477,0.4536,0.4722,0.0,0.0,0.0,0.0,0.0,0.0,0.0,0.0,0.0,0.0,0.0,1.1186,1.2542,1.3184,1.4105,1.5492,1.5703,1.5672,1.5488,1.3806,1.3033,1.35,1.2351,1.1932,1.2517,1.5201,1.7833,2.0384,0.0,0.0,0.0,0.0,0.0,0.0,0.0,0.0,0.0,0.0,0.0,0.0,0.0,0.0,0.0,0.0,0.0,0.0,0.0,0.0,0.0,0.0,0.0,0.0,0.0,0.0,0.0,0.0,0.0,0.0,0.0,0.0,0.0,0.0,0.0,0.0,0.0,0.0,0.0,0.0,0.0,0.0,0.0,0.0,0.0,0.0,0.0,0.0,0.0,0.0,0.0,1.8013,1.9601,0.0,0.0,0.0,0.0,1.8718,1.9363,1.9788,1.9788,1.9808,1.9838,1.9789,1.9266,1.8921,1.8837,1.8275,1.7733,1.7216,1.7175,1.6617,1.5543,1.5543,1.5231,1.4675,1.4094,1.3604,1.2976,1.0615,0.9378,0.8874,0.8269,0.8035,0.8051,0.7951,0.7703,0.7371,0.0,0.0,0.0,0.0,0.0,0.0,0.0,0.0,1.1365,1.0484,1.2175,1.3905,1.5042,1.7115,1.8618,1.9146,1.9817,1.9209,1.6995,1.6013,1.5402,1.5128,1.4581,1.5233,1.7242,1.8233,1.9647,2.1566,0.0,0.0,0.0,0.0,0.0,0.0,0.0,0.0,0.0,0.0,0.0,0.0,0.0,0.0,0.0,0.0,0.0,0.0,0.0,0.0,0.0,0.0,0.0,0.0,0.0,0.0,0.0,0.0,0.0,0.0,0.0,0.0,0.0,0.0,0.0,0.0,0.0,0.0,0.0,0.0,0.0,0.0,0.0,0.0,0.0,0.0,0.0,0.0,0.0,0.0,0.0,2.1536,2.2636,0.0,2.2227,2.2682,2.2656,2.1798,2.2782,2.3191,2.2727,2.3132,2.3132,2.2682,2.1429,2.0524,2.0073,1.8763,1.7987,1.7827,1.7827,1.7612,1.7218,1.7218,1.6857,1.6224,1.5358,1.4637,1.3964,1.2176,1.1168,1.0735,0.9979,0.9589,0.9429,0.8909,0.8387,0.7896,0.0,0.0,0.0,0.0,0.0,0.0,0.0,0.0,1.2251,1.2216,1.4109,1.6154,1.8014,2.0271,2.1808,2.2159,2.2544,2.1652,1.8861,1.7888,1.7162,1.6502,1.6378,1.7629,2.0386,2.0401,0.0,0.0,0.0,0.0,0.0,0.0,0.0,0.0,0.0,0.0,0.0,0.0,0.0,0.0,0.0,0.0,1.5787,0.0,0.0,0.0,0.0,0.0,0.0,0.0,0.0,0.0,0.0,0.0,0.0,0.0,0.0,0.0,0.0,0.0,0.0,0.0,0.0,0.0,0.0,0.0,0.0,0.0,0.0,0.0,0.0,0.0,0.0,0.0,0.0,0.0,0.0,2.2324,2.3681,2.4081,2.5359,2.5885,2.5098,2.5691,2.5777,2.4886,2.5885,2.615,2.5232,2.56,2.5333,2.4218,2.2732,2.1682,2.1188,1.9631,1.876,1.8622,1.8745,1.8655,1.8338,1.8464,1.8148,1.7452,1.6498,1.5681,1.4897,1.3629,1.2948,1.2589,1.1406,1.0729,1.0372,0.986,0.9095,0.837,0.0,0.0,0.0,0.0,0.0,0.0,0.0,1.2633,1.325,1.4974,1.589,1.7756,2.1272,2.2357,2.3231,2.4356,2.3701,2.2547,2.1111,1.9289,1.8087,1.7715,1.7729,1.8967,2.1552,0.0,0.0,0.0,0.0,0.0,0.0,0.0,0.0,0.0,0.0,0.0,0.0,0.0,0.0,0.0,0.0,0.0,1.9639,0.0,0.0,0.0,0.0,0.0,0.0,0.0,0.0,0.0,0.0,0.0,0.0,0.0,0.0,0.0,0.0,0.0,0.0,0.0,0.0,0.0,0.0,0.0,0.0,0.0,0.0,0.0,0.0,0.0,0.0,0.0,0.0,0.0,2.2733,2.4312,2.5598,2.5567,2.7781,2.8454,2.6449,2.7964,2.8738,2.7908,2.8569,2.8454,2.7189,2.7085,2.6208,2.4354,2.3091,2.2362,2.2163,2.0928,2.0093,1.9641,2.0051,1.9743,1.889,1.9271,1.9046,1.8257,1.7422,1.6583,1.5776,1.4917,1.455,1.4379,1.2578,1.1474,1.0967,1.0956,1.0081,0.8919,0.0,0.0,0.0,0.0,0.0,0.0,0.0,1.3035,1.3835,1.5226,1.7207,1.9562,2.2445,2.4233,2.5358,2.567,2.4085,2.2499,2.1231,1.9038,1.8392,1.9721,2.0939,0.0,2.3861,0.0,0.0,0.0,0.0,0.0,0.0,0.0,0.0,0.0,0.0,0.0,0.0,0.0,0.0,0.0,0.0,0.0,2.1392,0.0,0.0,0.0,0.0,0.0,0.0,0.0,0.0,0.0,0.0,0.0,0.0,0.0,0.0,0.0,0.0,0.0,0.0,0.0,0.0,0.0,0.0,0.0,0.0,0.0,0.0,0.0,0.0,0.0,0.0,0.0,2.6006,2.7407,2.6469,2.7308,2.8405,2.946,3.023,3.0421,2.9854,3.0289,3.0277,2.9533,2.9178,2.86,2.7681,2.711,2.6553,2.6031,2.4377,2.347,2.3424,2.1664,2.0748,2.0616,2.0732,2.0651,2.0403,2.0503,1.9893,1.873,1.8482,1.7659,1.6471,1.595,1.5734,1.5532,1.3721,1.273,1.2228,1.1715,1.1072,1.0405,0.0,0.0,0.0,0.0,0.0,0.0,0.0,1.3266,1.4123,1.6474,1.8654,2.1177,2.4334,2.5743,2.6465,2.6362,2.4712,2.2791,2.0762,1.9208,1.938,0.0,0.0,0.0,0.0,0.0,0.0,0.0,0.0,0.0,0.0,0.0,0.0,0.0,0.0,0.0,0.0,0.0,0.0,0.0,0.0,0.0,2.4678,2.3605,2.2378,2.1173,2.0707,1.9914,1.9031,1.8204,0.0,0.0,0.0,0.0,0.0,0.0,0.0,0.0,0.0,0.0,0.0,0.0,0.0,0.0,0.0,0.0,0.0,0.0,0.0,0.0,0.0,0.0,0.0,0.0,2.8641,3.0353,3.0918,3.1029,3.1304,3.215,3.2254,3.2021,3.1504,3.162,3.1485,3.0871,3.0607,2.9972,2.8867,2.8384,2.7646,2.6544,2.5062,2.4132,2.3679,2.2203,2.1397,2.1244,2.1446,2.1446,2.1244,2.1446,2.0767,1.9345,1.9218,1.834,1.6977,1.6612,1.6438,0.0,0.0,0.0,0.0,0.0,1.1395,1.1176,0.0,0.0,0.0,0.0,0.0,0.0,0.0,1.3311,1.4271,1.8164,1.9925,2.2282,2.6162,2.6685,2.67,2.6503,2.5279,2.3214,2.0242,0.0,0.0,0.0,0.0,0.0,0.0,0.0,0.0,0.0,0.0,0.0,0.0,0.0,0.0,0.0,0.0,0.0,0.0,0.0,0.0,0.0,0.0,0.0,2.8514,2.7545,2.6925,2.6444,2.5429,2.4104,2.2805,2.2572,0.0,0.0,0.0,0.0,0.0,0.0,0.0,0.0,0.0,0.0,0.0,0.0,0.0,0.0,0.0,0.0,0.0,0.0,0.0,0.0,0.0,0.0,0.0,0.0,3.1128,3.2903,3.5367,3.4849,3.4171,3.3984,3.372,3.3159,3.2106,3.2317,3.235,3.1915,3.2194,3.1756,3.0287,3.0128,0.0,0.0,0.0,2.4493,2.3493,2.2643,2.2068,2.1774,2.2186,2.2186,2.1803,2.2215,2.1579,2.0154,1.9779,1.8792,1.746,1.7109,1.6855,1.6579,1.5062,1.407,1.3299,1.1844,1.1489,1.1572,0.0,0.0,0.0,0.0,0.0,0.0,0.0,1.3012,1.4648,1.8646,1.9851,2.1748,2.5488,2.5908,2.5918,2.5868,2.4545,2.3131,0.0,0.0,0.0,0.0,0.0,0.0,0.0,0.0,0.0,0.0,0.0,0.0,0.0,0.0,0.0,0.0,0.0,0.0,0.0,0.0,0.0,0.0,0.0,0.0,2.9907,2.97,2.8791,2.7587,2.7382,2.7284,2.7084,2.6054,2.6293,2.6746,2.491,0.0,0.0,0.0,0.0,0.0,0.0,0.0,0.0,0.0,0.0,0.0,0.0,0.0,0.0,0.0,0.0,0.0,0.0,0.0,0.0,3.1492,3.3767,3.5791,3.6936,3.6924,3.6481,3.567,3.3863,3.2891,3.3282,3.2838,3.2451,3.2384,3.1901,3.1204,3.0251,2.9644,2.8499,2.6662,2.5826,2.4989,2.4121,2.3383,2.2954,2.2905,0.0,0.0,2.2905,2.2972,2.2384,2.1253,2.0601,1.9638,1.8552,1.8109,1.7305,1.6301,1.5286,1.4047,1.2772,1.2614,1.2495,1.2372,0.0,0.0,0.0,0.0,0.0,0.0,0.0,1.2757,1.4092,1.7269,1.8646,2.0363,2.305,2.3327,2.3144,2.272,2.179,0.0,0.0,0.0,0.0,0.0,0.0,0.0,0.0,0.0,0.0,0.0,0.0,0.0,0.0,0.0,0.0,0.0,0.0,0.0,0.0,0.0,0.0,0.0,0.0,0.0,3.2456,3.1939,3.1101,3.0211,3.0211,3.0137,2.9934,2.911,2.9173,2.9324,2.8005,2.6744,2.5488,0.0,0.0,0.0,0.0,0.0,0.0,0.0,0.0,0.0,0.0,0.0,0.0,0.0,0.0,2.8724,0.0,0.0,3.2952,3.4063,3.574,3.7165,3.7991,3.7734,3.7144,3.6262,3.4736,3.3651,3.3462,3.326,3.3057,3.289,3.2697,3.2076,3.0856,3.045,2.9071,2.6494,2.6159,2.5297,2.3766,2.3542,2.3369,2.3189,2.3189,2.3189,2.3189,2.3189,2.2712,2.1832,2.1469,2.0555,1.9308,1.8665,1.7803,1.6816,1.6045,1.4726,1.3261,1.3376,1.3343,1.3193,0.0,0.0,0.0,0.0,0.0,0.0,0.0,1.2398,1.3305,1.5862,1.7328,1.8831,2.0633,2.0769,2.0474,1.9836,0.0,0.0,0.0,0.0,0.0,0.0,0.0,0.0,0.0,0.0,0.0,0.0,0.0,0.0,0.0,0.0,0.0,0.0,0.0,0.0,0.0,0.0,0.0,0.0,0.0,0.0,3.4675,3.3626,3.3015,3.2674,3.2531,3.2082,3.1498,3.1396,3.1116,3.0801,3.0526,3.0107,2.927,2.7141,2.68,0.0,0.0,0.0,0.0,0.0,0.0,0.0,0.0,0.0,2.7969,2.9758,3.0935,3.2106,3.3618,3.4502,3.5399,3.6667,3.7334,3.7955,3.8615,3.801,3.7184,3.6395,3.5532,3.4603,3.364,3.3698,3.368,3.3332,3.3478,3.2926,3.1476,3.1311,2.9714,2.6354,2.656,2.5672,2.3534,2.3785,2.3785,2.3516,2.3468,2.3446,2.3446,2.3414,2.303,2.2398,2.2194,2.1235,1.982,1.9198,1.8467,1.7619,1.7125,1.5859,1.4311,1.4046,1.3941,1.3825,0.0,0.0,0.0,0.0,0.0,0.0,0.0,0.0,0.0,1.6118,1.671,1.7678,1.9961,2.0188,2.015,0.0,0.0,0.0,0.0,0.0,0.0,0.0,0.0,0.0,0.0,0.0,0.0,0.0,0.0,0.0,0.0,0.0,0.0,0.0,0.0,0.0,0.0,0.0,0.0,0.0,0.0,0.0,3.494,3.3805,3.3417,3.3387,3.2665,3.1917,3.1348,3.2018,3.2651,3.3265,3.397,3.3759,3.2754,3.0451,0.0,2.6454,2.4686,2.3939,2.4238,2.6628,2.7505,2.8652,0.0,0.0,3.3015,3.396,3.481,3.5661,3.6568,3.7169,3.7802,3.8726,3.8699,3.8597,3.8689,3.801,3.7184,3.6395,3.5532,3.4954,3.4806,3.4202,3.3762,3.3734,3.312,3.2339,3.1439,3.0946,2.9498,2.6896,2.7023,2.6317,2.4651,2.4648,2.4648,2.4632,2.4439,2.4355,2.4337,2.4172,2.3881,2.3469,2.2513,2.1358,2.0156,2.0186,1.9445,1.8291,1.8357,1.7342,1.5713,1.4587,1.4051,1.3896,0.0,0.0,0.0,0.0,0.0,0.0,0.0,0.0,0.0,0.0,1.4849,1.5708,1.7198,1.7369,1.7342,0.0,0.0,0.0,0.0,0.0,0.0,0.0,0.0,0.0,0.0,0.0,0.0,0.0,0.0,0.0,0.0,0.0,0.0,0.0,0.0,0.0,0.0,0.0,0.0,0.0,0.0,0.0,3.4533,3.3582,3.2521,3.1502,3.1526,3.1246,0.0,0.0,3.1279,3.2032,3.2862,3.2702,3.1877,3.008,2.8999,0.0,2.6304,2.646,2.7289,0.0,2.9738,3.1657,3.3185,3.407,3.4845,3.5967,3.6956,3.7769,3.8211,3.8464,3.8672,0.0,3.8792,3.8707,3.8707,3.801,3.7,3.5716,3.4816,3.4302,3.4302,3.4009,3.3605,3.3146,3.2932,3.2273,3.1001,3.0816,2.9626,2.715,2.7175,2.6431,2.4823,2.4804,2.4804,2.4804,2.4716,2.467,2.467,2.4575,2.4474,2.4279,2.3339,2.2615,2.2043,2.1166,2.0482,1.9882,1.896,1.7868,1.6677,1.5671,1.4958,1.4475,0.0,0.0,0.0,0.0,0.0,0.0,0.0,0.0,0.0,0.0,1.3397,1.4079,1.492,1.5018,0.0,0.0,0.0,0.0,0.0,0.0,0.0,0.0,0.0,0.0,0.0,0.0,0.0,0.0,0.0,0.0,0.0,0.0,0.0,0.0,0.0,0.0,0.0,0.0,0.0,0.0,0.0,0.0,3.3856,3.254,3.1097,2.9836,3.0189,2.9889,0.0,0.0,2.9575,3.0142,3.112,3.1337,3.0991,2.9514,2.88,2.8315,2.7288,0.0,0.0,2.9972,3.2226,3.4504,3.5053,3.5885,3.6819,3.7791,3.8362,3.8812,3.9189,3.8992,3.8775,3.8836,3.878,3.8615,3.8395,3.7679,3.6541,3.489,3.3972,3.3411,3.3276,3.3257,3.311,3.276,3.2525,3.1899,3.0725,3.0659,2.9612,2.7358,2.7342,2.6593,2.4942,2.4942,2.4942,2.4942,2.4883,2.4855,2.4855,2.4818,2.4804,2.4766,2.4124,2.3723,2.3402,2.2035,2.1358,2.1017,1.9608,1.8384,1.7339,1.6774,1.5869,1.4904,0.0,0.0,0.0,0.0,0.0,0.0,0.0,0.0,0.0,0.0,0.0,0.0,0.0,0.0,0.0,0.0,0.0,0.0,0.0,0.0,0.0,0.0,0.0,0.0,0.0,0.0,0.0,0.0,0.0,0.0,0.0,0.0,0.0,0.0,0.0,0.0,0.0,0.0,0.0,0.0,0.0,0.0,3.2953,3.0327,2.9289,2.9197,2.8957,0.0,0.0,0.0,2.8161,2.8417,2.9821,3.0923,0.0,2.9755,2.7792,2.629,2.7069,0.0,2.9617,3.2917,3.5181,3.7051,3.8742,3.954,3.9967,3.9986,3.9157,3.8682,3.9532,3.8721,3.8212,3.9059,3.8931,3.8432,3.7643,3.6835,3.5716,3.4045,3.3128,3.2422,0.0,3.1846,3.2162,3.2939,3.1725,3.0941,3.0903,3.0352,2.9241,2.7546,2.7742,2.7033,2.5293,2.5274,2.5274,2.5274,2.5088,2.4979,2.4998,2.4869,2.4804,2.4804,2.4766,2.4275,2.3453,2.2745,2.2002,2.1214,2.0523,1.9208,1.7702,1.7727,1.6534,1.4904,0.0,0.0,0.0,0.0,0.0,0.0,0.0,0.0,0.0,0.0,0.0,0.0,0.0,0.0,0.0,0.0,0.0,0.0,0.0,0.0,0.0,0.0,0.0,0.0,0.0,0.0,0.0,0.0,0.0,0.0,0.0,0.0,0.0,0.0,0.0,0.0,0.0,0.0,0.0,0.0,0.0,0.0,3.0583,2.9049,2.7718,2.666,0.0,0.0,0.0,0.0,0.0,0.0,2.7269,2.7642,2.7713,2.6619,2.6694,2.7309,2.8147,3.0359,3.2995,3.5196,3.7113,3.8719,3.9835,4.0112,3.989,3.9117,3.7649,3.632,3.5857,3.5018,3.4663,3.5475,3.5965,3.6397,3.6887,3.6292,3.5219,3.3713,3.2823,0.0,0.0,0.0,0.0,3.1614,3.1315,3.0902,3.033,3.0275,2.9749,2.8598,2.8656,2.7871,2.6178,2.6159,2.587,2.5303,2.5274,2.5236,2.5203,2.5187,2.5166,2.5126,2.5126,2.4965,2.4632,2.3927,2.3122,2.2292,2.1526,2.0182,1.8634,1.808,1.7088,1.5942,0.0,0.0,0.0,0.0,0.0,0.0,0.0,0.0,0.0,0.0,0.0,0.0,0.0,0.0,0.0,0.0,0.0,0.0,0.0,0.0,0.0,0.0,0.0,0.0,0.0,0.0,0.0,0.0,0.0,0.0,0.0,0.0,0.0,0.0,0.0,0.0,0.0,0.0,0.0,0.0,0.0,0.0,2.8012,2.6759,2.5726,0.0,0.0,0.0,0.0,0.0,0.0,0.0,2.5582,2.5617,2.571,2.5883,2.7074,2.8686,3.0423,3.3266,3.6037,3.7346,3.8987,4.0304,4.0462,3.9965,3.9197,3.8175,3.6105,3.4154,3.3125,3.2284,3.1916,3.243,3.3201,3.4097,3.5206,3.4703,3.3979,3.3466,3.2694,3.2031,0.0,0.0,0.0,3.1066,3.1299,3.1054,3.0174,3.0311,3.0009,2.9157,2.9148,2.8338,2.6683,2.6663,2.6238,2.536,2.5427,2.5401,2.536,2.5427,2.5401,2.5379,2.5379,2.5379,2.531,2.4549,2.3714,2.2854,2.2017,2.0671,1.9133,1.8578,1.7808,1.6936,0.0,0.0,0.0,0.0,0.0,0.0,0.0,0.0,0.0,0.0,0.0,0.0,0.0,0.0,0.0,0.0,0.0,0.0,0.0,0.0,0.0,0.0,0.0,0.0,0.0,0.0,0.0,0.0,0.0,0.0,0.0,0.0,0.0,0.0,0.0,0.0,0.0,0.0,0.0,0.0,0.0,0.0,2.537,2.3653,0.0,0.0,0.0,0.0,0.0,0.0,0.0,2.508,2.4934,2.5091,2.5686,2.759,2.8876,3.0409,3.3768,3.654,3.8617,3.9344,4.0773,4.1725,4.0684,3.9338,3.8096,3.7192,3.4559,3.2173,0.0,0.0,3.0044,3.0136,3.0858,3.1808,3.2929,3.2459,3.2343,0.0,0.0,0.0,0.0,0.0,0.0,3.134,3.1527,3.128,3.0441,3.0402,3.0064,2.9306,2.9276,2.8526,2.6958,2.6841,2.6354,2.5493,2.5493,2.5493,2.5493,2.5493,2.5493,2.5493,2.5493,2.5493,2.5435,2.4685,2.3848,2.2983,2.2115,2.0776,1.9338,1.9231,1.8675,1.7857,0.0,0.0,0.0,0.0,0.0,0.0,0.0,0.0,0.0,0.0,0.0,0.0,0.0,0.0,0.0,0.0,0.0,0.0,0.0,0.0,0.0,0.0,0.0,0.0,0.0,0.0,0.0,0.0,0.0,0.0,0.0,0.0,0.0,0.0,0.0,0.0,0.0,0.0,0.0,0.0,0.0,0.0,2.3718,0.0,0.0,0.0,0.0,0.0,0.0,0.0,0.0,2.6346,2.6299,2.7213,2.8532,2.9745,3.1604,3.3874,3.6649,3.8833,4.0485,4.1168,4.1664,4.1589,3.9971,3.8517,3.6927,3.4868,3.2045,2.947,0.0,0.0,0.0,2.9127,3.0641,0.0,3.4022,3.4263,0.0,3.4025,0.0,3.3558,3.3045,3.2829,0.0,0.0,3.1204,3.0785,3.0552,3.0552,3.045,3.0244,3.0244,2.9751,2.8743,2.7444,2.6354,2.5493,2.5554,2.5551,2.5493,2.5554,2.5551,2.5493,2.5493,2.5493,2.5493,2.5324,2.4748,2.3893,2.3114,2.2164,2.1051,1.9744,1.9139,1.8905,0.0,0.0,0.0,0.0,0.0,0.0,0.0,0.0,0.0,0.0,0.0,0.0,0.0,0.0,0.0,0.0,0.0,0.0,0.0,0.0,0.0,0.0,0.0,0.0,0.0,0.0,0.0,0.0,0.0,0.0,0.0,0.0,0.0,0.0,0.0,0.0,0.0,0.0,0.0,0.0,0.0,0.0,0.0,0.0,0.0,0.0,0.0,0.0,0.0,0.0,0.0,2.7488,2.8272,2.9191,3.0404,3.2439,0.0,3.5852,3.8817,4.0887,4.2158,4.2071,4.2034,4.1341,3.8642,3.6765,3.4849,3.226,2.9706,2.7589,2.6425,2.6144,2.6438,0.0,0.0,0.0,3.2957,3.3701,3.4198,0.0,3.4513,0.0,3.4328,3.3665,3.3059,3.2599,3.1695,3.0989,3.0625,3.0606,3.0598,3.0633,3.0633,3.01,2.8931,2.7569,2.6457,2.5595,2.5631,2.5611,2.5595,2.5633,2.5611,2.5595,2.5595,2.5595,2.5595,2.5633,2.5129,2.4309,2.3886,2.2988,2.1777,2.0801,2.0195,1.9863,0.0,0.0,0.0,0.0,0.0,0.0,0.0,0.0,0.0,0.0,0.0,0.0,0.0,0.0,0.0,0.0,0.0,0.0,0.0,0.0,0.0,0.0,0.0,0.0,0.0,0.0,0.0,0.0,0.0,0.0,0.0,0.0,0.0,0.0,0.0,0.0,0.0,0.0,0.0,0.0,0.0,0.0,0.0,0.0,0.0,0.0,0.0,0.0,0.0,0.0,2.832,2.8747,3.0349,3.1131,3.2082,3.5152,3.6269,3.7206,4.0468,4.2402,4.3255,4.2195,4.184,4.0752,3.6934,3.4579,3.2448,2.9758,2.7751,2.6334,2.5706,2.5542,2.5653,2.6233,0.0,2.9207,3.1405,3.2369,3.3467,3.5212,3.4778,3.4661,3.5483,3.4108,3.3188,3.3242,3.2326,3.1446,3.0672,3.0633,3.0681,3.0721,3.0604,2.9833,2.8301,2.7441,2.6562,2.5703,2.5703,2.5703,2.5703,2.5703,2.5703,2.5703,2.5703,2.5703,2.5703,2.5683,2.5234,2.455,2.4413,2.3494,2.2186,2.2088,2.1561,2.0895,0.0,0.0,0.0,0.0,0.0,0.0,0.0,0.0,0.0,0.0,1.3001,1.2179,0.0,0.0,0.0,0.0,0.0,0.0,0.0,0.0,0.0,0.0,0.0,0.0,0.0,0.0,0.0,0.0,0.0,0.0,0.0,0.0,0.0,0.0,0.0,0.0,0.0,0.0,0.0,0.0,0.0,0.0,0.0,0.0,0.0,0.0,0.0,0.0,0.0,0.0,2.9194,3.0566,3.1422,3.3216,3.5243,3.6465,3.7873,3.9504,4.1557,4.2324,4.2307,4.1351,4.0488,3.8903,3.5196,3.2962,0.0,0.0,2.6841,2.5871,2.5107,2.5471,2.6357,2.7756,2.8941,3.0548,3.3045,3.3737,3.4127,0.0,3.4542,3.4335,3.3809,3.294,0.0,0.0,3.158,3.1012,3.0856,3.0856,3.0857,3.0859,3.0175,2.9316,2.8301,2.7441,2.6562,2.5703,2.5703,2.5703,2.5703,2.5703,2.5703,2.5703,2.5703,0.0,2.5703,2.5636,2.5531,2.5312,2.4541,2.4051,2.372,2.3054,2.2699,2.2485,0.0,0.0,0.0,0.0,0.0,0.0,0.0,0.0,1.5629,1.7004,1.6737,1.5925,1.4651,1.3662,0.0,0.0,0.0,0.0,0.0,0.0,0.0,0.0,0.0,0.0,0.0,0.0,0.0,0.0,0.0,0.0,0.0,0.0,0.0,0.0,0.0,0.0,0.0,0.0,0.0,0.0,0.0,0.0,0.0,0.0,0.0,0.0,0.0,0.0,0.0,0.0,2.9048,3.0456,3.2079,3.3451,3.4822,3.6502,3.7659,3.886,4.0986,4.1931,4.2052,4.1049,3.9432,3.7138,3.3442,0.0,0.0,0.0,2.5672,2.529,2.4966,2.5508,0.0,2.7304,2.8561,3.0049,3.184,3.2648,3.3227,3.3718,3.3463,3.3272,3.335,3.2655,3.2207,3.2207,3.1816,3.1387,3.0918,3.0898,3.0684,3.0234,2.9824,2.8965,2.7637,2.7207,2.6562,2.5703,2.5703,2.5703,2.5703,2.5661,2.5658,2.5657,2.5607,2.5601,2.5598,2.5561,2.5551,2.5508,2.505,2.4608,2.4156,2.3767,2.3354,2.2936,0.0,0.0,0.0,0.0,0.0,0.0,0.0,1.5711,1.7537,1.9548,2.0103,1.9516,1.7393,1.5635,1.4413,0.0,0.0,0.0,0.0,0.0,0.0,0.0,0.0,0.0,0.0,0.0,0.0,1.4112,0.0,0.0,0.0,0.0,0.0,0.0,0.0,0.0,0.0,0.0,0.0,0.0,0.0,0.0,0.0,0.0,0.0,0.0,0.0,0.0,0.0,0.0,2.8338,2.9305,3.1432,3.2474,3.3317,3.548,3.6604,3.7572,3.9529,4.0984,4.1629,4.0158,3.8039,3.538,3.1838,2.9145,0.0,2.5186,2.4869,2.4936,2.5034,2.5475,2.6007,0.0,2.7631,2.8858,3.0055,3.104,3.1938,3.265,3.2332,0.0,3.2812,3.2285,0.0,3.1914,3.1914,3.1621,3.0937,3.0898,3.0586,2.9902,2.9512,2.8652,2.7285,2.6914,2.6387,2.5703,2.5703,2.5683,2.5682,2.5611,2.5598,2.559,2.5511,2.5493,2.5508,2.5473,2.5488,2.5488,2.5451,2.5032,2.4444,2.4444,2.405,2.345,0.0,0.0,0.0,0.0,0.0,0.0,0.0,1.7221,1.9704,2.2125,2.1823,2.1007,2.0046,1.8324,1.6655,0.0,0.0,0.0,0.0,0.0,0.0,0.0,0.0,0.0,0.0,0.0,0.0,1.6139,1.6347,0.0,0.0,0.0,0.0,0.0,0.0,1.5287,0.0,0.0,0.0,0.0,0.0,0.0,0.0,0.0,0.0,0.0,0.0,0.0,0.0,0.0,0.0,2.7306,2.8276,3.012,3.2104,3.3006,0.0,0.0,3.7226,3.9051,4.0282,3.7571,3.5656,3.3646,3.0566,0.0,2.6376,2.5232,2.513,2.5253,2.5264,2.5311,2.5638,0.0,0.0,2.7473,2.9087,3.0228,3.0902,3.0934,0.0,0.0,3.1191,3.1055,3.1016,3.1016,3.1016,3.0976,3.0898,3.0898,3.0859,3.0781,2.9238,2.834,2.8184,2.6602,2.5781,2.5703,2.5703,2.5662,2.5605,2.5603,2.5564,2.5517,2.5493,2.5493,0.0,2.5428,2.542,2.5394,2.5329,2.5264,2.5206,2.5206,2.5149,2.4985,0.0,0.0,0.0,0.0,0.0,0.0,1.5706,1.7229,1.9454,2.3166,2.274,2.2036,2.1885,2.0281,1.8106,0.0,0.0,0.0,0.0,0.0,0.0,0.0,0.0,0.0,0.0,0.0,0.0,1.6464,1.7006,0.0,0.0,0.0,0.0,0.0,0.0,1.5272,1.5231,0.0,0.0,0.0,0.0,0.0,0.0,0.0,0.0,0.0,0.0,0.0,0.0,0.0,0.0,0.0,2.6427,2.7218,0.0,0.0,3.2252,3.4092,3.4871,3.6618,3.788,3.6487,3.4194,3.1838,3.0257,0.0,2.5543,2.5239,2.5234,2.5303,2.5303,2.5303,2.5399,0.0,0.0,0.0,2.7582,2.8181,2.8881,2.9915,3.0389,3.0703,0.0,0.0,3.0878,3.0792,3.0323,3.0045,3.0001,3.0042,2.9583,2.8527,2.7771,2.7156,2.6627,2.5924,2.557,2.557,2.557,2.5564,2.5543,2.5508,2.5477,2.5441,2.5398,2.5376,0.0,2.5346,2.5339,2.5339,2.5313,2.5303,2.5303,2.5303,2.5303,2.5245,0.0,0.0,0.0,0.0,0.0,1.3517,1.5837,1.7007,1.9002,2.2882,2.2945,2.2574,2.2492,2.1184,1.9073,1.6053,0.0,0.0,0.0,0.0,0.0,0.0,0.0,0.0,0.0,0.0,0.0,0.0,0.0,1.7866,0.0,0.0,1.6643,1.5587,0.0,0.0,0.0,0.0,0.0,0.0,0.0,0.0,0.0,0.0,0.0,0.0,0.0,0.0,0.0,0.0,0.0,0.0,0.0,0.0,0.0,0.0,2.9745,3.126,3.2143,3.4002,3.5465,3.4566,3.2506,3.0495,0.0,0.0,2.5141,2.5274,2.5303,2.5303,2.5303,2.5322,2.533,0.0,0.0,2.5734,2.6357,2.6765,2.7461,2.8691,0.0,2.9551,3.043,3.0702,3.0792,3.0677,2.9939,2.934,2.9035,2.8797,2.8232,2.7287,2.6961,2.651,2.5883,2.563,2.5493,2.5493,2.5493,2.5484,2.5477,2.5421,2.5391,2.5379,2.5331,2.5303,0.0,2.5303,2.5303,2.5303,2.5303,2.5303,2.5303,2.5303,2.5303,2.5303,0.0,0.0,0.0,0.0,0.0,0.0,0.0,1.6733,1.8776,2.1219,2.2337,2.2539,2.1621,2.078,1.9589,1.7829,0.0,0.0,0.0,0.0,0.0,0.0,0.0,0.0,0.0,0.0,0.0,0.0,0.0,0.0,0.0,1.8972,1.8087,1.649,0.0,0.0,0.0,0.0,0.0,0.0,0.0,0.0,0.0,0.0,0.0,0.0,0.0,0.0,0.0,0.0,0.0,0.0,0.0,0.0,0.0,0.0,2.787,2.9084,2.8903,3.124,3.3223,3.1165,3.0317,2.973,0.0,0.0,2.5303,2.5303,2.5303,2.5303,2.5303,2.5354,2.5394,2.5394,0.0,0.0,2.5601,2.6402,2.7012,0.0,2.7793,2.8652,2.9531,3.0263,3.0677,3.0611,2.9852,2.9016,2.8149,2.7239,2.7149,2.8058,2.7255,2.6802,2.6783,2.5921,2.5493,2.5493,2.5493,2.5477,2.5394,2.5394,2.5352,2.5313,2.5303,2.5303,0.0,2.5303,2.5303,2.5303,2.5303,2.5303,2.5303,2.5303,2.5303,2.5303,0.0,0.0,0.0,0.0,0.0,0.0,0.0,1.5224,1.6882,1.9576,1.9546,1.9614,2.0517,1.9847,1.9115,1.8561,0.0,0.0,0.0,0.0,0.0,0.0,0.0,0.0,0.0,0.0,0.0,0.0,0.0,0.0,0.0,0.0,0.0,1.6503,1.6489,0.0,0.0,0.0,0.0,0.0,0.0,0.0,0.0,0.0,0.0,0.0,0.0,0.0,0.0,0.0,0.0,0.0,0.0,0.0,0.0,2.508,2.5985,2.6968,2.7172,2.8219,2.923,2.9177,2.8231,2.7395,2.7525,2.6208,2.5012,2.5253,2.5303,2.5303,2.5303,2.5346,2.5406,2.5394,2.5503,0.0,0.0,0.0,0.0,2.7754,2.9097,3.0045,3.0339,3.0014,2.9761,2.9652,2.8352,2.7411,2.7091,2.6225,2.5901,2.623,2.5933,2.5757,2.5757,2.5506,2.5363,2.5363,2.5363,2.5346,2.533,2.533,2.5331,2.5303,2.5303,2.5303,2.5303,2.5303,2.5303,2.5303,2.5303,2.5303,2.5303,2.5303,2.5303,2.5303,0.0,0.0,0.0,0.0,0.0,0.0,0.0,1.4234,1.5694,1.7771,1.7752,1.8088,1.9473,1.883,1.8434,1.8759,0.0,0.0,0.0,0.0,0.0,0.0,0.0,0.0,0.0,0.0,0.0,0.0,0.0,0.0,0.0,0.0,0.0,0.0,0.0,0.0,0.0,0.0,0.0,0.0,0.0,0.0,2.0444,0.0,0.0,0.0,0.0,0.0,0.0,0.0,0.0,0.0,0.0,0.0,0.0,0.0,2.4402,2.4886,0.0,2.5743,2.6297,2.6965,2.6444,2.5923,2.6504,0.0,2.493,2.5141,2.5253,2.5303,2.533,2.5391,2.5447,2.5463,2.5564,2.5636,0.0,0.0,2.6719,2.8125,2.9443,3.0239,3.0182,2.9658,2.9283,2.9168,2.7612,2.6639,2.6601,2.5764,2.5322,2.5354,2.5331,2.5303,2.5303,2.5303,2.5303,2.5303,2.5303,2.5303,2.5303,2.5303,2.5303,2.5303,2.5303,2.5303,0.0,2.5303,2.5303,2.5303,2.5303,2.5303,2.5303,2.5303,2.5253,2.5192,0.0,0.0,0.0,0.0,0.0,0.0,0.0,0.0,1.5122,1.5894,1.6747,1.7581,1.8411,1.7754,1.7629,1.8507,0.0,0.0,0.0,0.0,0.0,0.0,0.0,0.0,0.0,0.0,0.0,0.0,2.0294,2.0559,2.0622,0.0,0.0,0.0,0.0,0.0,0.0,0.0,0.0,0.0,1.9219,1.9753,0.0,0.0,0.0,0.0,0.0,0.0,0.0,0.0,0.0,0.0,0.0,0.0,0.0,0.0,0.0,0.0,0.0,2.3815,2.4353,2.468,2.4914,2.5164,2.5523,0.0,0.0,2.501,2.5163,2.5322,2.5403,2.5459,2.5511,2.5595,2.5659,2.5703,2.5683,2.6504,2.7383,2.8203,2.9049,2.948,2.9232,2.9152,2.9052,2.892,2.7428,2.6505,2.6505,2.5726,2.5303,2.5303,2.5303,2.5303,2.5303,2.5303,2.5303,2.5303,2.5303,2.5303,2.5303,2.5303,2.5303,0.0,2.5303,2.5303,2.5303,2.5303,2.5303,2.5303,2.5303,2.5303,2.5303,2.5303,2.5173,2.5003,0.0,0.0,0.0,0.0,0.0,0.0,0.0,0.0,0.0,0.0,1.5053,1.549,1.6458,1.6773,1.7337,0.0,0.0,0.0,0.0,0.0,0.0,0.0,0.0,0.0,0.0,0.0,0.0,2.0455,2.0848,2.0934,2.0735,2.0735,0.0,0.0,0.0,0.0,0.0,0.0,0.0,0.0,1.9722,2.0152,0.0,0.0,0.0,0.0,2.2537,2.2987,0.0,0.0,0.0,0.0,0.0,0.0,0.0,0.0,2.2695,2.2473,2.2563,0.0,2.2909,2.3448,2.3642,2.3869,0.0,0.0,0.0,0.0,0.0,2.5322,2.5403,2.5459,2.5511,2.5595,2.5659,2.5683,2.5633,2.696,2.7995,2.819,2.948,2.9808,2.8442,2.8231,2.7913,2.7236,2.6197,2.561,2.561,2.5399,2.5303,2.5303,2.5303,2.5303,2.5303,2.5303,2.5303,2.5303,2.5303,2.5303,2.5303,2.5303,2.5303,2.5303,2.5303,2.5303,2.5303,2.5303,2.5303,2.5303,2.5303,2.5303,2.5303,2.5303,2.5264,2.5118,0.0,0.0,0.0,0.0,0.0,0.0,0.0,0.0,0.0,0.0,0.0,0.0,0.0,0.0,0.0,0.0,0.0,0.0,0.0,0.0,0.0,0.0,0.0,0.0,0.0,0.0,0.0,0.0,0.0,2.01,0.0,0.0,0.0,0.0,0.0,0.0,0.0,0.0,0.0,1.8707,1.9781,0.0,0.0,0.0,0.0,0.0,2.2122,2.2623,0.0,2.3773,2.361,2.3129,0.0,0.0,0.0,0.0,2.2599,2.249,2.2508,2.2432,2.2443,2.3038,2.3189,2.3441,2.4301,0.0,0.0,0.0,0.0,2.5371,2.5428,2.5508,2.5564,2.5634,2.5644,2.5769,2.611,2.6965,2.7842,2.8657,2.9458,2.9601,2.8636,2.8155,2.7544,2.6678,2.5793,2.5303,2.5303,2.5303,2.5303,2.5303,2.5303,2.5303,2.5303,2.5303,2.5303,2.5303,2.5303,2.5303,2.5303,2.5303,2.5303,2.5303,2.5303,2.5303,2.5303,2.5303,2.5303,2.5303,2.5303,2.5303,2.5303,2.5203,2.5118,2.4922,0.0,0.0,0.0,0.0,0.0,0.0,0.0,0.0,0.0,0.0,0.0,0.0,0.0,0.0,0.0,0.0,0.0,0.0,0.0,0.0,0.0,0.0,0.0,0.0,0.0,0.0,0.0,0.0,0.0,0.0,0.0,0.0,0.0,0.0,0.0,0.0,0.0,0.0,1.7008,1.8301,1.9334,0.0,0.0,0.0,0.0,0.0,0.0,0.0,0.0,2.3031,2.3005,2.2634,2.2634,0.0,0.0,0.0,0.0,0.0,2.2849,2.2737,2.2726,2.3105,2.3259,2.3534,2.4319,0.0,0.0,0.0,0.0,0.0,2.5498,2.5554,2.5611,2.5683,2.5751,2.6107,2.7041,2.7162,2.7662,2.9038,2.9186,2.9046,2.8642,2.8058,2.7332,2.6467,2.5717,2.5303,2.5303,2.5303,2.5303,2.5303,2.5303,2.5303,2.5303,2.5303,2.5303,2.5303,2.5303,2.5303,2.5303,2.5303,2.5303,2.5303,2.5303,0.0,2.5253,2.5253,2.5243,2.5222,2.5222,2.5222,2.5192,2.5041,2.4904,2.4662,0.0,0.0,0.0,0.0,0.0,0.0,0.0,0.0,0.0,0.0,0.0,0.0,0.0,0.0,0.0,0.0,0.0,0.0,0.0,0.0,0.0,0.0,0.0,0.0,0.0,0.0,0.0,0.0,0.0,0.0,1.8747,1.8828,1.7058,0.0,0.0,0.0,0.0,1.4897,1.6034,1.7361,1.7985,0.0,0.0,0.0,0.0,0.0,0.0,0.0,0.0,2.191,2.2341,2.236,2.236,0.0,0.0,0.0,0.0,0.0,2.3135,2.3587,2.394,2.3342,2.3538,2.3987,2.4389,0.0,0.0,0.0,0.0,0.0,0.0,2.5554,2.5611,2.5683,2.622,2.7142,2.8693,2.887,2.8671,2.8264,2.8791,2.8335,2.6102,2.6458,2.6447,2.5572,2.538,2.5303,2.5303,2.5303,2.5303,2.5303,2.5303,2.5303,2.5303,2.5303,2.5303,2.5303,2.5303,2.5303,2.5303,2.5303,2.5303,2.5303,0.0,2.5203,2.5046,2.5046,2.4981,2.4888,2.4888,2.4888,2.4855,2.4842,2.4832,2.4756,0.0,0.0,0.0,0.0,0.0,0.0,0.0,0.0,0.0,0.0,0.0,0.0,0.0,0.0,0.0,0.0,0.0,0.0,0.0,0.0,0.0,0.0,0.0,0.0,0.0,0.0,0.0,0.0,0.0,1.8593,1.7622,1.6283,1.4621,1.2746,0.0,0.0,1.2818,1.356,1.4501,1.5567,0.0,0.0,0.0,0.0,0.0,0.0,0.0,0.0,0.0,0.0,2.2056,2.231,2.231,0.0,0.0,0.0,0.0,0.0,2.3414,2.3728,2.397,2.3692,2.414,2.4634,2.4666,0.0,0.0,0.0,0.0,0.0,0.0,0.0,2.5781,2.6225,2.6943,2.7709,2.8438,2.8521,2.8357,2.7991,2.828,2.7846,2.6159,2.637,2.6236,2.536,2.5303,2.5303,2.5303,2.5303,2.5303,2.5303,2.5303,2.5303,2.5303,2.5303,2.5303,2.5303,2.5303,2.5303,2.5303,2.5303,2.5303,2.5303,0.0,2.5192,2.501,2.501,2.493,2.4804,2.4804,2.4804,2.479,2.4685,2.4279,2.3884,0.0,0.0,0.0,0.0,0.0,0.0,0.0,0.0,0.0,0.0,0.0,0.0,0.0,0.0,0.0,0.0,0.0,0.0,0.0,0.0,0.0,0.0,0.0,0.0,0.0,0.0,0.0,1.8423,1.8581,1.7977,1.6652,1.4339,1.2916,0.0,0.0,0.0,0.0,1.2364,1.3047,1.3799,0.0,0.0,0.0,0.0,0.0,0.0,0.0,0.0,0.0,0.0,0.0,0.0,0.0,0.0,0.0,2.3093,2.3277,2.3392,2.3714,2.3985,2.416,2.4136,2.4617,2.517,2.5393,0.0,0.0,0.0,0.0,0.0,0.0,2.5952,2.6244,2.6977,2.7776,2.8352,2.8469,2.8313,2.8102,2.7909,2.7717,2.7255,2.639,2.6294,2.6024,2.5341,2.5303,2.5303,2.5303,2.5303,2.5303,2.5303,2.5303,2.5303,2.5303,2.512,2.5024,2.5024,2.5207,2.5187,2.5024,2.5207,2.5303,2.5303,2.5253,2.513,2.4949,2.4911,2.4681,2.4392,2.4579,2.4654,2.462,2.4271,2.3785,2.3327,0.0,0.0,0.0,0.0,0.0,0.0,0.0,0.0,0.0,0.0,0.0,0.0,0.0,0.0,0.0,0.0,0.0,0.0,0.0,0.0,0.0,0.0,0.0,0.0,0.0,1.8609,1.8454,1.9131,1.8656,1.7869,1.6744,1.5333,1.4047,1.2918,0.0,0.0,0.0,1.1838,1.2118,1.2596,1.3415,0.0,0.0,0.0,0.0,0.0,0.0,0.0,0.0,0.0,0.0,0.0,0.0,0.0,2.2772,2.3093,2.3414,2.3753,2.4074,2.4838,2.5374,2.4647,2.4645,0.0,2.6999,2.6977,0.0,2.8609,0.0,0.0,0.0,2.6851,2.7142,2.7887,2.8676,2.9438,3.0117,2.9525,2.8736,2.7986,2.7198,2.6351,2.5476,2.538,2.536,2.5303,2.5303,2.5303,2.5303,2.5303,2.5303,2.5303,2.5303,2.5303,2.5303,2.4562,2.4187,2.4206,2.4947,2.4909,2.4206,2.4966,2.5303,2.5303,2.5099,2.4943,2.4804,2.4623,2.3982,2.3198,2.3952,2.4247,2.4155,2.3401,2.3529,2.3914,0.0,0.0,0.0,0.0,0.0,0.0,0.0,0.0,0.0,0.0,0.0,0.0,0.0,0.0,0.0,0.0,0.0,0.0,0.0,0.0,0.0,0.0,0.0,1.6875,1.802,1.8359,1.868,1.8992,1.7724,1.647,1.5294,1.3874,0.0,0.0,0.0,0.0,0.0,1.1376,1.1517,1.2003,1.2353,1.2751,0.0,0.0,0.0,0.0,0.0,0.0,0.0,0.0,2.1446,0.0,0.0,0.0,0.0,0.0,2.33,2.3522,2.4036,2.4579,2.492,2.4729,0.0,0.0,0.0,2.7199,2.7601,2.7693,2.8177,0.0,0.0,0.0,2.6973,2.7254,2.8342,2.9101,2.8882,2.8986,2.8602,2.7255,2.6794,2.6255,2.538,2.5303,2.5303,2.5303,2.5303,2.5082,2.4582,2.4543,2.4312,2.3755,2.3755,2.3755,2.3755,2.3428,2.3024,2.2504,2.3889,2.4659,2.487,2.5149,2.5303,2.5264,2.4564,2.4468,2.4695,2.345,2.2965,2.2997,2.2776,2.2703,2.2721,2.2942,2.3199,2.3382,0.0,0.0,0.0,0.0,0.0,0.0,0.0,0.0,0.0,0.0,0.0,0.0,0.0,0.0,0.0,0.0,0.0,0.0,0.0,0.0,0.0,0.0,0.0,1.5509,1.6396,1.7611,1.8353,1.859,1.6903,1.5457,1.4185,0.0,0.0,0.0,0.0,0.0,0.0,0.0,1.1114,1.1469,1.1702,1.1993,0.0,0.0,0.0,0.0,0.0,0.0,0.0,0.0,0.0,0.0,0.0,0.0,0.0,0.0,0.0,2.3346,2.4016,2.4393,2.4623,0.0,0.0,0.0,2.6611,2.7473,2.817,2.8363,2.8823,0.0,2.7266,0.0,0.0,2.6801,2.7904,2.8539,2.7978,2.814,2.789,2.6736,2.637,2.5967,2.536,2.5303,2.5303,2.5303,2.5063,2.4678,2.4129,2.3841,2.3399,2.2767,2.2775,2.2784,2.2748,2.245,2.2181,2.1927,2.3007,2.387,2.4524,2.4793,2.4928,2.488,2.406,2.3809,2.3889,2.251,2.2214,2.2538,2.1712,2.1547,2.1839,2.2116,2.2391,2.2556,0.0,0.0,0.0,0.0,0.0,0.0,0.0,0.0,0.0,0.0,0.0,0.0,0.0,0.0,0.0,0.0,0.0,0.0,0.0,0.0,0.0,0.0,0.0,1.3779,1.4866,1.6477,1.7492,1.787,1.6418,1.506,1.3766,1.332,0.0,0.0,0.0,0.0,0.0,0.0,1.0918,1.0951,1.1551,1.1811,1.1957,0.0,0.0,0.0,0.0,0.0,0.0,0.0,2.0722,0.0,0.0,0.0,0.0,0.0,2.3189,2.3346,2.4016,2.4495,2.4804,0.0,0.0,0.0,2.7678,2.8005,2.8832,3.1358,2.9971,2.8027,2.7168,2.6947,0.0,2.6792,2.7459,2.7948,2.7892,2.714,2.6601,2.6582,2.5832,2.5303,2.5303,2.5303,2.5303,2.5303,2.4543,2.411,2.4091,2.3263,2.2728,2.259,2.27,2.2709,2.2579,2.171,2.179,2.2774,2.2441,2.2471,2.2831,2.3706,2.411,2.4072,2.3657,2.303,2.226,2.1932,2.1784,2.1692,2.0831,2.1015,2.1674,2.0831,2.1051,2.1564,0.0,0.0,0.0,0.0,0.0,0.0,0.0,0.0,0.0,0.0,0.0,0.0,0.0,0.0,0.0,0.0,0.0,0.0,0.0,0.0,0.0,0.0,0.0,0.0,0.0,0.0,1.6133,1.6354,1.5526,1.4508,0.0,0.0,0.0,1.2418,0.0,0.0,0.0,0.0,1.1191,1.091,1.1169,1.1468,1.1909,0.0,0.0,0.0,0.0,0.0,0.0,0.0,0.0,0.0,0.0,0.0,0.0,2.3346,2.3544,2.3649,2.4074,2.4495,0.0,2.4804,0.0,0.0,0.0,2.8036,0.0,0.0,2.9158,2.748,2.7851,2.6869,2.596,2.5907,2.6566,2.6857,2.6179,2.639,2.637,2.5774,2.5457,2.5303,2.5303,2.5303,2.5303,2.5303,2.4543,2.3841,2.3225,2.235,2.1603,2.0992,2.1026,2.1026,2.0973,2.0585,2.0547,2.0833,2.063,2.159,2.352,2.3769,2.3809,2.3619,2.2357,2.1921,2.2032,2.1219,2.0556,2.0021,1.9748,1.9803,2.0079,2.0391,2.0649,2.0813,0.0,0.0,0.0,0.0,0.0,0.0,0.0,0.0,0.0,0.0,0.5311,0.4895,0.0,0.0,0.0,0.0,0.0,0.0,0.6793,0.6943,0.0,0.0,0.0,0.0,0.0,1.493,1.5297,0.0,0.0,0.0,0.0,0.0,0.0,1.2836,0.0,1.2584,0.0,0.0,1.1681,1.1206,1.125,1.1491,1.1895,0.0,0.0,0.0,0.0,0.0,0.0,0.0,0.0,0.0,0.0,0.0,0.0,2.3145,2.3458,2.3723,2.3824,2.43,0.0,2.4869,2.5746,2.6602,2.6657,0.0,0.0,0.0,2.834,2.7168,2.7695,2.6595,2.5595,2.5551,2.5892,2.6002,2.5425,2.5765,2.589,2.536,2.5303,2.5168,2.4851,2.4812,2.4678,2.4332,2.3543,2.2814,2.223,2.1386,2.0623,2.0039,2.0069,2.0069,2.002,1.9899,1.9869,1.9922,2.0032,2.0958,2.2609,2.2749,2.2707,2.2476,2.1111,2.0666,2.0886,2.027,1.9748,1.9305,1.9305,1.9305,1.9344,1.984,2.0023,2.0023,0.0,0.0,0.9411,0.8902,0.0,0.0,0.0,0.0,0.0,0.0,0.4964,0.467,0.0,0.0,0.0,0.4391,0.4702,0.4999,0.5201,0.555,0.0,0.0,0.0,0.0,0.0,0.0,0.0,0.0,0.0,0.0,0.0,0.0,1.3347,1.3815,0.0,1.3499,0.0,1.2573,1.211,1.1648,1.1648,1.1707,1.1892,1.271,0.0,0.0,0.0,0.0,0.0,0.0,0.0,0.0,2.227,0.0,2.3051,2.2674,2.3118,2.3715,2.3466,2.4091,2.4828,2.4962,2.5738,0.0,2.6747,2.7351,2.7924,2.8143,0.0,2.6992,2.6992,2.6244,2.5605,2.5603,2.5484,2.542,2.5398,2.529,2.5207,2.5284,2.5168,2.4812,2.4168,2.4033,2.3648,2.2851,2.1985,2.1433,2.1309,2.047,1.989,1.9623,1.9738,1.9738,1.9623,1.9614,1.9656,1.9786,2.0193,2.0486,2.0666,2.1077,2.1145,2.0903,1.998,1.9471,1.9305,1.9305,1.9305,1.9305,1.9305,1.9305,1.9305,1.9305,1.9305,1.9289,0.0,0.0,0.94,0.881,0.0,0.0,0.0,0.0,0.0,0.0,0.0,0.0,0.0,0.0,0.0,0.3785,0.3611,0.3842,0.4544,0.4559,0.5333,0.0,0.0,0.0,0.0,0.0,0.0,0.0,0.0,0.0,0.0,0.0,0.0,1.3805,0.0,1.3368,1.2423,1.2058,1.1596,1.1166,1.1166,1.1405,1.1859,1.2399,1.3144,0.0,0.0,0.0,0.0,0.0,0.0,0.0,2.0898,2.1918,2.2674,2.2846,2.3452,2.4097,2.4204,2.4507,0.0,2.4962,2.5331,2.5863,2.6623,2.6455,2.6342,2.7128,2.7129,2.6992,2.6992,2.6289,2.566,2.5605,2.5539,2.5465,2.5413,2.4797,2.4582,2.5207,2.4139,2.3543,2.4052,2.3475,2.3004,2.2812,2.1985,2.1433,2.1309,2.047,1.9933,1.9762,1.9778,1.9797,1.9762,1.9643,1.9609,1.9649,1.9594,1.9577,1.9641,2.0504,2.0549,1.9892,1.9545,1.9335,1.9305,1.9305,1.9305,1.9305,1.9305,1.9305,1.9305,1.9305,1.9305,1.9274,0.0,0.0,0.0,0.0,0.0,0.0,0.0,0.0,0.0,0.0,0.0,0.0,0.0,0.3885,0.0,0.0,0.3368,0.3324,0.3581,0.3971,0.5116,0.7217,0.0,0.0,0.0,0.0,0.0,0.0,0.0,0.0,0.0,0.0,0.0,1.4653,0.0,1.3871,1.3073,1.2396,1.1982,1.1712,1.1452,1.1675,1.2161,1.2624,1.3104,1.3615,1.4052,0.0,0.0,0.0,0.0,0.0,0.0,0.0,2.2058,2.2406,2.3118,2.3817,2.4095,0.0,0.0,2.5088,0.0,2.5576,2.6076,2.5899,2.5797,2.6289,2.6387,2.6387,2.6387,2.6016,2.5683,2.5605,2.5219,2.4904,2.4819,2.4045,2.362,2.4043,2.3331,2.2812,2.2851,2.2447,2.1987,2.1492,2.1042,2.069,2.0505,2.0066,1.9731,1.9567,1.9553,1.9553,1.9553,1.9495,1.9456,1.9456,1.935,1.9305,1.9323,1.9852,1.9921,1.9601,1.938,1.9305,1.9305,1.9305,1.9305,1.9305,1.9305,1.9305,1.9305,1.9305,1.9305,1.9274,0.0,0.0,0.0,0.0,0.0,0.0,0.0,0.0,0.0,0.0,0.0,0.0,0.0,0.4275,0.4057,0.0,0.0,0.0,0.2708,0.357,0.498,0.7058,0.9196,0.0,0.0,0.0,0.0,0.0,0.0,0.0,0.0,0.0,0.0,1.5564,0.0,0.0,1.3962,1.3081,1.2649,1.2472,1.202,1.2095,1.2556,1.2972,1.3131,1.3267,1.3735,1.4333,1.509,1.6219,0.0,0.0,0.0,0.0,2.128,2.1665,2.2498,2.3375,2.3719,0.0,2.5061,2.5101,2.5304,0.0,2.5503,2.5607,2.5664,2.5508,2.5488,2.5488,2.5488,2.5351,2.5232,2.5176,2.4534,2.4044,2.3974,2.3165,2.262,2.2774,2.2543,2.2139,2.1562,2.1334,2.0898,2.006,1.9993,1.9858,1.9609,1.9614,1.9513,1.9305,1.9305,1.9305,1.9305,1.9305,1.9305,1.9305,1.9305,1.9305,1.9305,1.9305,1.938,1.9541,1.9365,1.9305,1.9305,1.9305,1.9305,1.9305,1.9305,1.9305,1.9305,1.9305,1.9305,1.9271,0.0,0.0,0.0,0.0,0.0,0.0,0.0,0.0,0.0,0.0,0.4783,0.4387,0.4387,0.3829,0.3475,0.3612,0.3317,0.3023,0.2703,0.0,0.0,0.5305,0.8034,0.0,0.0,0.0,0.0,0.0,0.0,0.0,0.0,0.0,0.0,1.5608,0.0,0.0,0.0,1.343,1.2947,1.2473,1.2424,1.246,1.2544,1.3017,1.3191,1.3267,1.3735,1.4181,1.4676,1.5492,1.6496,0.0,0.0,0.0,2.0444,2.0837,2.2073,2.3375,2.3714,0.0,2.5101,0.0,2.4929,2.5526,0.0,0.0,2.5488,2.4727,2.457,2.457,2.457,2.3961,2.3443,2.3439,2.3236,2.3069,2.3076,2.2277,2.1947,2.2716,2.1523,2.0869,2.1446,2.0708,2.0146,2.0012,1.9901,1.9762,1.9596,1.9614,1.9513,1.9305,1.9305,1.9305,1.9305,1.9305,1.9305,1.9305,1.9305,1.9305,1.9305,1.9305,1.9305,1.9335,1.9305,1.9305,1.9305,1.9305,1.9305,1.9305,1.9305,1.9305,1.9305,1.9305,1.9305,1.9164,0.0,0.0,0.0,0.0,0.0,0.0,0.0,0.0,0.0,0.0,0.0,0.4387,0.4387,0.3857,0.3507,0.3575,0.3456,0.3174,0.2711,0.2271,0.2679,0.4106,0.6319,0.8387,0.0,0.0,0.0,0.0,0.0,0.0,0.0,1.6507,1.6568,0.0,0.0,0.0,0.0,0.0,1.3131,1.2873,1.2615,1.265,1.2908,1.3129,1.3198,1.3232,1.3425,1.3934,1.4564,1.485,1.5859,1.7061,1.763,0.0,0.0,0.0,2.1492,2.2243,2.3064,2.3647,2.4038,0.0,2.452,2.4836,2.4854,2.4916,2.4727,2.3848,2.328,2.308,2.3588,2.3368,2.3076,2.3007,2.2522,2.2153,2.211,2.1363,2.0966,2.135,2.0647,2.0277,2.0622,2.0183,1.9858,1.9786,1.9713,1.9617,1.9438,1.9423,1.938,1.9305,1.9305,1.9305,1.9305,1.9305,1.9305,1.9305,1.9305,1.9305,1.9305,1.9305,1.9305,1.9305,1.9305,1.9032,1.8629,1.8629,1.8629,1.8629,1.8629,1.8904,1.9305,1.9305,1.9014,1.8559,0.0,0.0,0.0,0.0,0.0,0.0,0.0,0.0,0.0,0.0,0.0,0.4783,0.4652,0.0,0.0,0.0,0.3581,0.3262,0.2539,0.1474,0.1472,0.2796,0.4602,0.6568,0.8641,0.0,0.0,0.0,0.0,0.0,1.6501,1.6926,1.7248,0.0,1.6401,0.0,0.0,0.0,0.0,1.3586,1.3076,1.3087,1.3433,1.3386,1.3301,1.3232,1.3323,1.3868,1.4533,1.4627,1.5607,1.6885,1.7428,1.8066,0.0,0.0,0.0,2.1403,0.0,0.0,2.3067,2.3493,2.378,2.4001,0.0,0.0,2.3848,2.2969,2.226,2.1932,2.2335,2.2405,2.236,2.2261,2.1682,2.1255,2.1205,2.0677,2.0277,2.0233,2.0078,1.9993,1.9944,1.9824,1.972,1.9596,1.9555,1.9471,1.9305,1.9305,1.9305,1.9305,1.9305,1.9305,1.9305,1.9305,1.9305,1.9305,1.9305,1.9305,1.9305,1.9305,1.9305,1.9305,1.9305,1.8831,1.8096,1.8096,1.7986,1.7821,1.8023,1.8335,1.8702,1.8922,1.8482,1.7784,0.0,0.0,0.0,0.0,0.0,0.0,0.0,0.0,0.0,0.0,0.0,0.5873,0.5308,0.4739,0.4132,0.3622,0.3581,0.3084,0.1919,0.1252,0.0939,0.1029,0.3249,0.0,0.6895,0.0,0.0,0.0,0.0,0.0,1.7069,1.6685,1.7088,1.8027,1.6925,1.617,1.5618,0.0,0.0,1.4765,1.4111,1.3938,1.4056,0.0,1.3581,0.0,1.3715,1.4149,1.4564,1.4937,1.5838,1.6885,1.7428,1.8066,1.8771,0.0,0.0,0.0,0.0,2.2262,0.0,2.209,2.2554,2.3166,0.0,2.3203,2.3027,2.2148,2.1889,2.1535,2.0698,2.0488,2.0435,2.0449,2.0397,2.0377,2.0369,2.0331,2.0233,2.0031,2.0012,1.9963,1.9813,1.9695,1.9596,1.9596,1.9409,1.9305,1.9305,1.9305,1.9305,1.9305,1.9305,1.9305,1.9305,1.9305,1.9305,1.9305,1.9305,1.9305,1.9305,1.9305,1.9305,1.9305,1.9305,1.8831,1.8096,1.8096,1.7642,1.7037,1.7789,1.766,1.7128,1.7894,1.7642,1.6853,0.0,0.0,0.0,0.0,0.0,0.0,0.0,0.0,0.0,0.0,0.0,0.0,0.0,0.5,0.4303,0.4136,0.3432,0.2854,0.2406,0.183,0.1652,0.2051,0.3187,0.4791,0.6799,0.0,0.0,0.0,0.0,1.5092,1.6084,1.6014,1.6395,1.7048,1.6671,1.6208,1.568,1.548,0.0,0.0,1.4266,1.4204,0.0,0.0,0.0,0.0,0.0,0.0,1.4937,1.5301,1.6031,1.6935,0.0,0.0,0.0,0.0,0.0,0.0,0.0,0.0,0.0,2.177,2.2107,2.2322,2.2324,2.2344,2.2109,2.1185,2.095,2.0791,2.04,2.033,2.0295,2.0294,2.0296,2.0312,2.0312,2.0197,2.0078,2.0012,1.9847,1.9713,1.9669,1.9509,1.9413,1.9413,1.9335,1.9305,1.9305,1.9305,1.9305,1.9305,1.9305,1.9305,1.9305,1.9305,1.9305,1.9305,1.9305,1.9305,1.9271,1.8775,1.8537,1.85,1.7986,1.7587,1.7293,1.6775,1.639,1.6169,1.6445,1.6702,1.6927,1.722,1.6817,1.6096,0.0,0.0,0.0,0.0,0.0,0.0,0.0,0.0,0.0,0.0,0.0,0.0,0.0,0.0,0.4565,0.4176,0.3249,0.2719,0.2719,0.214,0.1962,0.2364,0.2934,0.4215,0.63,0.0,0.0,0.0,0.0,0.0,0.0,1.5193,1.5535,1.6216,1.6026,1.5869,0.0,0.0,0.0,1.5104,0.0,0.0,1.5263,0.0,0.0,0.0,0.0,0.0,1.515,1.5535,1.6003,0.0,0.0,0.0,0.0,0.0,0.0,0.0,2.039,0.0,0.0,0.0,2.1445,2.1424,2.1424,2.1401,2.1296,2.0962,2.0846,2.0794,2.0745,2.0714,2.0617,2.0339,2.0312,2.0389,2.0658,2.0296,2.0183,2.0722,2.0308,2.009,2.0315,1.9954,1.9693,1.9693,1.9436,1.9305,1.9305,1.9305,1.9305,1.9305,1.9305,1.9305,1.9305,1.9305,1.9305,1.9305,1.9305,1.9161,1.8867,1.8335,1.795,1.7642,1.6853,1.6487,1.645,1.5912,1.5545,1.5325,1.5582,1.5857,1.6138,1.6395,1.5986,1.5307,0.0,1.0211,1.0507,1.0206,0.9758,0.9136,0.0,0.0,0.0,0.0,0.0,0.0,0.0,0.0,0.0,0.3718,0.3081,0.2719,0.2719,0.2184,0.1875,0.1875,0.2406,0.349,0.5184,0.0,0.0,0.0,0.0,0.0,0.0,0.0,1.4631,0.0,1.512,1.5207,1.5661,0.0,1.5092,1.5663,0.0,1.5331,1.6489,0.0,0.0,0.0,1.5945,1.5684,0.0,1.5668,0.0,0.0,0.0,0.0,0.0,0.0,0.0,0.0,0.0,0.0,0.0,0.0,2.0542,2.0508,2.0508,2.0441,2.064,2.1472,2.1618,2.1565,2.1578,2.1548,2.1254,2.0504,2.0323,2.0554,2.1342,2.0632,2.0589,2.2073,2.141,2.109,2.1746,2.1033,2.0521,2.0503,1.9785,1.9341,1.9289,1.9305,1.9305,1.9305,1.9305,1.9305,1.9305,1.9305,1.9305,1.9305,1.9305,1.8867,1.8096,1.8078,1.7624,1.6817,1.6004,1.5655,1.5655,1.5655,1.5197,1.4579,1.5362,1.5197,1.4579,1.538,1.5178,1.4488,0.9898,1.0655,1.1039,1.1022,1.0127,0.9148,0.0,0.0,0.0,0.0,0.0,0.0,0.0,0.0,0.0,0.3869,0.3501,0.335,0.335,0.3173,0.3084,0.3084,0.3262,0.3957,0.0,0.0,0.0,0.0,0.0,0.0,0.0,0.0,0.0,0.0,1.4734,1.4902,1.5417,1.5306,0.0,1.6258,1.5937,1.6208,0.0,0.0,0.0,0.0,0.0,1.5758,1.5668,0.0,1.6296,1.6735,0.0,0.0,0.0,0.0,0.0,0.0,2.0376,0.0,0.0,0.0,0.0,0.0,2.0508,2.0441,2.0456,2.0642,2.0673,2.083,2.1425,2.1501,2.1639,2.2043,2.0983,2.0155,2.0384,2.0509,2.0744,2.1157,2.139,2.1596,2.1784,2.1565,2.118,2.0539,2.0283,1.9913,1.9326,1.9305,1.9305,1.9305,1.9305,1.9305,1.9305,1.9305,1.9305,1.9305,1.9305,1.8867,1.8078,1.7495,1.678,1.5986,1.5178,1.4829,1.4829,1.4829,1.4701,1.4524,1.4756,1.4701,1.4524,1.4756,1.4701,1.4488,0.9322,1.0094,1.0615,1.1086,1.047,0.0,0.0,0.0,0.0,0.0,0.0,0.0,0.0,0.0,0.0,0.0,0.3757,0.3581,0.3581,0.3581,0.3581,0.3581,0.3796,0.4355,0.0,0.0,0.0,0.0,0.0,0.0,0.0,0.0,0.0,0.0,0.0,0.0,0.0,0.0,0.0,0.0,1.5965,0.0,0.0,1.6789,1.6412,0.0,0.0,0.0,1.6173,1.6102,1.647,0.0,0.0,0.0,0.0,0.0,0.0,0.0,0.0,0.0,0.0,0.0,0.0,0.0,2.0,2.0147,2.0357,2.0308,2.0565,2.0938,2.1416,2.1442,2.156,2.2058,2.0839,2.0126,2.0975,2.1211,2.1444,2.1812,2.2105,2.2428,2.2758,2.2501,2.2097,2.1566,2.1235,2.0684,1.9858,1.9803,1.9656,1.9323,1.9305,1.9305,1.9305,1.9305,1.9305,1.9305,1.8959,1.839,1.7568,1.6762,1.5967,1.5178,1.4701,1.4488,1.4488,1.4488,1.4488,1.4488,1.4488,1.4488,1.4488,1.4488,1.4488,1.4488,0.0,0.9109,0.981,1.0768,1.0903,0.0,0.0,0.0,0.0,0.0,0.0,0.0,0.0,0.0,0.0,0.0,0.4135,0.3817,0.3799,0.3814,0.0,0.0,0.4264,0.4783,0.0,0.0,0.0,0.0,0.0,0.0,0.0,0.0,0.0,0.0,1.4406,1.4406,0.0,0.0,0.0,1.6292,1.5604,1.6326,0.0,0.0,1.7087,1.6744,1.7084,1.6967,1.6623,1.6123,1.6517,0.0,0.0,0.0,0.0,0.0,2.0031,0.0,0.0,0.0,0.0,0.0,2.0386,0.0,1.9278,1.9612,2.0134,2.0107,2.0683,2.1201,2.1297,2.1302,2.1297,2.1323,2.0502,2.0463,2.2148,2.2074,2.2123,2.2898,2.2993,2.329,2.4006,2.3511,2.3107,2.3015,2.2244,2.1455,2.0686,2.0539,2.017,1.9455,1.9344,1.9305,1.9305,1.9305,1.9305,1.9305,1.8482,1.7679,1.6872,1.6078,1.5252,1.4488,1.4488,1.4488,1.4488,1.4488,1.4488,1.4488,1.4488,1.4488,1.4488,1.4488,1.4488,1.4488,0.8915,0.9478,1.0061,1.1384,0.0,0.0,0.0,0.0,0.0,0.0,0.0,0.0,0.0,0.0,0.0,0.0,0.0,0.5181,0.0,0.0,0.5176,0.4971,0.5087,0.5394,0.6007,0.0,0.0,0.0,0.0,0.0,0.0,0.0,0.0,0.0,0.0,0.0,0.0,0.0,0.0,1.6642,1.6804,1.7104,1.7455,1.7631,1.733,1.6759,1.6569,1.6624,1.6807,1.6959,1.7085,1.7365,0.0,0.0,0.0,1.982,0.0,0.0,0.0,0.0,0.0,0.0,1.9921,0.0,1.9092,1.8985,1.9066,1.8954,1.9066,1.938,2.0074,2.0725,2.1353,2.1978,2.176,2.1428,2.1185,2.0926,2.0862,2.1025,2.2188,2.307,2.3235,2.3676,2.3694,2.3052,2.2244,2.1729,2.1547,2.0886,2.0429,2.0264,1.9638,1.9305,1.9305,1.9305,1.9305,1.9305,1.8482,1.7679,1.6872,1.6078,1.5252,1.4488,1.4488,1.4488,1.4488,1.4488,1.4488,1.4488,1.4488,1.4488,1.4488,1.4488,1.4488,1.4488,0.8467,0.9038,0.9829,1.1082,0.0,0.0,0.0,0.0,0.0,0.0,0.0,0.0,0.0,0.0,0.0,0.0,0.0,0.0,0.0,0.0,0.558,0.5318,0.5567,0.5873,0.6179,0.6477,0.0,0.0,0.0,0.0,0.0,0.0,0.0,0.0,0.0,0.0,0.0,0.0,1.6065,1.6527,1.6727,0.0,1.7043,1.7401,1.7129,1.6581,1.6747,1.6799,1.6889,1.7584,1.756,0.0,1.8228,1.8717,1.9084,0.0,1.979,2.0039,0.0,0.0,0.0,1.9404,1.9448,0.0,0.0,1.8143,1.8564,1.8067,1.8302,1.885,1.9711,2.0132,2.0615,2.1422,2.1384,2.1118,2.0699,2.0952,2.0996,2.0539,2.197,2.2997,2.2997,2.3731,2.4025,2.3639,2.3217,2.2813,2.2428,2.1987,2.1346,2.0521,2.0115,1.9711,1.9289,1.9305,1.9305,1.9305,1.8078,1.7293,1.6853,1.5655,1.4885,1.4488,1.4488,1.4488,1.4488,1.4488,1.4488,1.4488,1.4488,1.4488,1.4488,1.4488,1.4488,1.4488,0.8182,0.8709,0.9503,1.0579,0.0,0.0,0.0,0.0,0.0,0.0,0.0,0.0,0.0,0.0,0.0,0.0,0.0,0.0,0.0,0.0,0.0,0.5723,0.611,0.6349,0.6349,0.6768,0.0,0.0,0.0,0.0,0.0,0.0,0.0,0.0,0.0,0.0,0.0,0.0,0.0,1.6409,0.0,1.6555,1.6872,1.7263,1.7076,1.6644,1.7199,1.7126,1.6946,1.7896,1.7798,1.7415,1.8001,1.8457,0.0,0.0,0.0,0.0,0.0,0.0,0.0,1.916,1.8862,1.8343,0.0,0.0,0.0,1.735,1.7772,1.8516,1.9331,1.9505,1.9694,2.0148,2.0218,2.0144,1.9946,2.0692,2.1018,2.0338,2.1749,2.2776,2.2776,2.3511,2.4025,2.419,2.4061,2.3749,2.3272,2.3088,2.2373,2.1016,2.0668,2.0189,1.9528,1.9381,1.9305,1.9271,1.7839,1.7055,1.6853,1.5386,1.4664,1.4488,1.4488,1.4488,1.4488,1.4488,1.4488,1.4488,1.4488,1.4488,1.4488,1.4488,1.4488,1.4488,0.9241,0.9393,0.9703,1.048,0.0,0.0,0.0,0.0,0.0,0.0,0.0,0.0,0.0,0.0,0.0,0.0,0.0,0.0,0.7687,0.0,0.0,0.0,0.7032,0.6894,0.6894,0.6979,0.7558,0.0,0.0,0.0,0.0,0.0,0.0,0.0,1.5551,0.0,0.0,0.0,1.6163,0.0,1.6738,1.6924,0.0,1.7606,1.7704,1.7635,1.7704,1.7337,1.6908,0.0,1.7616,1.7415,0.0,1.8393,1.8699,1.9091,0.0,0.0,0.0,1.9736,1.9052,1.8258,1.8045,1.7698,1.6414,0.0,1.6496,1.6873,0.0,1.7343,1.8135,0.0,0.0,1.8276,1.8723,1.8857,1.7967,1.868,1.9355,1.9439,2.0904,2.195,2.195,2.2666,2.3437,2.4153,2.3547,2.3419,2.4025,2.34,2.2905,2.2703,2.1273,2.0448,2.0356,1.9656,1.9305,1.9305,1.839,1.7587,1.6872,1.5967,1.5178,1.4488,1.4488,1.4488,1.4488,1.4488,1.4488,1.4488,1.4488,1.4488,1.4488,1.4488,1.4488,1.4488,0.956,0.95,0.978,0.0,0.0,0.0,0.0,0.0,0.0,0.0,0.0,0.0,0.0,0.0,0.0,0.0,0.0,0.9467,0.8295,0.0,0.0,0.0,0.7657,0.7449,0.7838,0.7278,0.7398,0.0,0.9209,0.0,0.0,0.0,0.0,0.0,1.5432,0.0,1.5743,0.0,1.6474,0.0,0.0,1.7296,0.0,1.7743,1.7811,1.7811,1.7811,1.7612,1.7408,0.0,1.7704,0.0,0.0,0.0,0.0,1.8771,0.0,0.0,0.0,1.9516,1.8796,1.8027,1.7407,1.669,1.5643,1.5639,1.5926,1.6158,0.0,0.0,0.0,0.0,0.0,0.0,1.8288,1.836,1.7043,1.7968,1.8807,1.8877,2.0623,2.217,2.3088,2.3088,2.3327,2.4135,2.3456,2.3364,2.4153,2.3878,2.3492,2.2997,2.2318,2.1475,2.0503,2.017,1.9767,1.9305,1.8482,1.7931,1.755,1.6279,1.5509,1.5178,1.4701,1.4488,1.4488,1.4488,1.4488,1.4488,1.4488,1.4488,1.4488,1.4488,1.4488,1.4488,1.0283,0.0,0.0,0.0,0.0,0.0,0.0,0.0,0.0,0.0,0.0,0.0,1.2101,1.1683,0.0,0.0,1.0722,1.0367,0.8962,0.0,0.9376,0.0,0.846,0.8216,0.8351,0.7731,0.7574,0.0,0.0,0.0,0.0,0.0,0.0,0.0,0.0,1.571,1.5614,0.0,1.6696,1.7296,1.7296,1.7502,1.7811,1.7811,1.7811,1.7811,1.7811,1.7811,1.7811,1.7811,1.7811,0.0,1.7811,1.7881,1.8017,0.0,0.0,0.0,1.9114,0.0,1.8101,1.7597,1.6748,1.5838,1.5068,1.5196,1.5524,1.568,1.6169,0.0,0.0,0.0,0.0,0.0,0.0,1.7469,1.6325,1.7328,1.821,1.8285,2.0102,2.1917,2.3307,2.2758,2.2666,2.3474,2.305,2.3069,2.3823,2.4174,2.4062,2.3436,2.3231,2.2528,2.1279,2.0818,2.0252,1.962,1.8812,1.8317,1.806,1.6665,1.5912,1.5655,1.4848,1.4488,1.4488,1.4488,1.4488,1.4488,1.4488,1.4488,1.4488,1.4488,1.4488,1.4488,1.1737,1.1737,0.0,0.0,0.0,0.0,0.0,0.0,0.0,0.0,0.0,0.0,0.0,0.0,1.2559,0.0,1.152,1.101,1.0188,1.0001,0.9636,0.9115,0.9542,0.9225,0.7942,0.827,0.827,0.0,0.0,0.0,0.0,0.0,0.0,0.0,0.0,1.5968,1.627,1.6285,1.6696,1.7296,1.7296,1.7502,1.7811,0.0,1.7811,1.7811,1.7811,0.0,0.0,1.7811,1.7811,0.0,0.0,0.0,0.0,0.0,0.0,0.0,0.0,0.0,0.0,1.6617,1.5981,1.5257,1.4973,1.4914,1.5067,1.5588,1.571,1.5916,0.0,0.0,0.0,0.0,0.0,0.0,0.0,1.6499,1.7252,1.7507,1.9147,2.0572,2.1423,2.095,2.0941,2.1821,2.198,2.233,2.2997,2.4148,2.4666,2.4458,2.3821,2.3403,2.321,2.16,2.0678,2.0448,1.9656,1.8849,1.8078,1.7238,1.6431,1.5655,1.4848,1.4488,1.4488,1.4488,1.4488,1.4488,1.4488,1.4488,1.4488,1.4488,1.4488,1.4488,1.2779,0.0,0.0,0.0,0.0,0.0,0.0,1.2876,0.0,1.3102,1.3427,1.3443,1.2939,1.3238,1.3054,1.1913,1.2164,1.1895,1.0689,1.0957,1.0962,1.053,1.0318,0.9947,0.9375,0.881,0.8493,0.0,0.0,0.0,0.0,0.0,0.0,0.0,0.0,1.5696,0.0,0.0,0.0,0.0,0.0,1.7704,1.7811,0.0,1.7905,1.8057,1.7861,1.7905,0.0,1.7878,1.7811,1.7839,1.8065,1.7589,1.7027,1.7469,1.7194,1.6812,0.0,0.0,1.6253,1.6483,1.5856,1.514,1.5055,1.4962,1.4942,1.5019,1.5458,1.5772,0.0,0.0,0.0,0.0,0.0,0.0,0.0,0.0,1.5966,1.7214,1.8883,2.0331,2.1295,2.096,2.1041,2.1858,2.2092,2.2534,2.3288,2.4264,2.4775,2.47,2.4492,2.402,2.3319,2.2159,2.1235,2.0484,1.9675,1.9161,1.8849,1.7513,1.6743,1.6413,1.5074,1.4488,1.4488,1.4488,1.4488,1.4488,1.4488,1.4488,1.4488,1.4488,1.4488,1.4488,1.4024,1.4348,0.0,0.0,0.0,0.0,0.0,1.3802,1.4081,1.3983,1.4295,1.4246,1.36,1.3884,1.3711,1.2589,1.2977,1.2677,1.1389,1.1859,1.1872,1.1121,1.1046,1.0677,0.9917,0.9351,0.8954,0.0,0.0,0.964,0.0,0.0,0.0,0.0,0.0,1.5536,1.6328,1.6659,1.6977,0.0,0.0,1.7811,0.0,0.0,1.7971,1.8187,0.0,1.8146,1.8191,1.7905,1.639,1.4668,1.49,1.608,1.7326,1.7037,1.6406,1.5882,1.6332,1.6079,0.0,1.5986,1.5602,0.0,1.5071,1.5027,1.4926,1.4809,1.5186,1.5397,0.0,0.0,0.0,0.0,0.0,0.0,0.0,1.4073,1.5332,1.6525,1.8159,1.9529,2.039,2.0399,2.0616,2.1181,2.167,2.2275,2.304,2.4005,2.4664,2.4864,2.4936,2.4617,2.3921,2.2773,2.1821,2.1016,1.9929,1.9365,1.925,1.7624,1.6908,1.6817,1.5203,1.4488,1.4488,1.4488,1.4488,1.4488,1.4488,1.4488,1.4488,1.4488,1.4488,1.4488,1.5317,1.4831,1.4272,0.0,1.4818,1.4823,1.498,1.4538,1.454,1.5501,1.478,1.4326,1.4653,1.4744,1.4514,1.3909,1.3815,1.3403,1.2338,1.2665,1.2312,1.105,1.1738,1.1372,0.9625,0.9899,0.9659,0.0,0.0,0.0,0.0,0.0,0.0,0.0,1.4907,0.0,1.6301,1.6659,1.7002,1.7344,1.7681,1.7811,1.7811,1.7878,1.7826,1.783,1.8403,1.8297,1.7875,1.7825,1.4022,0.923,0.8637,1.27,1.7383,1.5773,1.4909,1.4556,1.4804,1.4885,1.4954,1.516,1.5256,0.0,0.0,0.0,1.5067,1.4936,1.4916,1.4848,0.0,0.0,0.0,0.0,0.0,0.0,0.0,0.0,1.533,1.5556,1.703,1.8239,1.8714,1.9251,1.9632,1.979,2.0779,2.1646,2.2287,2.3492,2.4418,2.5003,2.5203,2.5203,2.501,2.34,2.2393,2.1988,2.0374,1.9499,1.925,1.7624,1.6908,1.6817,1.5203,1.4488,1.4488,1.4488,1.4488,1.4488,1.4488,1.4488,1.4488,1.4488,1.4488,1.4488,1.507,1.6055,1.681,1.6674,1.6295,1.6058,1.6101,1.5957,1.5831,1.564,1.5755,1.56,1.4778,1.5096,1.5141,1.4514,1.4468,1.4178,1.353,1.3202,1.2748,1.2063,1.1855,1.1397,1.0611,1.0259,1.0031,0.9883,0.0,0.0,1.1605,0.0,0.0,0.0,0.0,0.0,1.5955,1.6554,1.7142,1.7681,1.7766,1.7811,1.7883,0.0,1.5747,1.1926,1.6835,1.5724,1.2514,1.647,1.6779,1.3971,0.5074,0.3432,0.5615,0.995,1.2777,1.4529,1.4589,1.4776,1.5021,1.516,1.5202,1.5235,0.0,0.0,0.0,0.0,0.0,0.0,0.0,0.0,0.0,0.0,0.0,0.0,0.0,0.0,1.5912,1.6663,1.7112,1.7573,1.814,1.8689,1.9266,1.9896,2.1474,2.2489,2.2661,2.414,2.5062,2.5224,2.5274,2.5203,2.501,2.34,2.2393,2.1988,2.0374,1.9499,1.925,1.7624,1.6908,1.6817,1.5203,1.4488,1.4488,1.4488,1.4488,1.4488,1.4488,1.4488,1.4488,1.4488,1.4488,1.4488,1.6476,1.7757,1.8506,1.8,1.7731,1.7397,1.6908,1.7063,1.698,1.6403,1.6426,1.6162,1.5223,1.5235,1.5049,1.4462,1.4376,1.4121,1.3528,1.3195,1.2869,1.2407,1.2116,1.1753,1.1378,1.0746,1.0603,1.0954,0.0,0.0,1.1768,0.0,0.0,0.0,0.0,1.5154,1.6301,1.6952,1.7455,1.7811,1.7954,1.6976,0.0,1.5185,1.4411,1.3181,1.1192,1.1945,1.3497,1.0904,1.003,0.8846,0.2112,0.0,0.0716,0.439,0.6736,0.8787,1.1697,1.2619,1.3163,1.4781,1.5189,1.5201,1.5245,1.5287,1.5274,0.0,1.5215,1.5152,0.0,0.0,0.0,0.0,0.0,0.0,0.0,0.0,1.597,1.6646,1.6931,1.7433,1.8266,1.8631,1.9175,2.0057,2.1438,2.2389,2.2774,2.4062,2.4947,2.5284,2.5303,2.5081,2.4605,2.3332,2.2348,2.1683,2.0389,1.965,1.9387,1.776,1.6982,1.6817,1.5203,1.4488,1.4488,1.4488,1.4488,1.4488,1.4488,1.4488,1.4488,1.4488,1.4488,1.4488,1.8559,1.9346,1.9531,1.8996,1.895,1.8705,1.774,1.7876,1.7906,1.737,1.6877,1.6389,1.5822,1.531,1.4787,1.4225,1.4157,1.383,1.32,1.3077,1.2894,1.2528,1.2401,1.22,1.1895,1.1302,1.1255,1.1811,0.0,0.0,0.0,0.0,0.0,0.0,0.0,0.0,0.0,1.7455,1.7789,1.7883,1.8014,1.6063,1.2867,1.1331,1.4309,1.7835,0.657,0.867,1.5264,0.5267,0.1045,0.0,0.0,0.0,0.0,0.0,0.0,0.1552,0.867,1.0601,1.135,1.4434,1.5201,1.5195,1.5207,1.5268,1.5304,1.5309,1.5352,1.5381,1.5311,0.0,0.0,0.0,0.0,0.0,0.0,1.5702,1.6025,1.621,1.6756,0.0,1.8707,1.8935,1.9398,2.0386,2.1205,2.2004,2.2754,0.0,2.4409,2.512,2.5245,2.4966,2.4264,2.3302,2.2355,2.1462,2.045,1.979,1.9391,1.7864,1.7003,1.6652,1.5148,1.4488,1.4488,1.4488,1.4488,1.4488,1.4488,1.4488,1.4488,1.4488,1.4488,1.4488,1.9079,1.9511,0.0,0.0,1.9783,1.9485,1.9294,1.8631,1.7887,1.7238,1.7036,1.6753,1.6116,1.5649,1.5335,1.5259,1.4929,1.4511,1.3939,1.3488,1.3186,1.3067,1.2313,1.2048,1.2365,1.1902,1.1684,1.1811,0.0,0.0,0.0,0.0,0.0,0.0,0.0,0.0,1.6815,1.7224,0.0,1.8056,1.7292,1.673,1.6353,1.6306,1.7546,1.8996,1.672,1.0525,0.4258,1.0013,0.6639,0.0,0.0,0.0,0.0,0.0,0.0,0.2092,1.1667,1.4276,1.444,1.511,1.5231,1.5207,1.527,1.5295,1.5299,1.5304,1.535,1.5387,1.5313,0.0,0.0,0.0,0.0,0.0,1.6227,1.7233,1.7665,1.7005,1.7071,1.7658,1.8843,1.9616,2.0398,2.1228,2.209,2.2639,2.2793,0.0,2.4168,0.0,2.4947,2.5226,0.0,0.0,2.2662,2.235,2.0641,1.9404,1.8565,1.7464,1.6562,1.5857,1.4921,1.4488,1.4488,1.4488,1.4488,1.4488,1.4488,1.4488,1.4488,1.4488,1.4488,1.4488,1.9783,0.0,0.0,0.0,2.0499,2.027,1.9847,1.9211,1.8477,1.7644,1.7261,1.6754,1.5792,1.5242,1.4998,1.4998,1.4791,1.4581,1.4324,1.4059,1.3895,1.3881,1.3429,1.3315,1.3529,1.3035,1.2922,1.3213,0.0,0.0,0.0,0.0,0.0,0.0,0.0,1.6291,0.0,0.0,0.0,1.8177,1.7981,1.8003,1.8174,1.8429,1.8849,1.9216,1.8665,1.3049,0.5983,0.6736,0.731,0.6829,0.1641,0.0,0.0,0.0,0.3749,0.8386,1.0637,1.3214,1.5255,1.5287,1.5284,1.5251,1.5292,1.53,1.5307,1.5295,1.5351,1.5387,1.5302,1.5504,0.0,0.0,1.677,1.6861,1.6535,1.7719,1.8213,1.7111,1.7641,1.8519,1.9619,2.0549,2.1059,2.0993,2.1727,2.2195,2.2224,2.3412,2.4102,0.0,0.0,0.0,2.4678,0.0,2.2536,2.202,2.069,1.9741,1.9075,1.7749,1.6854,1.6248,1.5019,1.4488,1.4488,1.4488,1.4488,1.4488,1.4488,1.4488,1.4488,1.4488,1.4488,1.4488,2.0567,2.0829,0.0,2.1118,2.0942,2.0575,2.0001,1.9547,1.8898,1.79,1.7325,1.6607,1.5506,1.4952,1.4627,1.4627,1.4564,1.4501,1.4501,1.4501,1.4501,1.4501,1.4501,1.4501,1.4501,1.4093,1.4093,1.4501,1.3484,0.0,0.0,0.0,0.0,0.0,0.0,0.0,0.0,0.0,1.827,1.8393,1.8628,1.8765,1.8832,1.8971,1.9032,1.8922,1.8027,1.5551,1.1755,0.5339,0.698,1.0735,0.4981,0.1717,0.0,0.0,0.5691,1.1564,0.9736,1.2194,1.5295,1.5315,1.5307,1.5292,1.5318,1.5326,1.5323,1.5292,1.5342,1.5409,1.5527,1.584,0.0,0.0,1.6731,1.6971,1.6366,1.7511,1.7969,1.679,1.7696,1.8716,1.9538,2.0425,2.0746,2.0269,2.127,2.1851,2.1701,2.3087,2.385,2.3848,0.0,2.4937,2.411,0.0,2.235,2.1485,2.0634,2.0012,1.9544,1.8049,1.7141,1.6657,1.5217,1.4567,1.4545,1.4511,1.4488,1.4488,1.4488,1.4488,1.4488,1.4488,1.4488,1.4488,2.1399,0.0,2.1118,2.1491,2.0695,1.9985,1.9891,1.9319,1.8491,1.7483,1.7,1.6486,1.5846,1.5328,1.5043,1.5043,1.4721,1.4501,1.4501,1.4501,1.4501,1.4501,1.4501,1.4501,1.4501,1.4446,1.4446,1.4501,1.3899,1.3956,0.0,0.0,0.0,0.0,0.0,0.0,0.0,1.8065,1.8469,1.886,1.812,1.7959,1.8196,1.821,1.8207,1.817,1.7825,1.7605,1.7054,1.441,0.8112,0.2811,1.0942,0.7282,0.0,0.0,0.0673,0.3355,1.2175,1.4921,1.5318,1.5383,1.5331,1.5318,1.5387,1.5391,1.5379,1.5312,1.5299,1.553,1.6251,1.5792,1.5517,0.0,0.0,1.5809,1.5621,1.6459,1.6783,1.6007,1.6388,1.6804,1.703,1.7732,1.8495,1.9256,2.1528,2.2522,2.1744,2.26,2.3076,2.301,2.4566,2.4985,2.411,2.3244,2.235,2.1485,2.0498,1.9621,1.8868,1.7795,1.6885,1.614,1.5235,1.4785,1.4677,1.4556,1.4488,1.4488,1.4488,1.4488,1.4488,1.4488,1.4488,1.4488,2.1552,2.1705,2.1707,2.1418,2.0971,2.0362,1.9442,1.8886,1.8259,1.74,1.7143,1.68,1.6157,1.5924,1.5824,1.5824,1.5851,1.5892,1.5892,1.5892,1.5892,1.5892,1.568,1.5579,1.5579,1.5359,1.5359,1.5579,1.5384,1.5485,1.5968,1.5712,1.6071,1.6957,0.0,1.7798,1.8258,1.8548,1.8807,1.8983,1.8752,1.8718,1.8812,1.8812,1.8812,1.8684,1.7605,1.7343,1.7238,1.5489,1.2576,0.9233,0.6731,0.531,0.3965,0.0905,0.0,0.158,0.8779,1.3003,1.5377,1.5391,1.5389,1.5368,1.5386,1.5402,1.5385,1.5302,1.5264,1.5345,1.5663,1.5868,1.5882,1.5563,0.0,1.6204,1.5266,1.6231,1.6619,1.5506,1.6493,1.7322,1.7401,1.8603,1.9736,2.0636,2.1152,2.1533,2.1756,2.2086,2.2703,2.3653,0.0,2.4443,2.4091,2.3244,2.235,2.1485,2.0598,1.9952,1.9487,1.8602,1.7388,1.5948,1.5122,1.4707,1.4589,1.4522,1.4488,1.4488,1.4488,1.4488,1.4488,1.4488,1.4488,1.4488,2.2046,2.2265,2.2214,2.155,2.1267,2.0641,1.9222,1.8643,1.8117,1.7545,1.7345,1.709,1.651,1.6448,1.6448,1.6448,1.6659,1.6789,1.6789,1.6789,1.6789,1.6789,1.6581,1.6448,1.6448,1.6219,1.6219,1.6448,1.6448,1.6633,1.6952,1.7126,1.7429,1.7842,1.7928,1.8238,1.8734,1.8914,1.9035,1.9084,1.9227,1.9335,1.938,1.938,1.938,1.921,1.7879,1.7448,1.7298,1.6092,1.5958,1.489,0.6967,0.4887,0.4947,0.2849,0.3289,0.5283,0.8958,1.2623,1.5407,1.54,1.5402,1.5327,1.5078,1.5212,1.537,1.5316,1.5255,1.5189,1.5189,1.5695,1.5888,1.5177,0.0,0.0,1.5087,1.5818,1.6238,1.5559,1.6622,1.7536,1.7867,1.8952,1.9996,2.0861,2.0382,2.0557,2.1737,2.2285,2.2957,0.0,0.0,0.0,2.3725,2.2851,2.1985,2.1139,2.0581,2.0233,2.0059,1.92,1.7785,1.5968,1.5334,1.4987,1.4906,1.486,1.4848,1.4848,1.4848,1.4719,1.4488,1.4488,1.4488,1.4488,2.3063,2.2923,2.2554,2.2066,2.1397,2.0555,1.946,1.8672,1.81,1.7833,1.7502,1.7175,1.6841,1.6789,1.6789,1.6789,1.6789,1.6789,1.6789,1.6789,1.6789,1.6789,1.6789,1.6789,1.6789,1.6789,1.6789,1.6789,1.6789,1.6952,1.732,1.7915,1.8187,1.8208,1.8469,1.8752,1.9002,1.9002,1.9101,1.9289,1.9289,1.9427,1.9601,1.9601,1.9601,1.9516,1.8821,1.8505,1.8291,1.7747,1.718,1.6494,1.537,0.8152,0.1078,0.6044,1.106,1.5061,1.5246,1.5344,1.5392,1.5409,1.5391,1.5176,1.4316,1.4785,1.5389,1.5312,1.5255,1.5189,1.5189,1.5209,1.5209,1.5189,0.0,0.0,1.4988,1.5007,1.5357,1.629,1.6451,1.6875,1.7813,1.7864,1.8192,1.9074,1.918,1.9968,2.1708,0.0,0.0,2.3043,2.3854,0.0,2.284,2.1947,2.1119,2.0312,2.0312,2.0304,2.0265,1.9256,1.7877,1.6268,1.5995,1.5886,1.5874,1.5735,1.5692,1.5692,1.5692,1.5197,1.4488,1.4488,1.4488,1.4488,2.3165,2.3117,2.2664,2.145,2.1047,2.0424,1.9052,1.8628,1.8371,1.8103,1.7997,1.7805,1.7502,1.7272,1.715,1.715,1.7361,1.7479,1.7479,1.7479,1.7479,1.7479,1.7248,1.715,1.715,1.6917,1.6917,1.715,0.0,1.7415,1.7915,1.8293,1.8566,1.8752,1.8825,1.9,1.9196,1.9196,1.9227,1.9305,1.9456,1.9541,1.9609,1.9707,1.9738,1.9644,1.8866,1.8625,1.8468,1.7164,1.677,1.6629,1.5549,1.2959,1.0002,0.8142,1.1247,1.5287,1.5375,1.5398,1.5408,1.5391,1.5391,1.5332,1.5059,1.5194,1.5377,1.5307,1.5284,1.5255,1.5201,1.5189,1.5189,1.5189,1.5152,0.0,1.519,1.5201,1.5545,1.6497,1.7103,1.7573,1.7868,1.8872,1.9868,2.0731,2.1424,2.1783,0.0,0.0,0.0,0.0,2.2682,0.0,2.1908,2.1639,2.11,2.0312,2.0312,2.0233,2.0068,1.9201,1.8402,1.7697,1.7011,1.6682,1.657,1.6549,1.6188,1.5747,1.6298,1.568,1.4561,1.5123,1.4976,1.4488,2.3522,2.3227,2.2593,2.1446,2.0962,2.0295,1.8949,1.8752,1.8642,1.8391,1.8351,1.829,1.8103,1.7898,1.7721,1.7526,1.7681,1.7811,1.7811,1.7883,1.7949,1.7949,1.7849,1.7793,1.7793,1.7574,0.0,1.7793,1.7793,1.7984,1.8351,1.8623,1.8825,1.9001,1.9086,1.9182,1.9305,1.9305,1.9335,1.9409,1.9541,1.9656,1.9762,1.9847,1.969,1.9368,1.8916,1.8564,1.8163,1.7152,1.686,1.6772,1.5945,1.5488,1.4608,1.14,1.2765,1.5303,1.5348,1.5376,1.5408,1.5391,1.5391,1.5391,1.5391,1.4898,1.4609,1.5219,1.5054,1.4893,1.5187,1.5212,1.5189,1.5189,1.5189,1.5218,1.5289,1.5298,1.5749,1.6992,1.7597,1.8157,1.8805,1.9495,2.0114,0.0,0.0,0.0,0.0,0.0,2.217,2.2492,2.1964,2.1603,2.1504,2.1196,2.0812,2.0312,2.0312,2.0197,1.9993,1.9439,1.8896,1.8373,1.7733,1.7425,1.7348,1.7348,1.7037,1.6628,1.6817,1.6101,1.4976,1.5178,1.494,1.4488,2.4056,2.33,2.2383,2.1879,2.1088,2.0162,1.9179,1.9018,1.8931,1.866,1.8641,1.8604,1.8604,1.8585,1.8391,1.7905,1.7856,1.7856,1.7856,1.8082,1.8229,1.8229,1.8469,1.8585,1.8585,1.8585,1.8585,1.8585,1.8604,1.8641,1.8623,1.8914,1.9018,1.9018,1.923,1.9305,1.9305,1.9305,1.9442,1.9596,1.9623,1.9786,1.9993,2.0022,1.9516,1.8819,1.8954,1.8367,1.7513,1.7591,1.7292,1.683,1.6509,1.5898,1.5291,1.5229,1.5251,1.5303,1.5313,1.534,1.5401,1.539,1.5391,1.5391,1.5391,1.4156,1.344,1.5062,1.4704,1.4345,1.5147,1.525,1.5201,1.5201,1.5201,1.5229,1.5298,1.5369,1.6013,1.7719,1.7968,0.0,2.0334,1.9704,1.9227,0.0,0.0,0.0,0.0,0.0,2.3419,2.1662,2.154,2.1481,2.1427,2.0677,2.0312,2.0312,2.0235,2.0139,2.0003,1.9858,1.9324,1.8472,1.8273,1.8188,1.8188,1.8188,1.8115,1.795,1.7257,1.6413,1.5527,1.4848,1.4543,1.4488,2.406,2.3491,2.2648,2.1932,2.1088,2.0211,1.9355,1.9246,1.915,1.8913,1.8914,1.8825,1.8623,1.8585,1.8547,1.843,1.841,1.841,1.841,1.8469,1.8508,1.8508,1.8566,1.8585,1.8585,1.8585,1.8585,1.8585,1.8807,1.8914,1.8914,1.9134,1.9246,1.9227,1.9274,1.9305,1.9305,1.9452,1.9555,1.9609,1.9813,1.9934,2.0022,2.0161,1.9695,1.8966,1.8977,1.842,1.7565,1.6977,1.6696,1.6477,1.5801,1.5444,1.5302,1.5284,1.5329,1.5381,1.5385,1.5382,1.541,1.5391,1.5391,1.5391,1.5391,1.5078,1.49,1.5319,1.5229,1.5117,1.5268,1.5299,1.5275,1.5275,1.5275,1.5278,1.5294,1.591,1.6777,1.785,1.8555,1.9373,2.0393,1.9702,1.9485,0.0,0.0,2.0136,2.0196,2.1508,2.1769,2.0665,2.0615,2.0605,2.0581,2.0408,2.0312,2.0292,1.9619,1.9553,2.0003,1.9858,1.9613,1.9303,1.9103,1.9014,1.9014,1.9014,1.8298,1.722,1.7642,1.6573,1.4848,1.5252,1.5031,1.4488,2.3015,2.2428,2.173,2.129,2.0519,1.9803,1.9363,1.9305,1.9259,1.915,1.9134,1.9084,1.8948,1.8912,1.8912,1.8912,1.8734,1.8585,1.8585,1.8715,1.8789,1.8789,1.8878,1.8912,1.8912,1.8912,1.8912,1.8912,1.9084,1.9134,1.9134,1.9243,1.9305,1.9305,1.9305,1.935,1.9438,1.9555,1.9669,1.9809,1.9934,2.006,2.0114,1.9807,1.9158,1.8369,1.7984,1.7298,1.6509,1.6083,1.5959,1.5873,1.5435,1.5313,1.5345,1.5345,1.5373,1.5394,1.5394,1.5406,1.5391,1.5391,1.5391,1.5391,1.5391,1.5098,1.4922,1.5328,1.5087,1.4919,1.5243,1.5299,1.5162,1.4766,1.536,1.5722,1.539,1.6444,1.757,1.8496,1.9004,1.9628,2.0464,2.0111,1.9877,1.9955,2.0254,0.0,1.9358,2.0395,2.0784,2.0307,2.0289,2.0306,2.0312,2.0312,2.0312,2.0292,1.9812,1.9692,1.9912,1.9901,1.9536,1.8916,1.8902,1.8624,1.8207,1.8207,1.7679,1.6908,1.6977,1.6206,1.5068,1.5123,1.4885,1.4488,2.1815,2.1154,2.0551,2.0551,1.9887,1.9335,1.9305,1.9305,1.9305,1.9305,1.9305,1.9305,1.9305,1.9305,1.9305,1.9305,1.893,1.8716,1.8716,1.8913,1.9052,1.9052,1.9214,1.9305,1.9305,1.9305,1.9305,1.9305,1.9305,1.9305,1.9305,1.9305,1.9305,1.9305,1.9305,1.9394,1.9555,1.9609,1.9762,1.9964,2.0022,2.0152,2.0196,1.9331,1.8453,1.758,1.6792,1.5951,1.5218,1.5279,1.5306,1.5303,1.5313,1.536,1.5395,1.5398,1.5398,1.5398,1.5398,1.5407,1.5391,1.5391,1.5391,1.5391,1.5391,1.4824,1.4512,1.5254,1.4801,1.4495,1.52,1.532,1.5168,1.4675,1.5676,1.6392,1.6034,0.0,1.8392,1.9198,1.9394,1.9765,2.0506,2.0447,2.0018,1.9158,1.971,1.9389,1.7773,1.909,1.9908,1.9908,2.0048,2.0042,1.9908,1.9908,1.9965,2.01,1.995,1.9859,1.9817,1.9667,1.9062,1.8163,1.8198,1.7714,1.6917,1.6922,1.6835,1.6652,1.5967,1.5619,1.5435,1.4756,1.4488,1.4488,2.1985,2.139,2.0749,2.0749,2.008,1.9499,1.932,1.9305,1.9305,1.9305,1.9305,1.9305,1.9305,1.9305,1.9305,1.9305,1.9243,1.9196,1.9196,1.9227,1.9243,1.9243,1.9274,1.9305,1.9305,1.9305,1.9305,1.9305,1.9305,1.9305,1.9305,1.9305,1.9305,1.9305,1.9305,1.932,1.9365,1.965,1.9778,1.9866,2.0134,2.0277,2.0196,1.9323,1.8465,1.758,1.6792,1.5986,1.5284,1.5298,1.5292,1.5313,1.5364,1.5392,1.5397,1.5408,1.539,1.539,1.539,1.539,1.5391,1.5391,1.5391,1.5391,1.5391,1.5293,1.5234,1.5371,1.5293,1.5234,1.535,1.538,1.5795,1.7086,1.6949,1.7127,1.8423,0.0,1.9119,1.9205,1.9867,2.0348,2.0416,1.9766,1.8984,1.8173,1.8181,1.7772,1.6764,1.7605,1.8108,1.8108,1.8826,1.8857,1.81,1.81,1.8472,1.9184,1.8398,1.8705,1.9916,1.8411,1.7968,1.8406,1.7627,1.7213,1.7065,1.6943,1.6487,1.5876,1.5747,1.5288,1.4683,1.4543,1.4488,1.4488,2.0828,2.0495,2.0172,2.0238,1.9881,1.9599,1.9567,1.9567,1.9545,1.9467,1.9471,1.9409,1.9305,1.9305,1.9305,1.9305,1.9305,1.9305,1.9305,1.9305,1.9305,1.9305,1.9305,1.9305,1.9305,1.9305,1.9305,1.9305,1.9305,1.9305,1.9305,1.9305,1.9305,1.9305,1.9305,1.935,1.9485,1.9695,1.9836,1.9933,2.0188,2.0023,1.9504,1.8638,1.7773,1.6952,1.6146,1.5623,1.5311,1.5342,1.5348,1.5364,1.5383,1.5406,1.5408,1.539,1.5391,1.5391,1.5391,1.5391,1.5391,1.5391,1.5409,1.5406,1.5406,1.5362,1.5355,1.5355,1.5355,1.5352,1.5355,1.5355,1.5592,1.6373,1.6971,1.7622,1.8381,1.9326,1.9929,1.986,1.9818,1.9795,1.9752,1.8978,1.8296,1.793,1.828,1.7907,1.6566,1.7709,1.7991,1.708,1.7856,1.8107,1.7702,1.7702,1.7895,1.8299,1.7853,1.8002,1.864,1.7856,1.735,1.7068,1.6726,1.6228,1.5697,1.5643,1.5386,1.505,1.505,1.4829,1.4488,1.4488,1.4488,1.4488,1.9909,1.9802,1.9724,1.9836,1.976,1.9712,1.9778,1.979,1.9762,1.9656,1.9623,1.9541,1.9398,1.932,1.9305,1.9305,1.9305,1.9305,1.9305,1.9305,1.9305,1.9305,1.9305,1.9305,1.9305,1.9305,1.9305,1.9305,1.9305,1.9305,1.9305,1.9305,1.9305,1.9305,1.9305,1.9398,1.9541,1.9726,1.9858,1.9954,1.9986,1.96,1.8876,1.7818,1.7042,1.6394,1.5569,1.5298,1.5311,1.5353,1.5394,1.5403,1.541,1.5391,1.5391,1.5391,1.5391,1.5391,1.5391,1.5391,1.5391,1.541,1.5404,1.5392,1.5389,1.5334,1.5296,1.5296,1.5468,1.5595,1.5594,1.5757,1.6013,1.6425,0.0,1.8313,1.8737,1.9753,2.0386,2.0126,1.9558,1.9091,1.8865,1.8251,1.7839,1.7808,1.8401,1.8175,1.6811,1.7806,1.7741,1.6234,1.6984,1.7311,1.7119,1.7311,1.7426,1.7426,1.7394,1.7424,1.7479,1.7179,1.6654,1.594,1.5818,1.5317,1.4545,1.4511,1.4488,1.4488,1.4488,1.4488,1.4488,1.4488,1.4488,1.4488,2.0225,2.0106,1.9964,1.9974,1.9974,1.9924,1.9813,1.979,1.9809,1.9797,1.9669,1.9582,1.9569,1.9409,1.9305,1.9305,1.9305,1.9305,1.9305,1.9305,1.9305,1.9305,1.9305,1.9305,1.9305,1.9305,1.9305,1.9305,1.9305,1.9305,1.9305,1.9305,1.9305,1.9305,1.9305,1.9305,1.935,1.9657,1.9821,1.9779,1.929,1.9069,1.8819,1.7202,1.6542,1.6388,1.5528,1.525,1.5293,1.5318,1.5355,1.5391,1.5391,1.5391,1.5391,1.5391,1.5391,1.5391,1.5391,1.5391,1.539,1.5401,1.5395,1.5389,1.5326,1.5299,1.5296,1.5296,1.5929,1.6506,1.6502,1.7105,1.8139,1.9764,0.0,0.0,2.12,2.0846,2.0106,1.9283,1.9143,1.8767,1.7883,1.7742,1.7663,1.753,1.7699,1.7687,1.7437,1.6956,1.6253,1.533,1.6138,1.6195,1.5382,1.6195,1.658,1.658,1.646,1.678,1.746,1.5843,1.546,1.6035,1.5178,1.4763,1.4677,1.4556,1.4488,1.4488,1.4488,1.4488,1.4488,1.4488,1.4488,1.4488,2.0285,2.0241,2.0188,2.0188,2.0188,2.018,2.0107,2.0107,2.0079,1.9943,1.9821,1.9695,1.9609,1.9409,1.9305,1.9305,1.9305,1.9305,1.9305,1.9305,1.9305,1.9305,1.9305,1.9305,1.9305,1.9305,1.9305,1.9305,1.9305,1.9305,1.9305,1.8794,1.8555,1.8555,1.8555,1.8555,1.8585,1.8864,1.8994,1.8941,1.842,1.7895,1.7375,1.6734,1.6157,1.5663,1.5361,1.528,1.5318,1.5358,1.5382,1.5391,1.5391,1.5391,1.5391,1.5391,1.5391,1.5391,1.5391,1.5391,1.541,1.54,1.5366,1.5326,1.5303,1.5268,1.5391,1.5932,1.6314,1.67,1.7178,1.7578,1.8184,1.9401,0.0,1.9515,2.0672,2.0551,2.0172,1.9719,1.9216,1.8726,1.8232,1.7738,1.7425,1.7387,1.7498,1.732,1.6728,1.6053,1.5541,1.5209,1.5434,1.5453,1.5189,1.5931,1.6062,1.556,1.598,1.6081,1.5872,1.5204,1.501,1.5215,1.4858,1.4656,1.456,1.4522,1.4488,1.4488,1.4488,1.4488,1.4499,1.4581,1.4578,1.4511,2.0205,2.0269,2.0312,2.0312,2.0312,2.0312,2.0312,2.0312,2.0241,2.0115,1.9953,1.9802,1.9682,1.9495,1.9365,1.9305,1.9305,1.9305,1.9305,1.9305,1.9305,1.9305,1.9305,1.9179,1.8922,1.9161,1.9051,1.8555,1.8794,1.8794,1.8537,1.7986,1.7715,1.7715,1.7715,1.7715,1.7743,1.8004,1.8127,1.8073,1.7531,1.6984,1.6465,1.6195,1.5715,1.522,1.525,1.5284,1.5318,1.536,1.5382,1.5391,1.5391,1.5391,1.5391,1.5391,1.5391,1.5391,1.5409,1.5408,1.5387,1.5371,1.5324,1.5361,1.5613,1.5634,1.5849,1.6696,1.708,1.7452,1.801,1.8371,1.8789,1.9381,1.9418,1.9573,2.012,2.0169,1.9994,1.9583,1.9039,1.8553,1.8154,1.7614,1.7407,1.7651,1.7756,1.7586,1.7032,1.633,1.5817,1.5555,1.5195,1.5155,1.5489,1.5931,1.5879,1.5353,1.5847,1.5678,1.4904,1.4868,1.4785,1.4707,1.4656,1.46,1.4499,1.4545,1.4567,1.4578,1.4622,1.4632,1.4643,1.4727,1.4707,1.4643,2.0012,2.0161,2.0304,2.0304,2.0304,2.0304,2.0304,2.0304,2.0304,2.0304,2.0115,1.9953,1.9802,1.9682,1.9513,1.932,1.9305,1.9305,1.9305,1.9289,1.9305,1.9305,1.9305,1.8922,1.8133,1.8886,1.8519,1.6908,1.7697,1.7679,1.6908,1.689,1.689,1.689,1.689,1.689,1.6917,1.7184,1.7291,1.7235,1.6716,1.6484,1.6407,1.5541,1.5189,1.5189,1.5189,1.5245,1.5296,1.5296,1.5334,1.5391,1.5391,1.5391,1.5391,1.5391,1.5391,1.539,1.54,1.5394,1.5389,1.5324,1.5303,1.5516,1.631,1.6503,1.6734,1.7542,1.8395,1.8992,1.9011,1.9715,2.0312,2.0304,2.0143,2.0031,2.0012,1.989,1.9496,1.8625,1.8512,1.82,1.7396,1.7321,1.7651,1.8444,1.8512,1.8577,1.8783,1.7964,1.7126,1.6322,1.5464,1.5372,1.6111,1.6111,1.6111,1.6111,1.6111,1.5678,1.4895,1.4766,1.4707,1.4678,1.4567,1.4499,1.4511,1.4645,1.4707,1.4698,1.4859,1.4904,1.4904,1.4904,1.4904,1.4904,1.9858,1.9909,1.996,1.996,1.996,1.9972,2.0088,2.0002,1.9972,2.0088,1.9877,1.9688,1.9656,1.9495,1.9383,1.9305,1.9305,1.9305,1.9305,1.8775,1.8463,1.8463,1.8996,1.9179,1.8941,1.861,1.8225,1.7734,1.7422,1.7147,1.689,1.6334,1.6059,1.6059,1.6059,1.6059,1.6085,1.6349,1.646,1.6404,1.5828,1.5599,1.5561,1.5311,1.5189,1.5189,1.5189,1.5245,1.5296,1.5296,1.5334,1.5391,1.5391,1.5391,1.5391,1.5391,1.5391,1.539,1.54,1.5364,1.5321,1.5299,1.5717,1.6208,1.6445,1.6946,1.7587,1.8434,1.8819,1.9184,1.9792,2.06,2.1105,2.0948,2.1395,2.1524,2.0804,2.067,2.0502,2.0167,1.9612,1.9335,1.9534,1.9035,1.8864,1.9238,1.8356,1.7823,1.7879,1.7051,1.6766,1.7126,1.6705,1.6843,1.7639,1.7079,1.6846,1.6941,1.6846,1.6434,1.5714,1.5122,1.4832,1.4832,1.4794,1.4776,1.4776,1.4813,1.4832,1.4841,1.4886,1.4904,1.4913,1.4957,1.4933,1.4913,1.9713,1.9762,1.979,1.979,1.979,1.9824,1.9912,1.9847,1.9824,1.9912,1.9786,1.9656,1.9614,1.9499,1.9398,1.9305,1.8996,1.8831,1.8831,1.8078,1.7624,1.7624,1.8096,1.8207,1.7876,1.7711,1.7312,1.6683,1.6505,1.6248,1.5936,1.5454,1.5233,1.5233,1.5233,1.5233,1.5239,1.5506,1.563,1.5611,1.5311,1.5189,1.5189,1.5189,1.5189,1.5189,1.5189,1.5245,1.5296,1.5296,1.5334,1.5391,1.5391,1.5391,1.5391,1.5391,1.5391,1.539,1.5371,1.5582,1.5802,1.5787,1.6149,1.6582,1.6901,1.7619,1.8465,1.9331,1.9504,1.9773,2.0619,2.1116,2.1445,2.1678,2.1787,2.162,2.1009,2.0586,2.0429,2.0652,2.0248,2.0221,2.0958,2.0262,1.9733,1.962,1.8862,1.8422,1.8478,1.7688,1.7468,1.8,1.7468,1.7592,1.8415,1.7888,1.7471,1.7224,1.7489,1.6918,1.562,1.5441,1.5196,1.4904,1.4904,1.4904,1.4904,1.4936,1.4933,1.4942,1.5,1.5008,1.5015,1.5061,1.5047,1.5023,1.9569,1.9663,1.9774,1.9774,1.9774,1.9755,1.9786,1.9774,1.9755,1.9786,1.9774,1.9713,1.9582,1.9569,1.9499,1.932,1.8555,1.8096,1.8096,1.7275,1.6798,1.6798,1.6725,1.634,1.56,1.6376,1.6065,1.4598,1.527,1.5215,1.4488,1.4488,1.4488,1.4488,1.4488,1.4488,1.4511,1.4794,1.4904,1.4921,1.5127,1.5189,1.5189,1.5189,1.5189,1.5189,1.5189,1.5245,1.5299,1.5304,1.5356,1.5391,1.5391,1.5391,1.5391,1.5391,1.5391,1.5409,1.5412,1.6007,1.66,1.6617,1.6676,1.6926,1.7645,1.8484,1.9342,2.0131,2.0369,2.0631,2.1334,2.1455,2.1676,2.2433,2.1763,2.1071,2.0908,2.0166,1.9877,2.0539,2.0539,2.0849,2.1729,2.0974,2.0221,1.9652,1.9693,1.9815,1.9984,1.924,1.8829,1.8905,1.8013,1.7895,1.8699,1.8582,1.8124,1.7366,1.808,1.7318,1.5279,1.5864,1.5741,1.5052,1.4949,1.493,1.4919,1.4985,1.5021,1.5035,1.5146,1.5189,1.5189,1.5189,1.5189,1.5189,1.9383,1.9394,1.9405,1.9405,1.9405,1.9448,1.9623,1.9523,1.9462,1.9617,1.9509,1.9409,1.9365,1.9383,1.935,1.9305,1.8555,1.8096,1.8096,1.6757,1.5967,1.5967,1.5362,1.4928,1.4756,1.5545,1.5784,1.5435,1.4976,1.4683,1.4488,1.4488,1.4488,1.4488,1.4488,1.4488,1.4511,1.4794,1.4904,1.4921,1.5127,1.5189,1.5189,1.5189,1.5189,1.5189,1.5189,1.5245,1.5304,1.5363,1.539,1.5391,1.5391,1.5391,1.5391,1.5391,1.5391,1.5525,1.6141,1.6467,1.6736,1.7292,1.7953,1.8491,1.8684,1.9388,2.0073,2.0273,2.0812,2.1259,2.1253,2.2348,2.3195,2.3068,2.3409,2.3198,2.1777,2.1948,2.2024,2.1565,2.0923,2.0849,2.1729,2.0685,1.9901,1.9769,1.9402,1.9418,1.9974,1.924,1.9087,1.9726,1.9425,1.9337,1.9526,1.9522,1.9454,1.9371,1.8916,1.8506,1.8076,1.6936,1.6316,1.6124,1.5427,1.514,1.514,1.514,1.5165,1.5171,1.5183,1.5189,1.5189,1.5189,1.5189,1.5189,1.9305,1.9305,1.9305,1.9305,1.9305,1.9335,1.9442,1.9365,1.9335,1.9438,1.9383,1.9143,1.8775,1.872,1.8526,1.8048,1.7286,1.6812,1.6812,1.5583,1.4925,1.5111,1.463,1.4399,1.4506,1.4921,1.5123,1.5123,1.4719,1.4488,1.4488,1.4488,1.4488,1.4488,1.4488,1.4488,1.4511,1.4717,1.4832,1.4921,1.504,1.514,1.5189,1.5189,1.5189,1.5189,1.5189,1.5245,1.5307,1.5388,1.5391,1.5391,1.5391,1.5391,1.5391,1.5391,1.5663,1.6063,1.6486,1.7186,1.7878,1.823,1.8992,1.9511,1.9088,1.9965,2.0869,2.0869,2.1543,2.2191,2.2386,2.2795,2.3245,2.3745,2.3481,2.3027,2.2446,2.2391,2.2409,2.2373,2.1969,2.1746,2.1884,2.0966,2.0229,1.9909,1.964,1.9673,2.0114,1.9741,1.9703,2.0133,1.9973,1.9933,2.0031,1.9974,2.0002,2.0131,1.9641,1.9054,1.8357,1.7516,1.6899,1.6445,1.558,1.5189,1.5189,1.5189,1.5189,1.5189,1.5189,1.5189,1.5189,1.5189,1.5189,1.5189,1.9305,1.9305,1.9305,1.9305,1.9305,1.9305,1.9305,1.9305,1.9305,1.9305,1.9259,1.8987,1.8331,1.8115,1.7621,1.6655,1.5829,1.536,1.536,1.4438,1.4051,1.4422,1.4282,1.4295,1.4506,1.4488,1.4488,1.4488,1.4488,1.4488,1.4488,1.4488,1.4488,1.4488,1.4488,1.4488,1.4499,1.4645,1.4766,1.4867,1.4962,1.5075,1.5171,1.5189,1.5189,1.5189,1.5189,1.5245,1.5307,1.5388,1.5391,1.5391,1.5391,1.5391,1.543,1.5586,1.609,1.6676,1.6947,1.8043,1.9109,1.9206,1.9773,2.0119,1.9396,2.0389,2.1543,2.1696,2.2427,2.3132,2.3481,2.2956,2.2853,2.388,2.277,2.2024,2.2703,2.2208,2.2097,2.2905,2.3033,2.2788,2.2129,2.158,2.1047,2.0509,2.0346,2.0335,2.0496,2.0369,2.0312,2.0312,2.015,2.0131,2.0296,2.0203,2.0212,2.033,2.0225,1.9458,1.8153,1.8072,1.7636,1.6894,1.5873,1.5419,1.5407,1.5266,1.5189,1.5189,1.5189,1.5189,1.5189,1.5189,1.5189,1.5189,1.9305,1.9305,1.9305,1.9305,1.9305,1.9305,1.9305,1.9305,1.9305,1.9305,1.915,1.8999,1.889,1.8107,1.7272,1.6487,1.5651,1.5137,1.5137,1.4367,1.3997,1.4245,1.4201,1.4295,1.4506,1.4488,1.4488,1.4488,1.4488,1.4488,1.4488,1.4488,1.4488,1.4488,1.4488,1.4488,1.4499,1.4645,1.4717,1.4738,1.4938,1.5021,1.5035,1.5165,1.5189,1.5189,1.5189,1.5245,1.5307,1.5388,1.5391,1.5391,1.5391,1.5391,1.5547,1.6309,1.6601,1.6988,1.8377,1.8932,1.925,1.9945,2.0215,2.0273,2.0158,2.085,2.1716,2.2466,2.3321,2.363,2.2672,2.2967,2.307,2.229,2.1967,2.1839,2.195,2.1876,2.2097,2.2905,2.3137,2.3014,2.2327,2.2329,2.239,2.242,2.1718,2.1314,2.135,2.0677,2.0312,2.0312,2.0262,2.0263,2.0295,2.0337,2.037,2.0398,2.0435,2.0296,2.0001,1.9313,1.8919,1.8656,1.7021,1.6328,1.6272,1.5503,1.5189,1.5189,1.5189,1.5189,1.5189,1.5189,1.5189,1.5189,1.872,1.8977,1.9161,1.8702,1.8996,1.9305,1.9305,1.9305,1.9259,1.915,1.9052,1.8787,1.8181,1.692,1.5757,1.492,1.4518,1.4292,1.4274,1.3872,1.3741,1.4011,1.391,1.4011,1.4338,1.432,1.4387,1.4488,1.4488,1.4488,1.4488,1.4488,1.4488,1.4488,1.4488,1.4488,1.4499,1.4567,1.4635,1.4708,1.4875,1.4981,1.5002,1.5146,1.5189,1.5201,1.5245,1.5297,1.5366,1.5389,1.5391,1.5391,1.5391,1.5723,1.6191,1.6582,1.7362,1.8251,1.8968,1.9471,1.9899,2.0225,2.0295,2.0417,2.0858,2.1254,2.162,2.1985,2.2774,2.318,2.2528,2.2341,2.2231,2.2044,2.1588,2.1575,2.261,2.268,2.298,2.3894,2.3742,2.346,2.3164,2.2887,2.2748,2.2793,2.2447,2.2004,2.1523,2.1158,2.0758,2.0308,2.0289,2.0311,2.0371,2.0425,2.0438,2.0394,2.0501,2.0508,2.0371,1.9564,1.891,1.8367,1.7053,1.6246,1.5796,1.5367,1.5189,1.5189,1.5189,1.5189,1.5189,1.5189,1.5189,1.5189]}]]